<?xml version='1.0' encoding='UTF-8'?>
<gpx version="1.1" creator="https://www.komoot.de" xmlns="http://www.topografix.com/GPX/1/1" xmlns:xsi="http://www.w3.org/2001/XMLSchema-instance" xsi:schemaLocation="http://www.topografix.com/GPX/1/1 http://www.topografix.com/GPX/1/1/gpx.xsd">
  <metadata>
    <name>60_880HoelsteinAsp</name>
    <author>
      <link href="https://www.komoot.de">
        <text>komoot</text>
        <type>text/html</type>
      </link>
    </author>
  </metadata>
  <trk>
    <name>60_880HoelsteinAsp</name>
    <trkseg>
      <trkpt lat="47.541415" lon="7.870787">
        <ele>339.094667</ele>
        <time>2021-11-15T21:48:30.588Z</time>
      </trkpt>
      <trkpt lat="47.541576" lon="7.870664">
        <ele>339.094667</ele>
        <time>2021-11-15T21:48:33.016Z</time>
      </trkpt>
      <trkpt lat="47.541550" lon="7.870601">
        <ele>339.094667</ele>
        <time>2021-11-15T21:48:33.827Z</time>
      </trkpt>
      <trkpt lat="47.541521" lon="7.870517">
        <ele>339.094667</ele>
        <time>2021-11-15T21:48:34.884Z</time>
      </trkpt>
      <trkpt lat="47.541606" lon="7.870424">
        <ele>339.094667</ele>
        <time>2021-11-15T21:48:36.595Z</time>
      </trkpt>
      <trkpt lat="47.541910" lon="7.870106">
        <ele>339.094667</ele>
        <time>2021-11-15T21:48:42.437Z</time>
      </trkpt>
      <trkpt lat="47.542014" lon="7.870126">
        <ele>339.094667</ele>
        <time>2021-11-15T21:48:43.964Z</time>
      </trkpt>
      <trkpt lat="47.542118" lon="7.870135">
        <ele>339.014073</ele>
        <time>2021-11-15T21:48:45.720Z</time>
      </trkpt>
      <trkpt lat="47.542181" lon="7.870131">
        <ele>338.952276</ele>
        <time>2021-11-15T21:48:46.609Z</time>
      </trkpt>
      <trkpt lat="47.542317" lon="7.870012">
        <ele>338.797483</ele>
        <time>2021-11-15T21:48:48.794Z</time>
      </trkpt>
      <trkpt lat="47.542348" lon="7.869983">
        <ele>338.761552</ele>
        <time>2021-11-15T21:48:49.242Z</time>
      </trkpt>
      <trkpt lat="47.542329" lon="7.869820">
        <ele>338.652125</ele>
        <time>2021-11-15T21:48:51.041Z</time>
      </trkpt>
      <trkpt lat="47.542372" lon="7.869746">
        <ele>338.587531</ele>
        <time>2021-11-15T21:48:51.865Z</time>
      </trkpt>
      <trkpt lat="47.542657" lon="7.869354">
        <ele>338.206404</ele>
        <time>2021-11-15T21:48:56.724Z</time>
      </trkpt>
      <trkpt lat="47.542696" lon="7.869257">
        <ele>338.131715</ele>
        <time>2021-11-15T21:48:57.659Z</time>
      </trkpt>
      <trkpt lat="47.542722" lon="7.869201">
        <ele>338.086752</ele>
        <time>2021-11-15T21:48:58.251Z</time>
      </trkpt>
      <trkpt lat="47.543049" lon="7.868759">
        <ele>337.652941</ele>
        <time>2021-11-15T21:49:03.164Z</time>
      </trkpt>
      <trkpt lat="47.543105" lon="7.868711">
        <ele>337.589537</ele>
        <time>2021-11-15T21:49:03.902Z</time>
      </trkpt>
      <trkpt lat="47.543201" lon="7.868657">
        <ele>337.488903</ele>
        <time>2021-11-15T21:49:04.980Z</time>
      </trkpt>
      <trkpt lat="47.543657" lon="7.868359">
        <ele>336.904331</ele>
        <time>2021-11-15T21:49:10.776Z</time>
      </trkpt>
      <trkpt lat="47.543801" lon="7.868269">
        <ele>336.706748</ele>
        <time>2021-11-15T21:49:13.256Z</time>
      </trkpt>
      <trkpt lat="47.544214" lon="7.867988">
        <ele>336.132200</ele>
        <time>2021-11-15T21:49:20.873Z</time>
      </trkpt>
      <trkpt lat="47.544246" lon="7.867967">
        <ele>336.087954</ele>
        <time>2021-11-15T21:49:21.469Z</time>
      </trkpt>
      <trkpt lat="47.544410" lon="7.867825">
        <ele>335.847810</ele>
        <time>2021-11-15T21:49:24.722Z</time>
      </trkpt>
      <trkpt lat="47.544469" lon="7.867776">
        <ele>335.762301</ele>
        <time>2021-11-15T21:49:25.744Z</time>
      </trkpt>
      <trkpt lat="47.544568" lon="7.867693">
        <ele>335.618493</ele>
        <time>2021-11-15T21:49:27.671Z</time>
      </trkpt>
      <trkpt lat="47.544772" lon="7.867499">
        <ele>335.312033</ele>
        <time>2021-11-15T21:49:31.698Z</time>
      </trkpt>
      <trkpt lat="47.545003" lon="7.867278">
        <ele>335.131526</ele>
        <time>2021-11-15T21:49:36.536Z</time>
      </trkpt>
      <trkpt lat="47.545160" lon="7.866985">
        <ele>335.381371</ele>
        <time>2021-11-15T21:49:41.187Z</time>
      </trkpt>
      <trkpt lat="47.545240" lon="7.866887">
        <ele>335.484079</ele>
        <time>2021-11-15T21:49:43.461Z</time>
      </trkpt>
      <trkpt lat="47.546096" lon="7.866147">
        <ele>336.464669</ele>
        <time>2021-11-15T21:50:08.529Z</time>
      </trkpt>
      <trkpt lat="47.546327" lon="7.865959">
        <ele>336.725441</ele>
        <time>2021-11-15T21:50:16.265Z</time>
      </trkpt>
      <trkpt lat="47.546510" lon="7.865766">
        <ele>337.056351</ele>
        <time>2021-11-15T21:50:23.366Z</time>
      </trkpt>
      <trkpt lat="47.546819" lon="7.865489">
        <ele>337.766862</ele>
        <time>2021-11-15T21:50:33.597Z</time>
      </trkpt>
      <trkpt lat="47.546889" lon="7.865225">
        <ele>338.143503</ele>
        <time>2021-11-15T21:50:38.789Z</time>
      </trkpt>
      <trkpt lat="47.546894" lon="7.864837">
        <ele>338.658818</ele>
        <time>2021-11-15T21:50:46.209Z</time>
      </trkpt>
      <trkpt lat="47.546885" lon="7.864500">
        <ele>339.106667</ele>
        <time>2021-11-15T21:50:52.997Z</time>
      </trkpt>
      <trkpt lat="47.546877" lon="7.864345">
        <ele>339.313090</ele>
        <time>2021-11-15T21:50:55.891Z</time>
      </trkpt>
      <trkpt lat="47.546592" lon="7.863006">
        <ele>340.649388</ele>
        <time>2021-11-15T21:51:21.900Z</time>
      </trkpt>
      <trkpt lat="47.546526" lon="7.861665">
        <ele>341.258147</ele>
        <time>2021-11-15T21:51:42.632Z</time>
      </trkpt>
      <trkpt lat="47.546487" lon="7.859119">
        <ele>341.184182</ele>
        <time>2021-11-15T21:52:15.252Z</time>
      </trkpt>
      <trkpt lat="47.546537" lon="7.857497">
        <ele>340.866730</ele>
        <time>2021-11-15T21:52:36.264Z</time>
      </trkpt>
      <trkpt lat="47.546582" lon="7.856413">
        <ele>340.679952</ele>
        <time>2021-11-15T21:52:50.617Z</time>
      </trkpt>
      <trkpt lat="47.546945" lon="7.851719">
        <ele>339.197479</ele>
        <time>2021-11-15T21:53:51.652Z</time>
      </trkpt>
      <trkpt lat="47.547141" lon="7.850355">
        <ele>338.270912</ele>
        <time>2021-11-15T21:54:07.218Z</time>
      </trkpt>
      <trkpt lat="47.547143" lon="7.849985">
        <ele>337.776907</ele>
        <time>2021-11-15T21:54:11.126Z</time>
      </trkpt>
      <trkpt lat="47.547124" lon="7.848795">
        <ele>336.187686</ele>
        <time>2021-11-15T21:54:23.724Z</time>
      </trkpt>
      <trkpt lat="47.547274" lon="7.845536">
        <ele>332.181653</ele>
        <time>2021-11-15T21:54:58.483Z</time>
      </trkpt>
      <trkpt lat="47.547295" lon="7.844722">
        <ele>331.509553</ele>
        <time>2021-11-15T21:55:07.966Z</time>
      </trkpt>
      <trkpt lat="47.547313" lon="7.843735">
        <ele>331.244324</ele>
        <time>2021-11-15T21:55:20.369Z</time>
      </trkpt>
      <trkpt lat="47.547354" lon="7.842839">
        <ele>331.003084</ele>
        <time>2021-11-15T21:55:32.557Z</time>
      </trkpt>
      <trkpt lat="47.547448" lon="7.842262">
        <ele>330.823703</ele>
        <time>2021-11-15T21:55:40.805Z</time>
      </trkpt>
      <trkpt lat="47.547362" lon="7.841665">
        <ele>330.563483</ele>
        <time>2021-11-15T21:55:48.942Z</time>
      </trkpt>
      <trkpt lat="47.547339" lon="7.841072">
        <ele>330.310282</ele>
        <time>2021-11-15T21:55:56.447Z</time>
      </trkpt>
      <trkpt lat="47.547332" lon="7.840572">
        <ele>330.097097</ele>
        <time>2021-11-15T21:56:02.541Z</time>
      </trkpt>
      <trkpt lat="47.547320" lon="7.839845">
        <ele>329.787098</ele>
        <time>2021-11-15T21:56:11.004Z</time>
      </trkpt>
      <trkpt lat="47.547300" lon="7.838688">
        <ele>328.510367</ele>
        <time>2021-11-15T21:56:23.797Z</time>
      </trkpt>
      <trkpt lat="47.547276" lon="7.837287">
        <ele>326.868220</ele>
        <time>2021-11-15T21:56:38.715Z</time>
      </trkpt>
      <trkpt lat="47.547240" lon="7.836221">
        <ele>325.562694</ele>
        <time>2021-11-15T21:56:50.172Z</time>
      </trkpt>
      <trkpt lat="47.547190" lon="7.835066">
        <ele>324.132245</ele>
        <time>2021-11-15T21:57:02.677Z</time>
      </trkpt>
      <trkpt lat="47.547020" lon="7.831965">
        <ele>320.370743</ele>
        <time>2021-11-15T21:57:36.477Z</time>
      </trkpt>
      <trkpt lat="47.546946" lon="7.830852">
        <ele>318.906384</ele>
        <time>2021-11-15T21:57:48.509Z</time>
      </trkpt>
      <trkpt lat="47.546823" lon="7.829336">
        <ele>316.870072</ele>
        <time>2021-11-15T21:58:04.701Z</time>
      </trkpt>
      <trkpt lat="47.546721" lon="7.828140">
        <ele>315.115024</ele>
        <time>2021-11-15T21:58:17.413Z</time>
      </trkpt>
      <trkpt lat="47.546592" lon="7.826850">
        <ele>313.179809</ele>
        <time>2021-11-15T21:58:30.878Z</time>
      </trkpt>
      <trkpt lat="47.546574" lon="7.826239">
        <ele>312.310528</ele>
        <time>2021-11-15T21:58:37.324Z</time>
      </trkpt>
      <trkpt lat="47.546589" lon="7.825597">
        <ele>311.463684</ele>
        <time>2021-11-15T21:58:44.146Z</time>
      </trkpt>
      <trkpt lat="47.546693" lon="7.825618">
        <ele>311.258690</ele>
        <time>2021-11-15T21:58:45.813Z</time>
      </trkpt>
      <trkpt lat="47.547233" lon="7.825872">
        <ele>310.152171</ele>
        <time>2021-11-15T21:58:54.936Z</time>
      </trkpt>
      <trkpt lat="47.547666" lon="7.826091">
        <ele>309.258584</ele>
        <time>2021-11-15T21:59:02.180Z</time>
      </trkpt>
      <trkpt lat="47.548237" lon="7.826410">
        <ele>307.956806</ele>
        <time>2021-11-15T21:59:11.750Z</time>
      </trkpt>
      <trkpt lat="47.548679" lon="7.826710">
        <ele>306.906484</ele>
        <time>2021-11-15T21:59:19.386Z</time>
      </trkpt>
      <trkpt lat="47.548993" lon="7.825343">
        <ele>304.850466</ele>
        <time>2021-11-15T21:59:34.244Z</time>
      </trkpt>
      <trkpt lat="47.549309" lon="7.823603">
        <ele>302.536317</ele>
        <time>2021-11-15T21:59:53.204Z</time>
      </trkpt>
      <trkpt lat="47.549354" lon="7.823316">
        <ele>302.157911</ele>
        <time>2021-11-15T21:59:56.498Z</time>
      </trkpt>
      <trkpt lat="47.549580" lon="7.821865">
        <ele>301.512328</ele>
        <time>2021-11-15T22:00:14.514Z</time>
      </trkpt>
      <trkpt lat="47.549636" lon="7.821487">
        <ele>301.421875</ele>
        <time>2021-11-15T22:00:19.574Z</time>
      </trkpt>
      <trkpt lat="47.549781" lon="7.820506">
        <ele>301.187154</ele>
        <time>2021-11-15T22:00:33.684Z</time>
      </trkpt>
      <trkpt lat="47.549870" lon="7.819908">
        <ele>301.365550</ele>
        <time>2021-11-15T22:00:42.673Z</time>
      </trkpt>
      <trkpt lat="47.550240" lon="7.817600">
        <ele>301.989304</ele>
        <time>2021-11-15T22:01:19.882Z</time>
      </trkpt>
      <trkpt lat="47.550457" lon="7.816559">
        <ele>301.417724</ele>
        <time>2021-11-15T22:01:33.854Z</time>
      </trkpt>
      <trkpt lat="47.550839" lon="7.816590">
        <ele>301.120359</ele>
        <time>2021-11-15T22:01:40.132Z</time>
      </trkpt>
      <trkpt lat="47.551537" lon="7.816539">
        <ele>300.471278</ele>
        <time>2021-11-15T22:01:51.698Z</time>
      </trkpt>
      <trkpt lat="47.551563" lon="7.816537">
        <ele>300.436397</ele>
        <time>2021-11-15T22:01:52.019Z</time>
      </trkpt>
      <trkpt lat="47.552368" lon="7.816478">
        <ele>299.356578</ele>
        <time>2021-11-15T22:02:04.702Z</time>
      </trkpt>
      <trkpt lat="47.552844" lon="7.816432">
        <ele>298.717500</ele>
        <time>2021-11-15T22:02:12.700Z</time>
      </trkpt>
      <trkpt lat="47.552711" lon="7.812955">
        <ele>298.735493</ele>
        <time>2021-11-15T22:02:49.483Z</time>
      </trkpt>
      <trkpt lat="47.552566" lon="7.810386">
        <ele>299.723353</ele>
        <time>2021-11-15T22:03:19.515Z</time>
      </trkpt>
      <trkpt lat="47.552398" lon="7.808880">
        <ele>300.392178</ele>
        <time>2021-11-15T22:03:37.996Z</time>
      </trkpt>
      <trkpt lat="47.552068" lon="7.806445">
        <ele>300.773692</ele>
        <time>2021-11-15T22:04:06.345Z</time>
      </trkpt>
      <trkpt lat="47.552015" lon="7.806307">
        <ele>300.774382</ele>
        <time>2021-11-15T22:04:08.070Z</time>
      </trkpt>
      <trkpt lat="47.551895" lon="7.806278">
        <ele>300.775165</ele>
        <time>2021-11-15T22:04:09.378Z</time>
      </trkpt>
      <trkpt lat="47.551651" lon="7.806246">
        <ele>300.776742</ele>
        <time>2021-11-15T22:04:13.147Z</time>
      </trkpt>
      <trkpt lat="47.551671" lon="7.806117">
        <ele>300.777317</ele>
        <time>2021-11-15T22:04:14.459Z</time>
      </trkpt>
      <trkpt lat="47.551676" lon="7.805769">
        <ele>300.700700</ele>
        <time>2021-11-15T22:04:19.113Z</time>
      </trkpt>
      <trkpt lat="47.551681" lon="7.805477">
        <ele>300.546066</ele>
        <time>2021-11-15T22:04:22.329Z</time>
      </trkpt>
      <trkpt lat="47.551709" lon="7.805000">
        <ele>300.292590</ele>
        <time>2021-11-15T22:04:27.974Z</time>
      </trkpt>
      <trkpt lat="47.551731" lon="7.804667">
        <ele>300.115458</ele>
        <time>2021-11-15T22:04:32.617Z</time>
      </trkpt>
      <trkpt lat="47.551744" lon="7.804473">
        <ele>300.012250</ele>
        <time>2021-11-15T22:04:34.620Z</time>
      </trkpt>
      <trkpt lat="47.551741" lon="7.804294">
        <ele>299.917458</ele>
        <time>2021-11-15T22:04:37.004Z</time>
      </trkpt>
      <trkpt lat="47.551692" lon="7.803510">
        <ele>299.500635</ele>
        <time>2021-11-15T22:04:46.151Z</time>
      </trkpt>
      <trkpt lat="47.551751" lon="7.803369">
        <ele>299.412808</ele>
        <time>2021-11-15T22:04:48.152Z</time>
      </trkpt>
      <trkpt lat="47.551744" lon="7.803277">
        <ele>299.367917</ele>
        <time>2021-11-15T22:04:48.971Z</time>
      </trkpt>
      <trkpt lat="47.551732" lon="7.803125">
        <ele>299.380219</ele>
        <time>2021-11-15T22:04:50.359Z</time>
      </trkpt>
      <trkpt lat="47.551666" lon="7.803144">
        <ele>299.388228</ele>
        <time>2021-11-15T22:04:55.025Z</time>
      </trkpt>
      <trkpt lat="47.551598" lon="7.803160">
        <ele>299.396429</ele>
        <time>2021-11-15T22:04:59.770Z</time>
      </trkpt>
      <trkpt lat="47.551163" lon="7.803129">
        <ele>299.448301</ele>
        <time>2021-11-15T22:05:08.795Z</time>
      </trkpt>
      <trkpt lat="47.550981" lon="7.803132">
        <ele>299.469981</ele>
        <time>2021-11-15T22:05:12.808Z</time>
      </trkpt>
      <trkpt lat="47.550196" lon="7.803120">
        <ele>299.563488</ele>
        <time>2021-11-15T22:05:30.134Z</time>
      </trkpt>
      <trkpt lat="47.550134" lon="7.803051">
        <ele>299.572724</ele>
        <time>2021-11-15T22:05:31.816Z</time>
      </trkpt>
      <trkpt lat="47.550146" lon="7.802262">
        <ele>299.721384</ele>
        <time>2021-11-15T22:05:43.199Z</time>
      </trkpt>
      <trkpt lat="47.549879" lon="7.802247">
        <ele>299.802916</ele>
        <time>2021-11-15T22:05:48.978Z</time>
      </trkpt>
      <trkpt lat="47.549481" lon="7.802234">
        <ele>299.924393</ele>
        <time>2021-11-15T22:05:57.701Z</time>
      </trkpt>
      <trkpt lat="47.549410" lon="7.802226">
        <ele>299.946121</ele>
        <time>2021-11-15T22:05:59.303Z</time>
      </trkpt>
      <trkpt lat="47.548877" lon="7.802168">
        <ele>300.109201</ele>
        <time>2021-11-15T22:06:10.517Z</time>
      </trkpt>
      <trkpt lat="47.548626" lon="7.802129">
        <ele>300.143479</ele>
        <time>2021-11-15T22:06:15.724Z</time>
      </trkpt>
      <trkpt lat="47.548607" lon="7.801690">
        <ele>300.164643</ele>
        <time>2021-11-15T22:06:21.797Z</time>
      </trkpt>
      <trkpt lat="47.548607" lon="7.801690">
        <ele>300.164643</ele>
        <time>2021-11-15T22:06:21.806Z</time>
      </trkpt>
      <trkpt lat="47.548607" lon="7.801690">
        <ele>300.164643</ele>
        <time>2021-11-15T22:06:21.822Z</time>
      </trkpt>
      <trkpt lat="47.548596" lon="7.801213">
        <ele>300.187605</ele>
        <time>2021-11-15T22:06:28.355Z</time>
      </trkpt>
      <trkpt lat="47.548576" lon="7.800968">
        <ele>300.199477</ele>
        <time>2021-11-15T22:06:31.717Z</time>
      </trkpt>
      <trkpt lat="47.548569" lon="7.800838">
        <ele>300.205751</ele>
        <time>2021-11-15T22:06:33.482Z</time>
      </trkpt>
      <trkpt lat="47.548560" lon="7.800672">
        <ele>300.213763</ele>
        <time>2021-11-15T22:06:35.798Z</time>
      </trkpt>
      <trkpt lat="47.548545" lon="7.800404">
        <ele>300.226701</ele>
        <time>2021-11-15T22:06:39.445Z</time>
      </trkpt>
      <trkpt lat="47.548519" lon="7.799896">
        <ele>300.251211</ele>
        <time>2021-11-15T22:06:46.560Z</time>
      </trkpt>
      <trkpt lat="47.548514" lon="7.799795">
        <ele>300.256083</ele>
        <time>2021-11-15T22:06:47.964Z</time>
      </trkpt>
      <trkpt lat="47.548535" lon="7.799720">
        <ele>300.267100</ele>
        <time>2021-11-15T22:06:49.115Z</time>
      </trkpt>
      <trkpt lat="47.548459" lon="7.799691">
        <ele>300.302566</ele>
        <time>2021-11-15T22:06:50.761Z</time>
      </trkpt>
      <trkpt lat="47.547912" lon="7.799646">
        <ele>300.550141</ele>
        <time>2021-11-15T22:07:02.004Z</time>
      </trkpt>
      <trkpt lat="47.547540" lon="7.799538">
        <ele>300.721449</ele>
        <time>2021-11-15T22:07:09.964Z</time>
      </trkpt>
      <trkpt lat="47.546418" lon="7.798980">
        <ele>301.165200</ele>
        <time>2021-11-15T22:07:38.420Z</time>
      </trkpt>
      <trkpt lat="47.545807" lon="7.798846">
        <ele>301.306742</ele>
        <time>2021-11-15T22:07:51.363Z</time>
      </trkpt>
      <trkpt lat="47.545731" lon="7.798810">
        <ele>301.325026</ele>
        <time>2021-11-15T22:07:53.409Z</time>
      </trkpt>
      <trkpt lat="47.545581" lon="7.798713">
        <ele>301.362532</ele>
        <time>2021-11-15T22:07:56.213Z</time>
      </trkpt>
      <trkpt lat="47.545511" lon="7.798680">
        <ele>301.379366</ele>
        <time>2021-11-15T22:07:57.705Z</time>
      </trkpt>
      <trkpt lat="47.545558" lon="7.798144">
        <ele>301.462973</ele>
        <time>2021-11-15T22:08:04.493Z</time>
      </trkpt>
      <trkpt lat="47.545637" lon="7.797310">
        <ele>301.499304</ele>
        <time>2021-11-15T22:08:16.246Z</time>
      </trkpt>
      <trkpt lat="47.545645" lon="7.797258">
        <ele>301.500482</ele>
        <time>2021-11-15T22:08:16.739Z</time>
      </trkpt>
      <trkpt lat="47.545670" lon="7.797142">
        <ele>301.503172</ele>
        <time>2021-11-15T22:08:18.295Z</time>
      </trkpt>
      <trkpt lat="47.545689" lon="7.797076">
        <ele>301.504757</ele>
        <time>2021-11-15T22:08:19.199Z</time>
      </trkpt>
      <trkpt lat="47.545728" lon="7.796950">
        <ele>301.507818</ele>
        <time>2021-11-15T22:08:21.907Z</time>
      </trkpt>
      <trkpt lat="47.545776" lon="7.796788">
        <ele>301.511726</ele>
        <time>2021-11-15T22:08:24.310Z</time>
      </trkpt>
      <trkpt lat="47.545788" lon="7.796748">
        <ele>301.512693</ele>
        <time>2021-11-15T22:08:24.769Z</time>
      </trkpt>
      <trkpt lat="47.545889" lon="7.796500">
        <ele>301.519090</ele>
        <time>2021-11-15T22:08:29.053Z</time>
      </trkpt>
      <trkpt lat="47.546038" lon="7.796107">
        <ele>301.529046</ele>
        <time>2021-11-15T22:08:34.608Z</time>
      </trkpt>
      <trkpt lat="47.546105" lon="7.795928">
        <ele>301.533567</ele>
        <time>2021-11-15T22:08:38.148Z</time>
      </trkpt>
      <trkpt lat="47.546154" lon="7.795747">
        <ele>301.537874</ele>
        <time>2021-11-15T22:08:40.453Z</time>
      </trkpt>
      <trkpt lat="47.546170" lon="7.795612">
        <ele>301.540901</ele>
        <time>2021-11-15T22:08:42.366Z</time>
      </trkpt>
      <trkpt lat="47.546165" lon="7.795511">
        <ele>301.550277</ele>
        <time>2021-11-15T22:08:44.390Z</time>
      </trkpt>
      <trkpt lat="47.546019" lon="7.795020">
        <ele>301.697061</ele>
        <time>2021-11-15T22:08:51.981Z</time>
      </trkpt>
      <trkpt lat="47.545947" lon="7.794710">
        <ele>301.786751</ele>
        <time>2021-11-15T22:08:56.995Z</time>
      </trkpt>
      <trkpt lat="47.545921" lon="7.794468">
        <ele>301.853791</ele>
        <time>2021-11-15T22:09:01.048Z</time>
      </trkpt>
      <trkpt lat="47.545969" lon="7.793663">
        <ele>302.074881</ele>
        <time>2021-11-15T22:09:13.659Z</time>
      </trkpt>
      <trkpt lat="47.546027" lon="7.793254">
        <ele>302.189218</ele>
        <time>2021-11-15T22:09:20.184Z</time>
      </trkpt>
      <trkpt lat="47.546090" lon="7.792904">
        <ele>302.238902</ele>
        <time>2021-11-15T22:09:24.951Z</time>
      </trkpt>
      <trkpt lat="47.546253" lon="7.791998">
        <ele>301.741163</ele>
        <time>2021-11-15T22:09:36.787Z</time>
      </trkpt>
      <trkpt lat="47.546580" lon="7.789608">
        <ele>300.471862</ele>
        <time>2021-11-15T22:10:04.765Z</time>
      </trkpt>
      <trkpt lat="47.546673" lon="7.788921">
        <ele>300.122774</ele>
        <time>2021-11-15T22:10:13.317Z</time>
      </trkpt>
      <trkpt lat="47.546695" lon="7.788763">
        <ele>300.042399</ele>
        <time>2021-11-15T22:10:15.226Z</time>
      </trkpt>
      <trkpt lat="47.546897" lon="7.787133">
        <ele>300.289231</ele>
        <time>2021-11-15T22:10:36.138Z</time>
      </trkpt>
      <trkpt lat="47.546959" lon="7.786598">
        <ele>300.946505</ele>
        <time>2021-11-15T22:10:43.625Z</time>
      </trkpt>
      <trkpt lat="47.546952" lon="7.786540">
        <ele>301.017847</ele>
        <time>2021-11-15T22:10:44.584Z</time>
      </trkpt>
      <trkpt lat="47.546913" lon="7.786470">
        <ele>301.127749</ele>
        <time>2021-11-15T22:10:46.367Z</time>
      </trkpt>
      <trkpt lat="47.546526" lon="7.786353">
        <ele>301.836281</ele>
        <time>2021-11-15T22:10:57.764Z</time>
      </trkpt>
      <trkpt lat="47.546464" lon="7.786335">
        <ele>301.949616</ele>
        <time>2021-11-15T22:10:59.569Z</time>
      </trkpt>
      <trkpt lat="47.546417" lon="7.786331">
        <ele>302.034067</ele>
        <time>2021-11-15T22:11:00.807Z</time>
      </trkpt>
      <trkpt lat="47.546102" lon="7.786217">
        <ele>302.615749</ele>
        <time>2021-11-15T22:11:12.360Z</time>
      </trkpt>
      <trkpt lat="47.545856" lon="7.785973">
        <ele>304.068750</ele>
        <time>2021-11-15T22:11:24.515Z</time>
      </trkpt>
      <trkpt lat="47.545672" lon="7.785654">
        <ele>305.775125</ele>
        <time>2021-11-15T22:11:35.842Z</time>
      </trkpt>
      <trkpt lat="47.545624" lon="7.785548">
        <ele>306.294204</ele>
        <time>2021-11-15T22:11:42.506Z</time>
      </trkpt>
      <trkpt lat="47.545250" lon="7.784778">
        <ele>310.151946</ele>
        <time>2021-11-15T22:12:14.033Z</time>
      </trkpt>
      <trkpt lat="47.545240" lon="7.784746">
        <ele>310.295349</ele>
        <time>2021-11-15T22:12:16.712Z</time>
      </trkpt>
      <trkpt lat="47.545054" lon="7.784227">
        <ele>312.684986</ele>
        <time>2021-11-15T22:12:34.861Z</time>
      </trkpt>
      <trkpt lat="47.544950" lon="7.784008">
        <ele>313.575968</ele>
        <time>2021-11-15T22:12:41.192Z</time>
      </trkpt>
      <trkpt lat="47.544627" lon="7.783499">
        <ele>313.324421</ele>
        <time>2021-11-15T22:12:57.055Z</time>
      </trkpt>
      <trkpt lat="47.544555" lon="7.783372">
        <ele>313.264704</ele>
        <time>2021-11-15T22:12:59.132Z</time>
      </trkpt>
      <trkpt lat="47.544490" lon="7.783060">
        <ele>313.147133</ele>
        <time>2021-11-15T22:13:03.878Z</time>
      </trkpt>
      <trkpt lat="47.544474" lon="7.782623">
        <ele>312.989550</ele>
        <time>2021-11-15T22:13:08.886Z</time>
      </trkpt>
      <trkpt lat="47.544469" lon="7.782455">
        <ele>312.928999</ele>
        <time>2021-11-15T22:13:10.185Z</time>
      </trkpt>
      <trkpt lat="47.544461" lon="7.782254">
        <ele>312.856499</ele>
        <time>2021-11-15T22:13:11.450Z</time>
      </trkpt>
      <trkpt lat="47.544100" lon="7.779438">
        <ele>303.471063</ele>
        <time>2021-11-15T22:13:28.939Z</time>
      </trkpt>
      <trkpt lat="47.543933" lon="7.778374">
        <ele>300.502991</ele>
        <time>2021-11-15T22:13:36.009Z</time>
      </trkpt>
      <trkpt lat="47.543707" lon="7.777394">
        <ele>298.571832</ele>
        <time>2021-11-15T22:13:43.230Z</time>
      </trkpt>
      <trkpt lat="47.543527" lon="7.776532">
        <ele>296.889257</ele>
        <time>2021-11-15T22:13:50.374Z</time>
      </trkpt>
      <trkpt lat="47.543482" lon="7.776095">
        <ele>296.714841</ele>
        <time>2021-11-15T22:13:54.250Z</time>
      </trkpt>
      <trkpt lat="47.543449" lon="7.775478">
        <ele>296.597896</ele>
        <time>2021-11-15T22:13:59.993Z</time>
      </trkpt>
      <trkpt lat="47.543402" lon="7.775016">
        <ele>296.509617</ele>
        <time>2021-11-15T22:14:04.662Z</time>
      </trkpt>
      <trkpt lat="47.543350" lon="7.774507">
        <ele>296.412348</ele>
        <time>2021-11-15T22:14:09.900Z</time>
      </trkpt>
      <trkpt lat="47.543145" lon="7.773277">
        <ele>296.167114</ele>
        <time>2021-11-15T22:14:22.799Z</time>
      </trkpt>
      <trkpt lat="47.543108" lon="7.773069">
        <ele>296.124343</ele>
        <time>2021-11-15T22:14:24.979Z</time>
      </trkpt>
      <trkpt lat="47.542720" lon="7.770771">
        <ele>295.781641</ele>
        <time>2021-11-15T22:14:46.201Z</time>
      </trkpt>
      <trkpt lat="47.542450" lon="7.769311">
        <ele>295.861102</ele>
        <time>2021-11-15T22:15:00.173Z</time>
      </trkpt>
      <trkpt lat="47.542317" lon="7.768533">
        <ele>296.234861</ele>
        <time>2021-11-15T22:15:08.546Z</time>
      </trkpt>
      <trkpt lat="47.541697" lon="7.765479">
        <ele>304.913970</ele>
        <time>2021-11-15T22:16:10.812Z</time>
      </trkpt>
      <trkpt lat="47.541552" lon="7.764869">
        <ele>308.150900</ele>
        <time>2021-11-15T22:16:30.552Z</time>
      </trkpt>
      <trkpt lat="47.541443" lon="7.764512">
        <ele>310.112031</ele>
        <time>2021-11-15T22:16:44.403Z</time>
      </trkpt>
      <trkpt lat="47.541364" lon="7.764150">
        <ele>312.016249</ele>
        <time>2021-11-15T22:16:55.370Z</time>
      </trkpt>
      <trkpt lat="47.541377" lon="7.764045">
        <ele>312.550564</ele>
        <time>2021-11-15T22:16:59.933Z</time>
      </trkpt>
      <trkpt lat="47.541334" lon="7.764020">
        <ele>312.893065</ele>
        <time>2021-11-15T22:17:04.776Z</time>
      </trkpt>
      <trkpt lat="47.541219" lon="7.763853">
        <ele>314.087104</ele>
        <time>2021-11-15T22:17:11.364Z</time>
      </trkpt>
      <trkpt lat="47.541023" lon="7.762922">
        <ele>319.772558</ele>
        <time>2021-11-15T22:17:49.696Z</time>
      </trkpt>
      <trkpt lat="47.541004" lon="7.762306">
        <ele>323.456094</ele>
        <time>2021-11-15T22:18:12.514Z</time>
      </trkpt>
      <trkpt lat="47.540921" lon="7.761599">
        <ele>327.742775</ele>
        <time>2021-11-15T22:18:37.183Z</time>
      </trkpt>
      <trkpt lat="47.540567" lon="7.759901">
        <ele>334.112118</ele>
        <time>2021-11-15T22:19:21.857Z</time>
      </trkpt>
      <trkpt lat="47.540447" lon="7.759585">
        <ele>335.072794</ele>
        <time>2021-11-15T22:19:29.440Z</time>
      </trkpt>
      <trkpt lat="47.539949" lon="7.758688">
        <ele>337.546375</ele>
        <time>2021-11-15T22:19:47.685Z</time>
      </trkpt>
      <trkpt lat="47.539722" lon="7.758107">
        <ele>336.369325</ele>
        <time>2021-11-15T22:19:53.975Z</time>
      </trkpt>
      <trkpt lat="47.539595" lon="7.757548">
        <ele>335.335145</ele>
        <time>2021-11-15T22:19:58.368Z</time>
      </trkpt>
      <trkpt lat="47.539346" lon="7.755736">
        <ele>331.006679</ele>
        <time>2021-11-15T22:20:10.112Z</time>
      </trkpt>
      <trkpt lat="47.539230" lon="7.755294">
        <ele>329.291731</ele>
        <time>2021-11-15T22:20:13.004Z</time>
      </trkpt>
      <trkpt lat="47.539079" lon="7.754976">
        <ele>327.885754</ele>
        <time>2021-11-15T22:20:15.395Z</time>
      </trkpt>
      <trkpt lat="47.538792" lon="7.754549">
        <ele>325.706736</ele>
        <time>2021-11-15T22:20:19.129Z</time>
      </trkpt>
      <trkpt lat="47.538723" lon="7.754445">
        <ele>325.179411</ele>
        <time>2021-11-15T22:20:20.027Z</time>
      </trkpt>
      <trkpt lat="47.538494" lon="7.754103">
        <ele>323.463970</ele>
        <time>2021-11-15T22:20:23.187Z</time>
      </trkpt>
      <trkpt lat="47.538359" lon="7.753900">
        <ele>323.075404</ele>
        <time>2021-11-15T22:20:25.088Z</time>
      </trkpt>
      <trkpt lat="47.538052" lon="7.753460">
        <ele>322.212544</ele>
        <time>2021-11-15T22:20:29.495Z</time>
      </trkpt>
      <trkpt lat="47.537715" lon="7.753194">
        <ele>321.441229</ele>
        <time>2021-11-15T22:20:33.614Z</time>
      </trkpt>
      <trkpt lat="47.537564" lon="7.753073">
        <ele>321.094455</ele>
        <time>2021-11-15T22:20:35.516Z</time>
      </trkpt>
      <trkpt lat="47.537371" lon="7.752851">
        <ele>320.600877</ele>
        <time>2021-11-15T22:20:38.953Z</time>
      </trkpt>
      <trkpt lat="47.537134" lon="7.752309">
        <ele>319.830997</ele>
        <time>2021-11-15T22:20:45.241Z</time>
      </trkpt>
      <trkpt lat="47.535912" lon="7.749669">
        <ele>319.243376</ele>
        <time>2021-11-15T22:21:15.421Z</time>
      </trkpt>
      <trkpt lat="47.534874" lon="7.746551">
        <ele>319.866842</ele>
        <time>2021-11-15T22:21:47.271Z</time>
      </trkpt>
      <trkpt lat="47.534429" lon="7.744856">
        <ele>322.906910</ele>
        <time>2021-11-15T22:22:19.062Z</time>
      </trkpt>
      <trkpt lat="47.534370" lon="7.744709">
        <ele>323.512774</ele>
        <time>2021-11-15T22:22:21.769Z</time>
      </trkpt>
      <trkpt lat="47.534179" lon="7.744495">
        <ele>324.769483</ele>
        <time>2021-11-15T22:22:31.036Z</time>
      </trkpt>
      <trkpt lat="47.534097" lon="7.744343">
        <ele>325.458784</ele>
        <time>2021-11-15T22:22:34.660Z</time>
      </trkpt>
      <trkpt lat="47.534012" lon="7.744242">
        <ele>326.030606</ele>
        <time>2021-11-15T22:22:40.519Z</time>
      </trkpt>
      <trkpt lat="47.533553" lon="7.743593">
        <ele>329.360457</ele>
        <time>2021-11-15T22:23:04.823Z</time>
      </trkpt>
      <trkpt lat="47.532788" lon="7.742758">
        <ele>334.630396</ele>
        <time>2021-11-15T22:23:48.130Z</time>
      </trkpt>
      <trkpt lat="47.532305" lon="7.742591">
        <ele>337.412265</ele>
        <time>2021-11-15T22:24:05.944Z</time>
      </trkpt>
      <trkpt lat="47.531799" lon="7.742604">
        <ele>340.250724</ele>
        <time>2021-11-15T22:24:22.127Z</time>
      </trkpt>
      <trkpt lat="47.531312" lon="7.742714">
        <ele>340.886325</ele>
        <time>2021-11-15T22:24:34.429Z</time>
      </trkpt>
      <trkpt lat="47.530789" lon="7.742930">
        <ele>341.526468</ele>
        <time>2021-11-15T22:24:45.077Z</time>
      </trkpt>
      <trkpt lat="47.530465" lon="7.743033">
        <ele>341.917165</ele>
        <time>2021-11-15T22:24:50.407Z</time>
      </trkpt>
      <trkpt lat="47.530398" lon="7.742881">
        <ele>342.061668</ele>
        <time>2021-11-15T22:24:51.842Z</time>
      </trkpt>
      <trkpt lat="47.530358" lon="7.742595">
        <ele>342.294175</ele>
        <time>2021-11-15T22:24:55.035Z</time>
      </trkpt>
      <trkpt lat="47.530354" lon="7.742323">
        <ele>342.382000</ele>
        <time>2021-11-15T22:24:57.310Z</time>
      </trkpt>
      <trkpt lat="47.530319" lon="7.741826">
        <ele>342.048716</ele>
        <time>2021-11-15T22:25:01.597Z</time>
      </trkpt>
      <trkpt lat="47.530274" lon="7.741330">
        <ele>341.714924</ele>
        <time>2021-11-15T22:25:05.747Z</time>
      </trkpt>
      <trkpt lat="47.530189" lon="7.741149">
        <ele>341.567873</ele>
        <time>2021-11-15T22:25:07.625Z</time>
      </trkpt>
      <trkpt lat="47.529727" lon="7.740791">
        <ele>341.052810</ele>
        <time>2021-11-15T22:25:13.651Z</time>
      </trkpt>
      <trkpt lat="47.529662" lon="7.740909">
        <ele>340.951237</ele>
        <time>2021-11-15T22:25:14.935Z</time>
      </trkpt>
      <trkpt lat="47.528573" lon="7.742445">
        <ele>339.667759</ele>
        <time>2021-11-15T22:25:33.057Z</time>
      </trkpt>
      <trkpt lat="47.528416" lon="7.742548">
        <ele>339.526738</ele>
        <time>2021-11-15T22:25:35.143Z</time>
      </trkpt>
      <trkpt lat="47.528103" lon="7.742593">
        <ele>339.268477</ele>
        <time>2021-11-15T22:25:39.508Z</time>
      </trkpt>
      <trkpt lat="47.527982" lon="7.742599">
        <ele>339.206580</ele>
        <time>2021-11-15T22:25:40.861Z</time>
      </trkpt>
      <trkpt lat="47.527999" lon="7.742832">
        <ele>339.350984</ele>
        <time>2021-11-15T22:25:44.124Z</time>
      </trkpt>
      <trkpt lat="47.527974" lon="7.743612">
        <ele>339.832141</ele>
        <time>2021-11-15T22:25:52.935Z</time>
      </trkpt>
      <trkpt lat="47.527877" lon="7.744397">
        <ele>340.323871</ele>
        <time>2021-11-15T22:26:04.203Z</time>
      </trkpt>
      <trkpt lat="47.527847" lon="7.744575">
        <ele>340.436916</ele>
        <time>2021-11-15T22:26:06.932Z</time>
      </trkpt>
      <trkpt lat="47.527803" lon="7.744786">
        <ele>340.572988</ele>
        <time>2021-11-15T22:26:10.061Z</time>
      </trkpt>
      <trkpt lat="47.527663" lon="7.745368">
        <ele>340.522721</ele>
        <time>2021-11-15T22:26:21.435Z</time>
      </trkpt>
      <trkpt lat="47.527272" lon="7.746452">
        <ele>338.679981</ele>
        <time>2021-11-15T22:26:30.920Z</time>
      </trkpt>
      <trkpt lat="47.527234" lon="7.746739">
        <ele>338.241451</ele>
        <time>2021-11-15T22:26:32.942Z</time>
      </trkpt>
      <trkpt lat="47.527234" lon="7.746843">
        <ele>338.085510</ele>
        <time>2021-11-15T22:26:34.457Z</time>
      </trkpt>
      <trkpt lat="47.527104" lon="7.746939">
        <ele>337.762936</ele>
        <time>2021-11-15T22:26:36.300Z</time>
      </trkpt>
      <trkpt lat="47.526986" lon="7.747029">
        <ele>337.468198</ele>
        <time>2021-11-15T22:26:38.216Z</time>
      </trkpt>
      <trkpt lat="47.526878" lon="7.747117">
        <ele>337.194472</ele>
        <time>2021-11-15T22:26:40.196Z</time>
      </trkpt>
      <trkpt lat="47.526743" lon="7.747167">
        <ele>336.885460</ele>
        <time>2021-11-15T22:26:41.912Z</time>
      </trkpt>
      <trkpt lat="47.526249" lon="7.747111">
        <ele>333.923098</ele>
        <time>2021-11-15T22:26:48.584Z</time>
      </trkpt>
      <trkpt lat="47.526114" lon="7.747216">
        <ele>332.983298</ele>
        <time>2021-11-15T22:26:50.534Z</time>
      </trkpt>
      <trkpt lat="47.525947" lon="7.747470">
        <ele>331.507911</ele>
        <time>2021-11-15T22:26:53.709Z</time>
      </trkpt>
      <trkpt lat="47.525317" lon="7.748722">
        <ele>325.405155</ele>
        <time>2021-11-15T22:27:07.140Z</time>
      </trkpt>
      <trkpt lat="47.525304" lon="7.748899">
        <ele>325.060614</ele>
        <time>2021-11-15T22:27:08.740Z</time>
      </trkpt>
      <trkpt lat="47.525444" lon="7.749458">
        <ele>323.906863</ele>
        <time>2021-11-15T22:27:14.361Z</time>
      </trkpt>
      <trkpt lat="47.525429" lon="7.749531">
        <ele>323.759203</ele>
        <time>2021-11-15T22:27:15.086Z</time>
      </trkpt>
      <trkpt lat="47.525385" lon="7.749630">
        <ele>323.529851</ele>
        <time>2021-11-15T22:27:16.383Z</time>
      </trkpt>
      <trkpt lat="47.525255" lon="7.749393">
        <ele>322.938976</ele>
        <time>2021-11-15T22:27:18.514Z</time>
      </trkpt>
      <trkpt lat="47.525197" lon="7.749283">
        <ele>322.668903</ele>
        <time>2021-11-15T22:27:19.474Z</time>
      </trkpt>
      <trkpt lat="47.525094" lon="7.749090">
        <ele>322.192859</ele>
        <time>2021-11-15T22:27:21.479Z</time>
      </trkpt>
      <trkpt lat="47.524786" lon="7.748513">
        <ele>320.769537</ele>
        <time>2021-11-15T22:27:27.431Z</time>
      </trkpt>
      <trkpt lat="47.524595" lon="7.748826">
        <ele>321.030335</ele>
        <time>2021-11-15T22:27:32.210Z</time>
      </trkpt>
      <trkpt lat="47.523810" lon="7.749861">
        <ele>323.078935</ele>
        <time>2021-11-15T22:27:55.398Z</time>
      </trkpt>
      <trkpt lat="47.522660" lon="7.751079">
        <ele>327.074409</ele>
        <time>2021-11-15T22:28:37.134Z</time>
      </trkpt>
      <trkpt lat="47.522153" lon="7.751504">
        <ele>329.021477</ele>
        <time>2021-11-15T22:28:53.723Z</time>
      </trkpt>
      <trkpt lat="47.521128" lon="7.752139">
        <ele>331.616625</ele>
        <time>2021-11-15T22:29:22.225Z</time>
      </trkpt>
      <trkpt lat="47.520691" lon="7.752581">
        <ele>332.631500</ele>
        <time>2021-11-15T22:29:34.566Z</time>
      </trkpt>
      <trkpt lat="47.520500" lon="7.752840">
        <ele>333.128160</ele>
        <time>2021-11-15T22:29:39.321Z</time>
      </trkpt>
      <trkpt lat="47.520081" lon="7.753575">
        <ele>333.445873</ele>
        <time>2021-11-15T22:29:50.012Z</time>
      </trkpt>
      <trkpt lat="47.519771" lon="7.754124">
        <ele>333.315348</ele>
        <time>2021-11-15T22:29:56.666Z</time>
      </trkpt>
      <trkpt lat="47.519558" lon="7.754516">
        <ele>333.223580</ele>
        <time>2021-11-15T22:30:01.031Z</time>
      </trkpt>
      <trkpt lat="47.518866" lon="7.755813">
        <ele>332.866140</ele>
        <time>2021-11-15T22:30:14.993Z</time>
      </trkpt>
      <trkpt lat="47.517863" lon="7.757421">
        <ele>332.623627</ele>
        <time>2021-11-15T22:30:35.705Z</time>
      </trkpt>
      <trkpt lat="47.516954" lon="7.758506">
        <ele>333.640303</ele>
        <time>2021-11-15T22:30:57.330Z</time>
      </trkpt>
      <trkpt lat="47.516501" lon="7.759179">
        <ele>334.635432</ele>
        <time>2021-11-15T22:31:10.445Z</time>
      </trkpt>
      <trkpt lat="47.515929" lon="7.760077">
        <ele>336.786978</ele>
        <time>2021-11-15T22:31:30.150Z</time>
      </trkpt>
      <trkpt lat="47.515394" lon="7.761200">
        <ele>339.373511</ele>
        <time>2021-11-15T22:31:56.962Z</time>
      </trkpt>
      <trkpt lat="47.515265" lon="7.761533">
        <ele>340.269589</ele>
        <time>2021-11-15T22:32:04.838Z</time>
      </trkpt>
      <trkpt lat="47.515220" lon="7.761710">
        <ele>340.711048</ele>
        <time>2021-11-15T22:32:08.706Z</time>
      </trkpt>
      <trkpt lat="47.515194" lon="7.761991">
        <ele>341.373091</ele>
        <time>2021-11-15T22:32:14.737Z</time>
      </trkpt>
      <trkpt lat="47.515150" lon="7.762617">
        <ele>342.842207</ele>
        <time>2021-11-15T22:32:26.857Z</time>
      </trkpt>
      <trkpt lat="47.515108" lon="7.762767">
        <ele>343.221238</ele>
        <time>2021-11-15T22:32:30.321Z</time>
      </trkpt>
      <trkpt lat="47.515023" lon="7.762891">
        <ele>343.633642</ele>
        <time>2021-11-15T22:32:34.051Z</time>
      </trkpt>
      <trkpt lat="47.514492" lon="7.763207">
        <ele>345.235146</ele>
        <time>2021-11-15T22:32:49.449Z</time>
      </trkpt>
      <trkpt lat="47.514365" lon="7.763357">
        <ele>345.524447</ele>
        <time>2021-11-15T22:32:53.836Z</time>
      </trkpt>
      <trkpt lat="47.514022" lon="7.763802">
        <ele>346.336570</ele>
        <time>2021-11-15T22:33:02.008Z</time>
      </trkpt>
      <trkpt lat="47.513823" lon="7.764227">
        <ele>346.958562</ele>
        <time>2021-11-15T22:33:09.155Z</time>
      </trkpt>
      <trkpt lat="47.513810" lon="7.764252">
        <ele>346.996510</ele>
        <time>2021-11-15T22:33:09.544Z</time>
      </trkpt>
      <trkpt lat="47.513747" lon="7.764397">
        <ele>347.203877</ele>
        <time>2021-11-15T22:33:12.046Z</time>
      </trkpt>
      <trkpt lat="47.513707" lon="7.764494">
        <ele>347.340571</ele>
        <time>2021-11-15T22:33:14.062Z</time>
      </trkpt>
      <trkpt lat="47.513661" lon="7.764590">
        <ele>347.482141</ele>
        <time>2021-11-15T22:33:16.024Z</time>
      </trkpt>
      <trkpt lat="47.513615" lon="7.764654">
        <ele>347.594549</ele>
        <time>2021-11-15T22:33:16.697Z</time>
      </trkpt>
      <trkpt lat="47.513036" lon="7.765134">
        <ele>348.660465</ele>
        <time>2021-11-15T22:33:31.659Z</time>
      </trkpt>
      <trkpt lat="47.512959" lon="7.765198">
        <ele>348.793051</ele>
        <time>2021-11-15T22:33:32.782Z</time>
      </trkpt>
      <trkpt lat="47.512947" lon="7.765205">
        <ele>348.812416</ele>
        <time>2021-11-15T22:33:33.016Z</time>
      </trkpt>
      <trkpt lat="47.512876" lon="7.765238">
        <ele>348.924151</ele>
        <time>2021-11-15T22:33:34.512Z</time>
      </trkpt>
      <trkpt lat="47.512596" lon="7.765294">
        <ele>349.348381</ele>
        <time>2021-11-15T22:33:39.982Z</time>
      </trkpt>
      <trkpt lat="47.512523" lon="7.765308">
        <ele>349.458904</ele>
        <time>2021-11-15T22:33:41.441Z</time>
      </trkpt>
      <trkpt lat="47.512359" lon="7.765319">
        <ele>349.705398</ele>
        <time>2021-11-15T22:33:45.414Z</time>
      </trkpt>
      <trkpt lat="47.512026" lon="7.765311">
        <ele>350.205454</ele>
        <time>2021-11-15T22:33:51.410Z</time>
      </trkpt>
      <trkpt lat="47.511929" lon="7.765269">
        <ele>350.357197</ele>
        <time>2021-11-15T22:33:53.598Z</time>
      </trkpt>
      <trkpt lat="47.511866" lon="7.765218">
        <ele>350.465006</ele>
        <time>2021-11-15T22:33:54.674Z</time>
      </trkpt>
      <trkpt lat="47.511702" lon="7.765093">
        <ele>350.742717</ele>
        <time>2021-11-15T22:33:59.060Z</time>
      </trkpt>
      <trkpt lat="47.511360" lon="7.764807">
        <ele>351.467181</ele>
        <time>2021-11-15T22:34:08.494Z</time>
      </trkpt>
      <trkpt lat="47.511298" lon="7.764777">
        <ele>351.587487</ele>
        <time>2021-11-15T22:34:10.551Z</time>
      </trkpt>
      <trkpt lat="47.511261" lon="7.764772">
        <ele>351.656015</ele>
        <time>2021-11-15T22:34:11.451Z</time>
      </trkpt>
      <trkpt lat="47.510922" lon="7.764773">
        <ele>352.281275</ele>
        <time>2021-11-15T22:34:19.324Z</time>
      </trkpt>
      <trkpt lat="47.510628" lon="7.764909">
        <ele>352.849389</ele>
        <time>2021-11-15T22:34:25.151Z</time>
      </trkpt>
      <trkpt lat="47.510486" lon="7.765012">
        <ele>353.141042</ele>
        <time>2021-11-15T22:34:28.477Z</time>
      </trkpt>
      <trkpt lat="47.510392" lon="7.765088">
        <ele>353.338587</ele>
        <time>2021-11-15T22:34:30.450Z</time>
      </trkpt>
      <trkpt lat="47.510179" lon="7.765273">
        <ele>353.794066</ele>
        <time>2021-11-15T22:34:35.072Z</time>
      </trkpt>
      <trkpt lat="47.510078" lon="7.765363">
        <ele>354.011494</ele>
        <time>2021-11-15T22:34:37.755Z</time>
      </trkpt>
      <trkpt lat="47.510019" lon="7.765402">
        <ele>354.195078</ele>
        <time>2021-11-15T22:34:38.926Z</time>
      </trkpt>
      <trkpt lat="47.509942" lon="7.765436">
        <ele>354.471331</ele>
        <time>2021-11-15T22:34:40.958Z</time>
      </trkpt>
      <trkpt lat="47.509899" lon="7.765445">
        <ele>354.620636</ele>
        <time>2021-11-15T22:34:41.955Z</time>
      </trkpt>
      <trkpt lat="47.509741" lon="7.765454">
        <ele>355.164248</ele>
        <time>2021-11-15T22:34:46.077Z</time>
      </trkpt>
      <trkpt lat="47.509600" lon="7.765443">
        <ele>355.649684</ele>
        <time>2021-11-15T22:34:50.320Z</time>
      </trkpt>
      <trkpt lat="47.509436" lon="7.765441">
        <ele>356.213541</ele>
        <time>2021-11-15T22:34:55.347Z</time>
      </trkpt>
      <trkpt lat="47.509057" lon="7.765447">
        <ele>357.516632</ele>
        <time>2021-11-15T22:35:07.884Z</time>
      </trkpt>
      <trkpt lat="47.508744" lon="7.765478">
        <ele>358.595143</ele>
        <time>2021-11-15T22:35:17.859Z</time>
      </trkpt>
      <trkpt lat="47.508322" lon="7.765556">
        <ele>360.057259</ele>
        <time>2021-11-15T22:35:30.520Z</time>
      </trkpt>
      <trkpt lat="47.508137" lon="7.765584">
        <ele>360.659030</ele>
        <time>2021-11-15T22:35:35.303Z</time>
      </trkpt>
      <trkpt lat="47.507977" lon="7.765561">
        <ele>361.166223</ele>
        <time>2021-11-15T22:35:39.516Z</time>
      </trkpt>
      <trkpt lat="47.507650" lon="7.765503">
        <ele>362.205324</ele>
        <time>2021-11-15T22:35:47.751Z</time>
      </trkpt>
      <trkpt lat="47.507506" lon="7.765470">
        <ele>362.665072</ele>
        <time>2021-11-15T22:35:53.083Z</time>
      </trkpt>
      <trkpt lat="47.507429" lon="7.765409">
        <ele>362.940615</ele>
        <time>2021-11-15T22:35:54.739Z</time>
      </trkpt>
      <trkpt lat="47.506870" lon="7.765037">
        <ele>364.874331</ele>
        <time>2021-11-15T22:36:13.122Z</time>
      </trkpt>
      <trkpt lat="47.506716" lon="7.764971">
        <ele>365.380170</ele>
        <time>2021-11-15T22:36:16.482Z</time>
      </trkpt>
      <trkpt lat="47.506619" lon="7.764938">
        <ele>365.694194</ele>
        <time>2021-11-15T22:36:19.268Z</time>
      </trkpt>
      <trkpt lat="47.506377" lon="7.764894">
        <ele>366.435427</ele>
        <time>2021-11-15T22:36:24.713Z</time>
      </trkpt>
      <trkpt lat="47.506301" lon="7.764884">
        <ele>366.663856</ele>
        <time>2021-11-15T22:36:26.414Z</time>
      </trkpt>
      <trkpt lat="47.506143" lon="7.764883">
        <ele>367.136888</ele>
        <time>2021-11-15T22:36:31.111Z</time>
      </trkpt>
      <trkpt lat="47.505115" lon="7.765011">
        <ele>370.225427</ele>
        <time>2021-11-15T22:36:57.106Z</time>
      </trkpt>
      <trkpt lat="47.504400" lon="7.764478">
        <ele>372.213151</ele>
        <time>2021-11-15T22:37:22.365Z</time>
      </trkpt>
      <trkpt lat="47.503736" lon="7.764325">
        <ele>373.602815</ele>
        <time>2021-11-15T22:37:41.344Z</time>
      </trkpt>
      <trkpt lat="47.502578" lon="7.764620">
        <ele>375.188507</ele>
        <time>2021-11-15T22:37:56.367Z</time>
      </trkpt>
      <trkpt lat="47.502400" lon="7.764717">
        <ele>375.254018</ele>
        <time>2021-11-15T22:38:04.684Z</time>
      </trkpt>
      <trkpt lat="47.502299" lon="7.764761">
        <ele>375.290381</ele>
        <time>2021-11-15T22:38:05.762Z</time>
      </trkpt>
      <trkpt lat="47.501861" lon="7.764937">
        <ele>375.447133</ele>
        <time>2021-11-15T22:38:11.294Z</time>
      </trkpt>
      <trkpt lat="47.501785" lon="7.764941">
        <ele>375.473398</ele>
        <time>2021-11-15T22:38:17.913Z</time>
      </trkpt>
      <trkpt lat="47.501717" lon="7.764903">
        <ele>375.498502</ele>
        <time>2021-11-15T22:38:18.553Z</time>
      </trkpt>
      <trkpt lat="47.501402" lon="7.764367">
        <ele>375.775131</ele>
        <time>2021-11-15T22:38:24.612Z</time>
      </trkpt>
      <trkpt lat="47.501345" lon="7.764315">
        <ele>375.905943</ele>
        <time>2021-11-15T22:38:25.168Z</time>
      </trkpt>
      <trkpt lat="47.501281" lon="7.764267">
        <ele>376.046114</ele>
        <time>2021-11-15T22:38:32.736Z</time>
      </trkpt>
      <trkpt lat="47.501206" lon="7.764177">
        <ele>376.234743</ele>
        <time>2021-11-15T22:38:33.656Z</time>
      </trkpt>
      <trkpt lat="47.500750" lon="7.764229">
        <ele>377.128271</ele>
        <time>2021-11-15T22:38:40.131Z</time>
      </trkpt>
      <trkpt lat="47.499735" lon="7.764910">
        <ele>379.580859</ele>
        <time>2021-11-15T22:39:10.207Z</time>
      </trkpt>
      <trkpt lat="47.499021" lon="7.765388">
        <ele>383.903690</ele>
        <time>2021-11-15T22:39:36.163Z</time>
      </trkpt>
      <trkpt lat="47.498581" lon="7.765578">
        <ele>386.432082</ele>
        <time>2021-11-15T22:39:53.352Z</time>
      </trkpt>
      <trkpt lat="47.498206" lon="7.765691">
        <ele>388.543160</ele>
        <time>2021-11-15T22:40:09.550Z</time>
      </trkpt>
      <trkpt lat="47.497832" lon="7.765749">
        <ele>391.600728</ele>
        <time>2021-11-15T22:40:26.861Z</time>
      </trkpt>
      <trkpt lat="47.497683" lon="7.765775">
        <ele>392.956351</ele>
        <time>2021-11-15T22:40:35.315Z</time>
      </trkpt>
      <trkpt lat="47.496981" lon="7.765800">
        <ele>399.301149</ele>
        <time>2021-11-15T22:41:10.862Z</time>
      </trkpt>
      <trkpt lat="47.496601" lon="7.765776">
        <ele>402.737786</ele>
        <time>2021-11-15T22:41:31.445Z</time>
      </trkpt>
      <trkpt lat="47.496345" lon="7.765747">
        <ele>405.057654</ele>
        <time>2021-11-15T22:41:44.513Z</time>
      </trkpt>
      <trkpt lat="47.495891" lon="7.765655">
        <ele>410.951394</ele>
        <time>2021-11-15T22:42:09.651Z</time>
      </trkpt>
      <trkpt lat="47.495429" lon="7.765534">
        <ele>417.111385</ele>
        <time>2021-11-15T22:42:40.819Z</time>
      </trkpt>
      <trkpt lat="47.494837" lon="7.765306">
        <ele>425.142795</ele>
        <time>2021-11-15T22:43:25.343Z</time>
      </trkpt>
      <trkpt lat="47.494623" lon="7.765176">
        <ele>428.179934</ele>
        <time>2021-11-15T22:43:42.636Z</time>
      </trkpt>
      <trkpt lat="47.494523" lon="7.765111">
        <ele>429.720124</ele>
        <time>2021-11-15T22:43:51.568Z</time>
      </trkpt>
      <trkpt lat="47.494327" lon="7.764912">
        <ele>433.335000</ele>
        <time>2021-11-15T22:44:10.323Z</time>
      </trkpt>
      <trkpt lat="47.493822" lon="7.764461">
        <ele>442.305288</ele>
        <time>2021-11-15T22:44:59.225Z</time>
      </trkpt>
      <trkpt lat="47.493545" lon="7.764429">
        <ele>446.530891</ele>
        <time>2021-11-15T22:45:21.793Z</time>
      </trkpt>
      <trkpt lat="47.493274" lon="7.764563">
        <ele>450.876371</ele>
        <time>2021-11-15T22:45:43.614Z</time>
      </trkpt>
      <trkpt lat="47.493115" lon="7.764783">
        <ele>454.186739</ele>
        <time>2021-11-15T22:46:00.554Z</time>
      </trkpt>
      <trkpt lat="47.493010" lon="7.765043">
        <ele>456.749983</ele>
        <time>2021-11-15T22:46:14.494Z</time>
      </trkpt>
      <trkpt lat="47.492941" lon="7.765577">
        <ele>459.271325</ele>
        <time>2021-11-15T22:46:35.827Z</time>
      </trkpt>
      <trkpt lat="47.493006" lon="7.768806">
        <ele>471.500754</ele>
        <time>2021-11-15T22:47:48.367Z</time>
      </trkpt>
      <trkpt lat="47.492999" lon="7.768874">
        <ele>471.663254</ele>
        <time>2021-11-15T22:47:48.902Z</time>
      </trkpt>
      <trkpt lat="47.493049" lon="7.768906">
        <ele>471.853718</ele>
        <time>2021-11-15T22:47:49.795Z</time>
      </trkpt>
      <trkpt lat="47.493003" lon="7.769128">
        <ele>472.402286</ele>
        <time>2021-11-15T22:47:53.673Z</time>
      </trkpt>
      <trkpt lat="47.492853" lon="7.769527">
        <ele>473.480977</ele>
        <time>2021-11-15T22:48:00.610Z</time>
      </trkpt>
      <trkpt lat="47.492753" lon="7.769701">
        <ele>474.020627</ele>
        <time>2021-11-15T22:48:05.133Z</time>
      </trkpt>
      <trkpt lat="47.492661" lon="7.769832">
        <ele>474.466999</ele>
        <time>2021-11-15T22:48:07.664Z</time>
      </trkpt>
      <trkpt lat="47.492435" lon="7.770039">
        <ele>475.831893</ele>
        <time>2021-11-15T22:48:16.180Z</time>
      </trkpt>
      <trkpt lat="47.492137" lon="7.770169">
        <ele>477.937271</ele>
        <time>2021-11-15T22:48:26.597Z</time>
      </trkpt>
      <trkpt lat="47.492031" lon="7.770183">
        <ele>478.658462</ele>
        <time>2021-11-15T22:48:29.442Z</time>
      </trkpt>
      <trkpt lat="47.492020" lon="7.770184">
        <ele>478.733147</ele>
        <time>2021-11-15T22:48:29.678Z</time>
      </trkpt>
      <trkpt lat="47.491182" lon="7.770222">
        <ele>484.414733</ele>
        <time>2021-11-15T22:49:06.186Z</time>
      </trkpt>
      <trkpt lat="47.490367" lon="7.770241">
        <ele>490.041476</ele>
        <time>2021-11-15T22:49:50.855Z</time>
      </trkpt>
      <trkpt lat="47.490063" lon="7.770088">
        <ele>492.297032</ele>
        <time>2021-11-15T22:50:09.856Z</time>
      </trkpt>
      <trkpt lat="47.489882" lon="7.769861">
        <ele>493.963615</ele>
        <time>2021-11-15T22:50:21.231Z</time>
      </trkpt>
      <trkpt lat="47.489759" lon="7.769607">
        <ele>495.446881</ele>
        <time>2021-11-15T22:50:31.230Z</time>
      </trkpt>
      <trkpt lat="47.489330" lon="7.768521">
        <ele>498.772534</ele>
        <time>2021-11-15T22:50:55.867Z</time>
      </trkpt>
      <trkpt lat="47.489260" lon="7.768283">
        <ele>498.044058</ele>
        <time>2021-11-15T22:50:59.594Z</time>
      </trkpt>
      <trkpt lat="47.489217" lon="7.768114">
        <ele>497.537249</ele>
        <time>2021-11-15T22:51:00.834Z</time>
      </trkpt>
      <trkpt lat="47.489202" lon="7.768057">
        <ele>497.365575</ele>
        <time>2021-11-15T22:51:01.206Z</time>
      </trkpt>
      <trkpt lat="47.489166" lon="7.767905">
        <ele>496.913542</ele>
        <time>2021-11-15T22:51:02.559Z</time>
      </trkpt>
      <trkpt lat="47.489106" lon="7.767650">
        <ele>496.155737</ele>
        <time>2021-11-15T22:51:04.308Z</time>
      </trkpt>
      <trkpt lat="47.489047" lon="7.767376">
        <ele>495.348653</ele>
        <time>2021-11-15T22:51:06.155Z</time>
      </trkpt>
      <trkpt lat="47.488885" lon="7.766666">
        <ele>493.245494</ele>
        <time>2021-11-15T22:51:10.675Z</time>
      </trkpt>
      <trkpt lat="47.488779" lon="7.766201">
        <ele>491.097570</ele>
        <time>2021-11-15T22:51:13.537Z</time>
      </trkpt>
      <trkpt lat="47.488674" lon="7.765750">
        <ele>487.284552</ele>
        <time>2021-11-15T22:51:16.260Z</time>
      </trkpt>
      <trkpt lat="47.488592" lon="7.765070">
        <ele>481.763124</ele>
        <time>2021-11-15T22:51:20.202Z</time>
      </trkpt>
      <trkpt lat="47.488619" lon="7.763292">
        <ele>467.609722</ele>
        <time>2021-11-15T22:51:30.323Z</time>
      </trkpt>
      <trkpt lat="47.488582" lon="7.762924">
        <ele>464.689505</ele>
        <time>2021-11-15T22:51:32.449Z</time>
      </trkpt>
      <trkpt lat="47.488339" lon="7.762200">
        <ele>458.344473</ele>
        <time>2021-11-15T22:51:37.079Z</time>
      </trkpt>
      <trkpt lat="47.487890" lon="7.761232">
        <ele>449.237585</ele>
        <time>2021-11-15T22:51:43.839Z</time>
      </trkpt>
      <trkpt lat="47.487031" lon="7.759652">
        <ele>435.072328</ele>
        <time>2021-11-15T22:51:55.590Z</time>
      </trkpt>
      <trkpt lat="47.486636" lon="7.758922">
        <ele>428.790664</ele>
        <time>2021-11-15T22:52:01.064Z</time>
      </trkpt>
      <trkpt lat="47.486484" lon="7.758798">
        <ele>427.147360</ele>
        <time>2021-11-15T22:52:02.523Z</time>
      </trkpt>
      <trkpt lat="47.486303" lon="7.758588">
        <ele>424.969766</ele>
        <time>2021-11-15T22:52:04.561Z</time>
      </trkpt>
      <trkpt lat="47.485984" lon="7.758280">
        <ele>421.363506</ele>
        <time>2021-11-15T22:52:07.867Z</time>
      </trkpt>
      <trkpt lat="47.485673" lon="7.758136">
        <ele>418.278235</ele>
        <time>2021-11-15T22:52:10.699Z</time>
      </trkpt>
      <trkpt lat="47.485622" lon="7.758125">
        <ele>417.790274</ele>
        <time>2021-11-15T22:52:11.143Z</time>
      </trkpt>
      <trkpt lat="47.485584" lon="7.758116">
        <ele>417.425917</ele>
        <time>2021-11-15T22:52:11.456Z</time>
      </trkpt>
      <trkpt lat="47.485109" lon="7.758040">
        <ele>413.555043</ele>
        <time>2021-11-15T22:52:15.627Z</time>
      </trkpt>
      <trkpt lat="47.484579" lon="7.757732">
        <ele>410.373485</ele>
        <time>2021-11-15T22:52:20.712Z</time>
      </trkpt>
      <trkpt lat="47.484552" lon="7.757716">
        <ele>410.210975</ele>
        <time>2021-11-15T22:52:20.948Z</time>
      </trkpt>
      <trkpt lat="47.484252" lon="7.757357">
        <ele>408.055190</ele>
        <time>2021-11-15T22:52:24.454Z</time>
      </trkpt>
      <trkpt lat="47.483892" lon="7.756713">
        <ele>404.899315</ele>
        <time>2021-11-15T22:52:30.925Z</time>
      </trkpt>
      <trkpt lat="47.483791" lon="7.756407">
        <ele>404.032274</ele>
        <time>2021-11-15T22:52:33.564Z</time>
      </trkpt>
      <trkpt lat="47.483769" lon="7.756121">
        <ele>403.492983</ele>
        <time>2021-11-15T22:52:37.064Z</time>
      </trkpt>
      <trkpt lat="47.483754" lon="7.755239">
        <ele>401.840002</ele>
        <time>2021-11-15T22:52:43.298Z</time>
      </trkpt>
      <trkpt lat="47.483795" lon="7.754908">
        <ele>401.209531</ele>
        <time>2021-11-15T22:52:45.658Z</time>
      </trkpt>
      <trkpt lat="47.483838" lon="7.754668">
        <ele>400.744349</ele>
        <time>2021-11-15T22:52:47.501Z</time>
      </trkpt>
      <trkpt lat="47.483916" lon="7.754251">
        <ele>399.933712</ele>
        <time>2021-11-15T22:52:50.434Z</time>
      </trkpt>
      <trkpt lat="47.484067" lon="7.753436">
        <ele>395.930750</ele>
        <time>2021-11-15T22:52:56.056Z</time>
      </trkpt>
      <trkpt lat="47.484428" lon="7.751559">
        <ele>384.289191</ele>
        <time>2021-11-15T22:53:07.373Z</time>
      </trkpt>
      <trkpt lat="47.484582" lon="7.750743">
        <ele>378.445740</ele>
        <time>2021-11-15T22:53:12.212Z</time>
      </trkpt>
      <trkpt lat="47.484640" lon="7.750440">
        <ele>376.225887</ele>
        <time>2021-11-15T22:53:14.007Z</time>
      </trkpt>
      <trkpt lat="47.484700" lon="7.749896">
        <ele>372.340539</ele>
        <time>2021-11-15T22:53:17.196Z</time>
      </trkpt>
      <trkpt lat="47.484572" lon="7.749580">
        <ele>369.743591</ele>
        <time>2021-11-15T22:53:19.373Z</time>
      </trkpt>
      <trkpt lat="47.484510" lon="7.749532">
        <ele>369.013725</ele>
        <time>2021-11-15T22:53:19.951Z</time>
      </trkpt>
      <trkpt lat="47.484462" lon="7.749511">
        <ele>368.491628</ele>
        <time>2021-11-15T22:53:20.384Z</time>
      </trkpt>
      <trkpt lat="47.484403" lon="7.749499">
        <ele>367.870433</ele>
        <time>2021-11-15T22:53:20.925Z</time>
      </trkpt>
      <trkpt lat="47.484374" lon="7.749499">
        <ele>367.567943</ele>
        <time>2021-11-15T22:53:21.173Z</time>
      </trkpt>
      <trkpt lat="47.484276" lon="7.749526">
        <ele>366.528170</ele>
        <time>2021-11-15T22:53:22.048Z</time>
      </trkpt>
      <trkpt lat="47.484079" lon="7.749775">
        <ele>364.098415</ele>
        <time>2021-11-15T22:53:24.307Z</time>
      </trkpt>
      <trkpt lat="47.483936" lon="7.750074">
        <ele>362.224219</ele>
        <time>2021-11-15T22:53:26.426Z</time>
      </trkpt>
      <trkpt lat="47.483821" lon="7.750312">
        <ele>360.727229</ele>
        <time>2021-11-15T22:53:28.290Z</time>
      </trkpt>
      <trkpt lat="47.483598" lon="7.750514">
        <ele>358.747635</ele>
        <time>2021-11-15T22:53:30.599Z</time>
      </trkpt>
      <trkpt lat="47.483353" lon="7.750495">
        <ele>356.890161</ele>
        <time>2021-11-15T22:53:32.743Z</time>
      </trkpt>
      <trkpt lat="47.483212" lon="7.750380">
        <ele>355.671207</ele>
        <time>2021-11-15T22:53:34.286Z</time>
      </trkpt>
      <trkpt lat="47.483118" lon="7.750142">
        <ele>354.260735</ele>
        <time>2021-11-15T22:53:35.933Z</time>
      </trkpt>
      <trkpt lat="47.483104" lon="7.749789">
        <ele>352.451456</ele>
        <time>2021-11-15T22:53:38.221Z</time>
      </trkpt>
      <trkpt lat="47.483127" lon="7.749663">
        <ele>351.783657</ele>
        <time>2021-11-15T22:53:38.964Z</time>
      </trkpt>
      <trkpt lat="47.483316" lon="7.749201">
        <ele>349.486375</ele>
        <time>2021-11-15T22:53:42.248Z</time>
      </trkpt>
      <trkpt lat="47.483455" lon="7.748863">
        <ele>347.894212</ele>
        <time>2021-11-15T22:53:44.736Z</time>
      </trkpt>
      <trkpt lat="47.483653" lon="7.748384">
        <ele>345.634722</ele>
        <time>2021-11-15T22:53:48.150Z</time>
      </trkpt>
      <trkpt lat="47.483857" lon="7.747917">
        <ele>343.397096</ele>
        <time>2021-11-15T22:53:51.578Z</time>
      </trkpt>
      <trkpt lat="47.483953" lon="7.747697">
        <ele>342.343302</ele>
        <time>2021-11-15T22:53:53.189Z</time>
      </trkpt>
      <trkpt lat="47.484176" lon="7.747166">
        <ele>340.108656</ele>
        <time>2021-11-15T22:53:57.435Z</time>
      </trkpt>
      <trkpt lat="47.484266" lon="7.746897">
        <ele>339.411278</ele>
        <time>2021-11-15T22:53:59.250Z</time>
      </trkpt>
      <trkpt lat="47.484616" lon="7.745052">
        <ele>334.959049</ele>
        <time>2021-11-15T22:54:12.661Z</time>
      </trkpt>
      <trkpt lat="47.484658" lon="7.744938">
        <ele>334.657388</ele>
        <time>2021-11-15T22:54:13.403Z</time>
      </trkpt>
      <trkpt lat="47.484727" lon="7.744803">
        <ele>334.246706</ele>
        <time>2021-11-15T22:54:15.596Z</time>
      </trkpt>
      <trkpt lat="47.484772" lon="7.744741">
        <ele>333.953209</ele>
        <time>2021-11-15T22:54:16.506Z</time>
      </trkpt>
      <trkpt lat="47.485152" lon="7.744380">
        <ele>331.797680</ele>
        <time>2021-11-15T22:54:21.433Z</time>
      </trkpt>
      <trkpt lat="47.485353" lon="7.744189">
        <ele>330.657433</ele>
        <time>2021-11-15T22:54:23.602Z</time>
      </trkpt>
      <trkpt lat="47.485726" lon="7.743655">
        <ele>328.180073</ele>
        <time>2021-11-15T22:54:28.436Z</time>
      </trkpt>
      <trkpt lat="47.486081" lon="7.742579">
        <ele>324.038073</ele>
        <time>2021-11-15T22:54:35.920Z</time>
      </trkpt>
      <trkpt lat="47.486170" lon="7.742275">
        <ele>322.756869</ele>
        <time>2021-11-15T22:54:37.879Z</time>
      </trkpt>
      <trkpt lat="47.486221" lon="7.742103">
        <ele>322.030503</ele>
        <time>2021-11-15T22:54:39.184Z</time>
      </trkpt>
      <trkpt lat="47.486335" lon="7.741716">
        <ele>320.397902</ele>
        <time>2021-11-15T22:54:41.734Z</time>
      </trkpt>
      <trkpt lat="47.486413" lon="7.741401">
        <ele>319.100544</ele>
        <time>2021-11-15T22:54:43.783Z</time>
      </trkpt>
      <trkpt lat="47.486458" lon="7.741135">
        <ele>318.040137</ele>
        <time>2021-11-15T22:54:45.530Z</time>
      </trkpt>
      <trkpt lat="47.486469" lon="7.741035">
        <ele>317.648333</ele>
        <time>2021-11-15T22:54:46.160Z</time>
      </trkpt>
      <trkpt lat="47.486493" lon="7.740755">
        <ele>316.556856</ele>
        <time>2021-11-15T22:54:47.862Z</time>
      </trkpt>
      <trkpt lat="47.486498" lon="7.740674">
        <ele>316.242313</ele>
        <time>2021-11-15T22:54:48.442Z</time>
      </trkpt>
      <trkpt lat="47.486546" lon="7.739919">
        <ele>315.216937</ele>
        <time>2021-11-15T22:54:53.513Z</time>
      </trkpt>
      <trkpt lat="47.486574" lon="7.739389">
        <ele>315.010022</ele>
        <time>2021-11-15T22:54:57.410Z</time>
      </trkpt>
      <trkpt lat="47.486588" lon="7.739167">
        <ele>314.923240</ele>
        <time>2021-11-15T22:54:59.144Z</time>
      </trkpt>
      <trkpt lat="47.486599" lon="7.738994">
        <ele>314.855608</ele>
        <time>2021-11-15T22:55:00.847Z</time>
      </trkpt>
      <trkpt lat="47.486652" lon="7.738745">
        <ele>314.753998</ele>
        <time>2021-11-15T22:55:03.745Z</time>
      </trkpt>
      <trkpt lat="47.486688" lon="7.738613">
        <ele>314.698595</ele>
        <time>2021-11-15T22:55:05.070Z</time>
      </trkpt>
      <trkpt lat="47.486696" lon="7.738489">
        <ele>314.650113</ele>
        <time>2021-11-15T22:55:07.293Z</time>
      </trkpt>
      <trkpt lat="47.486689" lon="7.738358">
        <ele>314.598966</ele>
        <time>2021-11-15T22:55:09.444Z</time>
      </trkpt>
      <trkpt lat="47.486676" lon="7.738293">
        <ele>314.572582</ele>
        <time>2021-11-15T22:55:10.473Z</time>
      </trkpt>
      <trkpt lat="47.486621" lon="7.738169">
        <ele>314.514851</ele>
        <time>2021-11-15T22:55:12.648Z</time>
      </trkpt>
      <trkpt lat="47.486495" lon="7.737981">
        <ele>314.411793</ele>
        <time>2021-11-15T22:55:17.903Z</time>
      </trkpt>
      <trkpt lat="47.486384" lon="7.737805">
        <ele>314.990261</ele>
        <time>2021-11-15T22:55:22.095Z</time>
      </trkpt>
      <trkpt lat="47.486354" lon="7.737753">
        <ele>315.198026</ele>
        <time>2021-11-15T22:55:23.264Z</time>
      </trkpt>
      <trkpt lat="47.486314" lon="7.737686">
        <ele>315.469691</ele>
        <time>2021-11-15T22:55:24.966Z</time>
      </trkpt>
      <trkpt lat="47.486287" lon="7.737642">
        <ele>315.650293</ele>
        <time>2021-11-15T22:55:26.732Z</time>
      </trkpt>
      <trkpt lat="47.486087" lon="7.737329">
        <ele>316.959271</ele>
        <time>2021-11-15T22:55:35.747Z</time>
      </trkpt>
      <trkpt lat="47.485976" lon="7.737217">
        <ele>317.563391</ele>
        <time>2021-11-15T22:55:40.877Z</time>
      </trkpt>
      <trkpt lat="47.485875" lon="7.737156">
        <ele>318.053926</ele>
        <time>2021-11-15T22:55:44.401Z</time>
      </trkpt>
      <trkpt lat="47.485806" lon="7.737111">
        <ele>318.392993</ele>
        <time>2021-11-15T22:55:46.684Z</time>
      </trkpt>
      <trkpt lat="47.485750" lon="7.737070">
        <ele>318.673942</ele>
        <time>2021-11-15T22:55:48.874Z</time>
      </trkpt>
      <trkpt lat="47.485679" lon="7.737020">
        <ele>319.027515</ele>
        <time>2021-11-15T22:55:52.260Z</time>
      </trkpt>
      <trkpt lat="47.485564" lon="7.736965">
        <ele>319.570970</ele>
        <time>2021-11-15T22:55:56.430Z</time>
      </trkpt>
      <trkpt lat="47.485482" lon="7.736917">
        <ele>319.967499</ele>
        <time>2021-11-15T22:55:59.171Z</time>
      </trkpt>
      <trkpt lat="47.485412" lon="7.736871">
        <ele>320.311908</ele>
        <time>2021-11-15T22:56:01.705Z</time>
      </trkpt>
      <trkpt lat="47.485357" lon="7.736813">
        <ele>320.615601</ele>
        <time>2021-11-15T22:56:04.658Z</time>
      </trkpt>
      <trkpt lat="47.485212" lon="7.736657">
        <ele>321.421732</ele>
        <time>2021-11-15T22:56:10.478Z</time>
      </trkpt>
      <trkpt lat="47.485182" lon="7.736627">
        <ele>321.584547</ele>
        <time>2021-11-15T22:56:11.541Z</time>
      </trkpt>
      <trkpt lat="47.485143" lon="7.736599">
        <ele>321.779468</ele>
        <time>2021-11-15T22:56:13.064Z</time>
      </trkpt>
      <trkpt lat="47.485052" lon="7.736552">
        <ele>322.212874</ele>
        <time>2021-11-15T22:56:17.051Z</time>
      </trkpt>
      <trkpt lat="47.485005" lon="7.736543">
        <ele>322.425980</ele>
        <time>2021-11-15T22:56:18.788Z</time>
      </trkpt>
      <trkpt lat="47.484905" lon="7.736536">
        <ele>322.874843</ele>
        <time>2021-11-15T22:56:22.122Z</time>
      </trkpt>
      <trkpt lat="47.484870" lon="7.736533">
        <ele>323.031967</ele>
        <time>2021-11-15T22:56:23.200Z</time>
      </trkpt>
      <trkpt lat="47.484700" lon="7.736511">
        <ele>323.796773</ele>
        <time>2021-11-15T22:56:29.606Z</time>
      </trkpt>
      <trkpt lat="47.484515" lon="7.736477">
        <ele>324.632267</ele>
        <time>2021-11-15T22:56:36.194Z</time>
      </trkpt>
      <trkpt lat="47.484114" lon="7.736364">
        <ele>326.461746</ele>
        <time>2021-11-15T22:56:50.289Z</time>
      </trkpt>
      <trkpt lat="47.483917" lon="7.736315">
        <ele>327.357036</ele>
        <time>2021-11-15T22:56:56.705Z</time>
      </trkpt>
      <trkpt lat="47.483778" lon="7.736282">
        <ele>327.987966</ele>
        <time>2021-11-15T22:57:01.682Z</time>
      </trkpt>
      <trkpt lat="47.483599" lon="7.736235">
        <ele>328.802731</ele>
        <time>2021-11-15T22:57:08.496Z</time>
      </trkpt>
      <trkpt lat="47.483356" lon="7.736149">
        <ele>329.922513</ele>
        <time>2021-11-15T22:57:17.456Z</time>
      </trkpt>
      <trkpt lat="47.483352" lon="7.736146">
        <ele>329.942611</ele>
        <time>2021-11-15T22:57:17.942Z</time>
      </trkpt>
      <trkpt lat="47.483095" lon="7.735982">
        <ele>331.133884</ele>
        <time>2021-11-15T22:57:26.951Z</time>
      </trkpt>
      <trkpt lat="47.482953" lon="7.735671">
        <ele>332.160963</ele>
        <time>2021-11-15T22:57:35.878Z</time>
      </trkpt>
      <trkpt lat="47.482931" lon="7.735630">
        <ele>332.304224</ele>
        <time>2021-11-15T22:57:37.276Z</time>
      </trkpt>
      <trkpt lat="47.482843" lon="7.735675">
        <ele>332.681231</ele>
        <time>2021-11-15T22:57:39.633Z</time>
      </trkpt>
      <trkpt lat="47.482798" lon="7.735712">
        <ele>332.889687</ele>
        <time>2021-11-15T22:57:41.402Z</time>
      </trkpt>
      <trkpt lat="47.482759" lon="7.735794">
        <ele>333.164078</ele>
        <time>2021-11-15T22:57:43.630Z</time>
      </trkpt>
      <trkpt lat="47.482666" lon="7.735762">
        <ele>333.550701</ele>
        <time>2021-11-15T22:57:46.183Z</time>
      </trkpt>
      <trkpt lat="47.482502" lon="7.735796">
        <ele>334.221256</ele>
        <time>2021-11-15T22:57:50.393Z</time>
      </trkpt>
      <trkpt lat="47.482455" lon="7.735817">
        <ele>334.420055</ele>
        <time>2021-11-15T22:57:52.585Z</time>
      </trkpt>
      <trkpt lat="47.482190" lon="7.735935">
        <ele>335.540628</ele>
        <time>2021-11-15T22:58:00.400Z</time>
      </trkpt>
      <trkpt lat="47.482126" lon="7.735966">
        <ele>335.813308</ele>
        <time>2021-11-15T22:58:02.830Z</time>
      </trkpt>
      <trkpt lat="47.482046" lon="7.736005">
        <ele>336.154372</ele>
        <time>2021-11-15T22:58:05.767Z</time>
      </trkpt>
      <trkpt lat="47.481911" lon="7.736111">
        <ele>336.773210</ele>
        <time>2021-11-15T22:58:10.101Z</time>
      </trkpt>
      <trkpt lat="47.481746" lon="7.736309">
        <ele>337.633424</ele>
        <time>2021-11-15T22:58:18.603Z</time>
      </trkpt>
      <trkpt lat="47.481528" lon="7.736594">
        <ele>339.426769</ele>
        <time>2021-11-15T22:58:28.264Z</time>
      </trkpt>
      <trkpt lat="47.481415" lon="7.736739">
        <ele>340.410882</ele>
        <time>2021-11-15T22:58:33.844Z</time>
      </trkpt>
      <trkpt lat="47.481358" lon="7.736813">
        <ele>340.909802</ele>
        <time>2021-11-15T22:58:35.506Z</time>
      </trkpt>
      <trkpt lat="47.481122" lon="7.737038">
        <ele>342.756972</ele>
        <time>2021-11-15T22:58:46.007Z</time>
      </trkpt>
      <trkpt lat="47.481084" lon="7.737033">
        <ele>343.007979</ele>
        <time>2021-11-15T22:58:47.156Z</time>
      </trkpt>
      <trkpt lat="47.481043" lon="7.737005">
        <ele>343.305084</ele>
        <time>2021-11-15T22:58:48.570Z</time>
      </trkpt>
      <trkpt lat="47.480998" lon="7.736963">
        <ele>343.655141</ele>
        <time>2021-11-15T22:58:50.693Z</time>
      </trkpt>
      <trkpt lat="47.480783" lon="7.736712">
        <ele>345.457019</ele>
        <time>2021-11-15T22:59:03.393Z</time>
      </trkpt>
      <trkpt lat="47.480717" lon="7.736638">
        <ele>346.001854</ele>
        <time>2021-11-15T22:59:06.368Z</time>
      </trkpt>
      <trkpt lat="47.480675" lon="7.736582">
        <ele>346.373836</ele>
        <time>2021-11-15T22:59:08.558Z</time>
      </trkpt>
      <trkpt lat="47.480639" lon="7.736513">
        <ele>346.761446</ele>
        <time>2021-11-15T22:59:12.551Z</time>
      </trkpt>
      <trkpt lat="47.480309" lon="7.735364">
        <ele>353.362647</ele>
        <time>2021-11-15T22:59:52.529Z</time>
      </trkpt>
      <trkpt lat="47.480231" lon="7.735048">
        <ele>355.450668</ele>
        <time>2021-11-15T23:00:05.728Z</time>
      </trkpt>
      <trkpt lat="47.480208" lon="7.734904">
        <ele>356.369049</ele>
        <time>2021-11-15T23:00:10.925Z</time>
      </trkpt>
      <trkpt lat="47.480177" lon="7.734199">
        <ele>360.754004</ele>
        <time>2021-11-15T23:00:37.058Z</time>
      </trkpt>
      <trkpt lat="47.480029" lon="7.733853">
        <ele>363.295490</ele>
        <time>2021-11-15T23:00:50.688Z</time>
      </trkpt>
      <trkpt lat="47.479940" lon="7.733695">
        <ele>364.572100</ele>
        <time>2021-11-15T23:00:57.893Z</time>
      </trkpt>
      <trkpt lat="47.479876" lon="7.733626">
        <ele>365.299326</ele>
        <time>2021-11-15T23:01:02.353Z</time>
      </trkpt>
      <trkpt lat="47.479629" lon="7.733549">
        <ele>367.522020</ele>
        <time>2021-11-15T23:01:15.485Z</time>
      </trkpt>
      <trkpt lat="47.479442" lon="7.733643">
        <ele>369.215435</ele>
        <time>2021-11-15T23:01:25.391Z</time>
      </trkpt>
      <trkpt lat="47.479374" lon="7.733720">
        <ele>369.949648</ele>
        <time>2021-11-15T23:01:29.997Z</time>
      </trkpt>
      <trkpt lat="47.479287" lon="7.733859">
        <ele>371.047520</ele>
        <time>2021-11-15T23:01:35.810Z</time>
      </trkpt>
      <trkpt lat="47.479108" lon="7.734183">
        <ele>373.472606</ele>
        <time>2021-11-15T23:01:49.406Z</time>
      </trkpt>
      <trkpt lat="47.479049" lon="7.734271">
        <ele>374.190930</ele>
        <time>2021-11-15T23:01:54.022Z</time>
      </trkpt>
      <trkpt lat="47.478987" lon="7.734340">
        <ele>374.856137</ele>
        <time>2021-11-15T23:01:58.026Z</time>
      </trkpt>
      <trkpt lat="47.478751" lon="7.734445">
        <ele>376.969199</ele>
        <time>2021-11-15T23:02:10.131Z</time>
      </trkpt>
      <trkpt lat="47.478604" lon="7.734448">
        <ele>378.229753</ele>
        <time>2021-11-15T23:02:17.495Z</time>
      </trkpt>
      <trkpt lat="47.478419" lon="7.734438">
        <ele>379.817073</ele>
        <time>2021-11-15T23:02:25.799Z</time>
      </trkpt>
      <trkpt lat="47.478062" lon="7.734359">
        <ele>382.801456</ele>
        <time>2021-11-15T23:02:41.742Z</time>
      </trkpt>
      <trkpt lat="47.477944" lon="7.734325">
        <ele>383.745210</ele>
        <time>2021-11-15T23:02:48.646Z</time>
      </trkpt>
      <trkpt lat="47.477622" lon="7.734199">
        <ele>386.359962</ele>
        <time>2021-11-15T23:03:04.091Z</time>
      </trkpt>
      <trkpt lat="47.476662" lon="7.733746">
        <ele>394.270394</ele>
        <time>2021-11-15T23:03:50.667Z</time>
      </trkpt>
      <trkpt lat="47.476542" lon="7.733685">
        <ele>395.266498</ele>
        <time>2021-11-15T23:03:57.647Z</time>
      </trkpt>
      <trkpt lat="47.476311" lon="7.733566">
        <ele>397.125046</ele>
        <time>2021-11-15T23:04:07.824Z</time>
      </trkpt>
      <trkpt lat="47.475702" lon="7.733361">
        <ele>401.821800</ele>
        <time>2021-11-15T23:04:33.801Z</time>
      </trkpt>
      <trkpt lat="47.475643" lon="7.733352">
        <ele>402.267836</ele>
        <time>2021-11-15T23:04:36.709Z</time>
      </trkpt>
      <trkpt lat="47.475513" lon="7.733347">
        <ele>403.245774</ele>
        <time>2021-11-15T23:04:43.590Z</time>
      </trkpt>
      <trkpt lat="47.475316" lon="7.733339">
        <ele>404.727783</ele>
        <time>2021-11-15T23:04:52.608Z</time>
      </trkpt>
      <trkpt lat="47.475034" lon="7.733352">
        <ele>406.849469</ele>
        <time>2021-11-15T23:05:06.846Z</time>
      </trkpt>
      <trkpt lat="47.474608" lon="7.733393">
        <ele>409.993245</ele>
        <time>2021-11-15T23:05:24.674Z</time>
      </trkpt>
      <trkpt lat="47.474307" lon="7.733450">
        <ele>412.088460</ele>
        <time>2021-11-15T23:05:36.887Z</time>
      </trkpt>
      <trkpt lat="47.474010" lon="7.733547">
        <ele>414.188474</ele>
        <time>2021-11-15T23:05:49.895Z</time>
      </trkpt>
      <trkpt lat="47.473788" lon="7.733629">
        <ele>415.768327</ele>
        <time>2021-11-15T23:05:59.528Z</time>
      </trkpt>
      <trkpt lat="47.473666" lon="7.733675">
        <ele>416.637604</ele>
        <time>2021-11-15T23:06:04.851Z</time>
      </trkpt>
      <trkpt lat="47.473509" lon="7.733729">
        <ele>417.750523</ele>
        <time>2021-11-15T23:06:11.532Z</time>
      </trkpt>
      <trkpt lat="47.473073" lon="7.733797">
        <ele>420.777574</ele>
        <time>2021-11-15T23:06:30.931Z</time>
      </trkpt>
      <trkpt lat="47.472834" lon="7.733752">
        <ele>422.430852</ele>
        <time>2021-11-15T23:06:41.625Z</time>
      </trkpt>
      <trkpt lat="47.472688" lon="7.733697">
        <ele>423.457381</ele>
        <time>2021-11-15T23:06:47.619Z</time>
      </trkpt>
      <trkpt lat="47.472547" lon="7.733633">
        <ele>424.462298</ele>
        <time>2021-11-15T23:06:53.752Z</time>
      </trkpt>
      <trkpt lat="47.472105" lon="7.733303">
        <ele>427.835685</ele>
        <time>2021-11-15T23:07:12.148Z</time>
      </trkpt>
      <trkpt lat="47.471631" lon="7.732839">
        <ele>431.708343</ele>
        <time>2021-11-15T23:07:37.194Z</time>
      </trkpt>
      <trkpt lat="47.471395" lon="7.732417">
        <ele>434.224106</ele>
        <time>2021-11-15T23:07:54.175Z</time>
      </trkpt>
      <trkpt lat="47.471268" lon="7.732034">
        <ele>436.145867</ele>
        <time>2021-11-15T23:08:06.547Z</time>
      </trkpt>
      <trkpt lat="47.471153" lon="7.731437">
        <ele>438.942323</ele>
        <time>2021-11-15T23:08:24.260Z</time>
      </trkpt>
      <trkpt lat="47.471111" lon="7.731234">
        <ele>439.898683</ele>
        <time>2021-11-15T23:08:30.776Z</time>
      </trkpt>
      <trkpt lat="47.470944" lon="7.730671">
        <ele>442.668360</ele>
        <time>2021-11-15T23:08:47.402Z</time>
      </trkpt>
      <trkpt lat="47.470700" lon="7.730260">
        <ele>445.132554</ele>
        <time>2021-11-15T23:09:02.006Z</time>
      </trkpt>
      <trkpt lat="47.470333" lon="7.729782">
        <ele>447.929959</ele>
        <time>2021-11-15T23:09:21.134Z</time>
      </trkpt>
      <trkpt lat="47.469646" lon="7.728865">
        <ele>452.951300</ele>
        <time>2021-11-15T23:09:53.534Z</time>
      </trkpt>
      <trkpt lat="47.469535" lon="7.728710">
        <ele>453.779625</ele>
        <time>2021-11-15T23:09:58.891Z</time>
      </trkpt>
      <trkpt lat="47.469377" lon="7.728513">
        <ele>454.900955</ele>
        <time>2021-11-15T23:10:06.314Z</time>
      </trkpt>
      <trkpt lat="47.469080" lon="7.728106">
        <ele>457.214030</ele>
        <time>2021-11-15T23:10:21.336Z</time>
      </trkpt>
      <trkpt lat="47.467507" lon="7.725936">
        <ele>469.636425</ele>
        <time>2021-11-15T23:11:44.782Z</time>
      </trkpt>
      <trkpt lat="47.467396" lon="7.725770">
        <ele>470.511936</ele>
        <time>2021-11-15T23:11:51.260Z</time>
      </trkpt>
      <trkpt lat="47.467028" lon="7.725230">
        <ele>473.387095</ele>
        <time>2021-11-15T23:12:09.963Z</time>
      </trkpt>
      <trkpt lat="47.466779" lon="7.724949">
        <ele>475.124277</ele>
        <time>2021-11-15T23:12:21.243Z</time>
      </trkpt>
      <trkpt lat="47.466538" lon="7.724737">
        <ele>476.571271</ele>
        <time>2021-11-15T23:12:31.002Z</time>
      </trkpt>
      <trkpt lat="47.466305" lon="7.724568">
        <ele>477.686928</ele>
        <time>2021-11-15T23:12:39.310Z</time>
      </trkpt>
      <trkpt lat="47.466193" lon="7.724504">
        <ele>478.203119</ele>
        <time>2021-11-15T23:12:43.630Z</time>
      </trkpt>
      <trkpt lat="47.465567" lon="7.724049">
        <ele>481.201770</ele>
        <time>2021-11-15T23:13:05.462Z</time>
      </trkpt>
      <trkpt lat="47.464882" lon="7.723233">
        <ele>485.004576</ele>
        <time>2021-11-15T23:13:32.176Z</time>
      </trkpt>
      <trkpt lat="47.464732" lon="7.723056">
        <ele>485.846451</ele>
        <time>2021-11-15T23:13:38.687Z</time>
      </trkpt>
      <trkpt lat="47.464070" lon="7.722248">
        <ele>489.612099</ele>
        <time>2021-11-15T23:14:06.639Z</time>
      </trkpt>
      <trkpt lat="47.463877" lon="7.722012">
        <ele>490.710765</ele>
        <time>2021-11-15T23:14:15.552Z</time>
      </trkpt>
      <trkpt lat="47.463361" lon="7.721353">
        <ele>493.017922</ele>
        <time>2021-11-15T23:14:37.754Z</time>
      </trkpt>
      <trkpt lat="47.463192" lon="7.721145">
        <ele>493.631525</ele>
        <time>2021-11-15T23:14:44.339Z</time>
      </trkpt>
      <trkpt lat="47.463093" lon="7.721026">
        <ele>493.987563</ele>
        <time>2021-11-15T23:14:48.065Z</time>
      </trkpt>
      <trkpt lat="47.462940" lon="7.720839">
        <ele>494.541500</ele>
        <time>2021-11-15T23:14:53.627Z</time>
      </trkpt>
      <trkpt lat="47.462398" lon="7.720204">
        <ele>496.471245</ele>
        <time>2021-11-15T23:15:09.929Z</time>
      </trkpt>
      <trkpt lat="47.461918" lon="7.719612">
        <ele>496.123591</ele>
        <time>2021-11-15T23:15:18.711Z</time>
      </trkpt>
      <trkpt lat="47.461492" lon="7.719155">
        <ele>495.354841</ele>
        <time>2021-11-15T23:15:24.887Z</time>
      </trkpt>
      <trkpt lat="47.461216" lon="7.718921">
        <ele>494.890118</ele>
        <time>2021-11-15T23:15:28.434Z</time>
      </trkpt>
      <trkpt lat="47.460941" lon="7.718688">
        <ele>494.427154</ele>
        <time>2021-11-15T23:15:31.817Z</time>
      </trkpt>
      <trkpt lat="47.460776" lon="7.718517">
        <ele>493.920706</ele>
        <time>2021-11-15T23:15:33.862Z</time>
      </trkpt>
      <trkpt lat="47.460739" lon="7.718471">
        <ele>493.667466</ele>
        <time>2021-11-15T23:15:34.343Z</time>
      </trkpt>
      <trkpt lat="47.460341" lon="7.718145">
        <ele>491.283810</ele>
        <time>2021-11-15T23:15:38.697Z</time>
      </trkpt>
      <trkpt lat="47.459999" lon="7.717456">
        <ele>488.256013</ele>
        <time>2021-11-15T23:15:43.943Z</time>
      </trkpt>
      <trkpt lat="47.459964" lon="7.717452">
        <ele>488.072090</ele>
        <time>2021-11-15T23:15:44.258Z</time>
      </trkpt>
      <trkpt lat="47.459892" lon="7.717448">
        <ele>487.694593</ele>
        <time>2021-11-15T23:15:44.908Z</time>
      </trkpt>
      <trkpt lat="47.459808" lon="7.717440">
        <ele>487.253578</ele>
        <time>2021-11-15T23:15:45.727Z</time>
      </trkpt>
      <trkpt lat="47.459721" lon="7.717415">
        <ele>486.789233</ele>
        <time>2021-11-15T23:15:46.525Z</time>
      </trkpt>
      <trkpt lat="47.459662" lon="7.717526">
        <ele>486.289070</ele>
        <time>2021-11-15T23:15:47.390Z</time>
      </trkpt>
      <trkpt lat="47.459589" lon="7.717627">
        <ele>485.765344</ele>
        <time>2021-11-15T23:15:48.315Z</time>
      </trkpt>
      <trkpt lat="47.459524" lon="7.717695">
        <ele>485.348208</ele>
        <time>2021-11-15T23:15:49.111Z</time>
      </trkpt>
      <trkpt lat="47.459450" lon="7.717732">
        <ele>484.938943</ele>
        <time>2021-11-15T23:15:49.824Z</time>
      </trkpt>
      <trkpt lat="47.459083" lon="7.717829">
        <ele>482.154527</ele>
        <time>2021-11-15T23:15:53.355Z</time>
      </trkpt>
      <trkpt lat="47.458956" lon="7.717895">
        <ele>481.124599</ele>
        <time>2021-11-15T23:15:54.566Z</time>
      </trkpt>
      <trkpt lat="47.458654" lon="7.718112">
        <ele>478.555716</ele>
        <time>2021-11-15T23:15:57.683Z</time>
      </trkpt>
      <trkpt lat="47.458642" lon="7.718137">
        <ele>478.397112</ele>
        <time>2021-11-15T23:15:57.851Z</time>
      </trkpt>
      <trkpt lat="47.458619" lon="7.718188">
        <ele>478.079981</ele>
        <time>2021-11-15T23:15:58.252Z</time>
      </trkpt>
      <trkpt lat="47.458611" lon="7.718259">
        <ele>477.707626</ele>
        <time>2021-11-15T23:15:58.688Z</time>
      </trkpt>
      <trkpt lat="47.458577" lon="7.718531">
        <ele>476.276702</ele>
        <time>2021-11-15T23:16:00.351Z</time>
      </trkpt>
      <trkpt lat="47.458632" lon="7.719114">
        <ele>473.231575</ele>
        <time>2021-11-15T23:16:03.804Z</time>
      </trkpt>
      <trkpt lat="47.458590" lon="7.719319">
        <ele>472.123475</ele>
        <time>2021-11-15T23:16:05.046Z</time>
      </trkpt>
      <trkpt lat="47.458515" lon="7.719431">
        <ele>471.308016</ele>
        <time>2021-11-15T23:16:06.048Z</time>
      </trkpt>
      <trkpt lat="47.458455" lon="7.719474">
        <ele>470.681508</ele>
        <time>2021-11-15T23:16:06.639Z</time>
      </trkpt>
      <trkpt lat="47.458406" lon="7.719485">
        <ele>470.111803</ele>
        <time>2021-11-15T23:16:07.060Z</time>
      </trkpt>
      <trkpt lat="47.458173" lon="7.719569">
        <ele>467.355052</ele>
        <time>2021-11-15T23:16:09.081Z</time>
      </trkpt>
      <trkpt lat="47.457906" lon="7.719646">
        <ele>464.228091</ele>
        <time>2021-11-15T23:16:11.378Z</time>
      </trkpt>
      <trkpt lat="47.457441" lon="7.719878">
        <ele>458.586981</ele>
        <time>2021-11-15T23:16:15.581Z</time>
      </trkpt>
      <trkpt lat="47.457267" lon="7.720067">
        <ele>456.105387</ele>
        <time>2021-11-15T23:16:17.380Z</time>
      </trkpt>
      <trkpt lat="47.457171" lon="7.720351">
        <ele>453.637599</ele>
        <time>2021-11-15T23:16:19.243Z</time>
      </trkpt>
      <trkpt lat="47.457176" lon="7.720627">
        <ele>451.491694</ele>
        <time>2021-11-15T23:16:20.781Z</time>
      </trkpt>
      <trkpt lat="47.457201" lon="7.720790">
        <ele>450.213023</ele>
        <time>2021-11-15T23:16:21.762Z</time>
      </trkpt>
      <trkpt lat="47.457328" lon="7.721222">
        <ele>447.013788</ele>
        <time>2021-11-15T23:16:24.417Z</time>
      </trkpt>
      <trkpt lat="47.457394" lon="7.721380">
        <ele>445.752474</ele>
        <time>2021-11-15T23:16:25.516Z</time>
      </trkpt>
      <trkpt lat="47.457459" lon="7.721559">
        <ele>444.372578</ele>
        <time>2021-11-15T23:16:26.660Z</time>
      </trkpt>
      <trkpt lat="47.457631" lon="7.722450">
        <ele>438.079625</ele>
        <time>2021-11-15T23:16:32.080Z</time>
      </trkpt>
      <trkpt lat="47.457621" lon="7.722956">
        <ele>434.641703</ele>
        <time>2021-11-15T23:16:35.089Z</time>
      </trkpt>
      <trkpt lat="47.457501" lon="7.723676">
        <ele>429.652696</ele>
        <time>2021-11-15T23:16:39.634Z</time>
      </trkpt>
      <trkpt lat="47.457224" lon="7.724831">
        <ele>421.476147</ele>
        <time>2021-11-15T23:16:46.875Z</time>
      </trkpt>
      <trkpt lat="47.457193" lon="7.725215">
        <ele>418.895900</ele>
        <time>2021-11-15T23:16:49.101Z</time>
      </trkpt>
      <trkpt lat="47.457194" lon="7.725490">
        <ele>417.061072</ele>
        <time>2021-11-15T23:16:50.781Z</time>
      </trkpt>
      <trkpt lat="47.457229" lon="7.725725">
        <ele>415.455563</ele>
        <time>2021-11-15T23:16:52.115Z</time>
      </trkpt>
      <trkpt lat="47.457264" lon="7.725996">
        <ele>413.215174</ele>
        <time>2021-11-15T23:16:53.718Z</time>
      </trkpt>
      <trkpt lat="47.457263" lon="7.726074">
        <ele>412.469673</ele>
        <time>2021-11-15T23:16:54.163Z</time>
      </trkpt>
      <trkpt lat="47.457250" lon="7.726144">
        <ele>411.775980</ele>
        <time>2021-11-15T23:16:54.570Z</time>
      </trkpt>
      <trkpt lat="47.457127" lon="7.726426">
        <ele>408.569133</ele>
        <time>2021-11-15T23:16:56.483Z</time>
      </trkpt>
      <trkpt lat="47.456470" lon="7.727167">
        <ele>396.891744</ele>
        <time>2021-11-15T23:17:03.337Z</time>
      </trkpt>
      <trkpt lat="47.456356" lon="7.727306">
        <ele>394.803613</ele>
        <time>2021-11-15T23:17:04.538Z</time>
      </trkpt>
      <trkpt lat="47.456077" lon="7.727577">
        <ele>390.086082</ele>
        <time>2021-11-15T23:17:07.324Z</time>
      </trkpt>
      <trkpt lat="47.455497" lon="7.728040">
        <ele>386.770332</ele>
        <time>2021-11-15T23:17:13.088Z</time>
      </trkpt>
      <trkpt lat="47.455196" lon="7.728169">
        <ele>385.524348</ele>
        <time>2021-11-15T23:17:15.974Z</time>
      </trkpt>
      <trkpt lat="47.455125" lon="7.728204">
        <ele>385.226790</ele>
        <time>2021-11-15T23:17:16.600Z</time>
      </trkpt>
      <trkpt lat="47.454990" lon="7.728272">
        <ele>384.659765</ele>
        <time>2021-11-15T23:17:17.959Z</time>
      </trkpt>
      <trkpt lat="47.454888" lon="7.728354">
        <ele>384.198179</ele>
        <time>2021-11-15T23:17:19.202Z</time>
      </trkpt>
      <trkpt lat="47.454817" lon="7.728459">
        <ele>383.798967</ele>
        <time>2021-11-15T23:17:22.084Z</time>
      </trkpt>
      <trkpt lat="47.454236" lon="7.729219">
        <ele>384.190677</ele>
        <time>2021-11-15T23:17:49.939Z</time>
      </trkpt>
      <trkpt lat="47.453667" lon="7.729560">
        <ele>388.523713</ele>
        <time>2021-11-15T23:18:14.793Z</time>
      </trkpt>
      <trkpt lat="47.453627" lon="7.729619">
        <ele>388.922433</ele>
        <time>2021-11-15T23:18:20.488Z</time>
      </trkpt>
      <trkpt lat="47.453606" lon="7.729676">
        <ele>389.232212</ele>
        <time>2021-11-15T23:18:23.779Z</time>
      </trkpt>
      <trkpt lat="47.453722" lon="7.732102">
        <ele>397.938179</ele>
        <time>2021-11-15T23:19:36.779Z</time>
      </trkpt>
      <trkpt lat="47.453622" lon="7.732802">
        <ele>399.749233</ele>
        <time>2021-11-15T23:19:48.461Z</time>
      </trkpt>
      <trkpt lat="47.453555" lon="7.732894">
        <ele>400.091498</ele>
        <time>2021-11-15T23:19:49.868Z</time>
      </trkpt>
      <trkpt lat="47.453373" lon="7.732917">
        <ele>400.775309</ele>
        <time>2021-11-15T23:19:52.776Z</time>
      </trkpt>
      <trkpt lat="47.453309" lon="7.732927">
        <ele>401.016230</ele>
        <time>2021-11-15T23:19:54.535Z</time>
      </trkpt>
      <trkpt lat="47.453211" lon="7.732959">
        <ele>401.391935</ele>
        <time>2021-11-15T23:19:55.765Z</time>
      </trkpt>
      <trkpt lat="47.451588" lon="7.733721">
        <ele>394.706583</ele>
        <time>2021-11-15T23:20:12.582Z</time>
      </trkpt>
      <trkpt lat="47.450834" lon="7.734364">
        <ele>388.426247</ele>
        <time>2021-11-15T23:20:20.175Z</time>
      </trkpt>
      <trkpt lat="47.450582" lon="7.734469">
        <ele>386.429665</ele>
        <time>2021-11-15T23:20:22.501Z</time>
      </trkpt>
      <trkpt lat="47.450427" lon="7.734510">
        <ele>385.228872</ele>
        <time>2021-11-15T23:20:23.851Z</time>
      </trkpt>
      <trkpt lat="47.450291" lon="7.734546">
        <ele>384.175249</ele>
        <time>2021-11-15T23:20:25.095Z</time>
      </trkpt>
      <trkpt lat="47.450061" lon="7.734650">
        <ele>382.341101</ele>
        <time>2021-11-15T23:20:27.211Z</time>
      </trkpt>
      <trkpt lat="47.449912" lon="7.734724">
        <ele>381.142454</ele>
        <time>2021-11-15T23:20:28.662Z</time>
      </trkpt>
      <trkpt lat="47.449846" lon="7.734757">
        <ele>380.611145</ele>
        <time>2021-11-15T23:20:29.268Z</time>
      </trkpt>
      <trkpt lat="47.449760" lon="7.734811">
        <ele>380.278585</ele>
        <time>2021-11-15T23:20:30.101Z</time>
      </trkpt>
      <trkpt lat="47.449670" lon="7.734940">
        <ele>379.833076</ele>
        <time>2021-11-15T23:20:31.253Z</time>
      </trkpt>
      <trkpt lat="47.449614" lon="7.735030">
        <ele>379.539107</ele>
        <time>2021-11-15T23:20:32.049Z</time>
      </trkpt>
      <trkpt lat="47.449559" lon="7.735104">
        <ele>379.274806</ele>
        <time>2021-11-15T23:20:32.711Z</time>
      </trkpt>
      <trkpt lat="47.449559" lon="7.735104">
        <ele>379.274806</ele>
        <time>2021-11-15T23:20:32.716Z</time>
      </trkpt>
      <trkpt lat="47.449392" lon="7.735251">
        <ele>378.584013</ele>
        <time>2021-11-15T23:20:34.526Z</time>
      </trkpt>
      <trkpt lat="47.449163" lon="7.735463">
        <ele>377.623698</ele>
        <time>2021-11-15T23:20:37.053Z</time>
      </trkpt>
      <trkpt lat="47.448938" lon="7.735928">
        <ele>376.249341</ele>
        <time>2021-11-15T23:20:41.186Z</time>
      </trkpt>
      <trkpt lat="47.448896" lon="7.736079">
        <ele>375.856884</ele>
        <time>2021-11-15T23:20:42.417Z</time>
      </trkpt>
      <trkpt lat="47.448771" lon="7.736054">
        <ele>375.408535</ele>
        <time>2021-11-15T23:20:43.818Z</time>
      </trkpt>
      <trkpt lat="47.448658" lon="7.736045">
        <ele>375.006303</ele>
        <time>2021-11-15T23:20:45.363Z</time>
      </trkpt>
      <trkpt lat="47.448554" lon="7.736059">
        <ele>374.635114</ele>
        <time>2021-11-15T23:20:46.630Z</time>
      </trkpt>
      <trkpt lat="47.448379" lon="7.736094">
        <ele>374.352587</ele>
        <time>2021-11-15T23:20:49.062Z</time>
      </trkpt>
      <trkpt lat="47.448398" lon="7.736223">
        <ele>374.557580</ele>
        <time>2021-11-15T23:20:52.402Z</time>
      </trkpt>
      <trkpt lat="47.448444" lon="7.736337">
        <ele>374.763703</ele>
        <time>2021-11-15T23:20:55.802Z</time>
      </trkpt>
      <trkpt lat="47.448524" lon="7.736410">
        <ele>374.979541</ele>
        <time>2021-11-15T23:20:59.543Z</time>
      </trkpt>
      <trkpt lat="47.448577" lon="7.736501">
        <ele>375.166015</ele>
        <time>2021-11-15T23:21:02.700Z</time>
      </trkpt>
      <trkpt lat="47.448584" lon="7.736714">
        <ele>375.497128</ele>
        <time>2021-11-15T23:21:08.457Z</time>
      </trkpt>
      <trkpt lat="47.448564" lon="7.737125">
        <ele>376.136933</ele>
        <time>2021-11-15T23:21:19.978Z</time>
      </trkpt>
      <trkpt lat="47.448570" lon="7.737693">
        <ele>377.018968</ele>
        <time>2021-11-15T23:21:37.452Z</time>
      </trkpt>
      <trkpt lat="47.448604" lon="7.738521">
        <ele>378.306962</ele>
        <time>2021-11-15T23:22:08.706Z</time>
      </trkpt>
      <trkpt lat="47.448598" lon="7.738575">
        <ele>378.504873</ele>
        <time>2021-11-15T23:22:10.774Z</time>
      </trkpt>
      <trkpt lat="47.448586" lon="7.738688">
        <ele>379.127446</ele>
        <time>2021-11-15T23:22:15.394Z</time>
      </trkpt>
      <trkpt lat="47.448475" lon="7.739324">
        <ele>382.702491</ele>
        <time>2021-11-15T23:22:43.441Z</time>
      </trkpt>
      <trkpt lat="47.448435" lon="7.739651">
        <ele>384.511172</ele>
        <time>2021-11-15T23:22:58.297Z</time>
      </trkpt>
      <trkpt lat="47.448433" lon="7.739861">
        <ele>385.654275</ele>
        <time>2021-11-15T23:23:07.332Z</time>
      </trkpt>
      <trkpt lat="47.448451" lon="7.740038">
        <ele>386.628485</ele>
        <time>2021-11-15T23:23:16.285Z</time>
      </trkpt>
      <trkpt lat="47.448522" lon="7.740332">
        <ele>388.327642</ele>
        <time>2021-11-15T23:23:31.466Z</time>
      </trkpt>
      <trkpt lat="47.448524" lon="7.740341">
        <ele>388.379204</ele>
        <time>2021-11-15T23:23:31.983Z</time>
      </trkpt>
      <trkpt lat="47.448645" lon="7.740556">
        <ele>389.901631</ele>
        <time>2021-11-15T23:23:46.950Z</time>
      </trkpt>
      <trkpt lat="47.448761" lon="7.740702">
        <ele>391.127647</ele>
        <time>2021-11-15T23:24:00.150Z</time>
      </trkpt>
      <trkpt lat="47.449608" lon="7.741258">
        <ele>397.389758</ele>
        <time>2021-11-15T23:25:12.960Z</time>
      </trkpt>
      <trkpt lat="47.449730" lon="7.741425">
        <ele>398.449998</ele>
        <time>2021-11-15T23:25:24.337Z</time>
      </trkpt>
      <trkpt lat="47.449852" lon="7.741753">
        <ele>400.064437</ele>
        <time>2021-11-15T23:25:40.481Z</time>
      </trkpt>
      <trkpt lat="47.449949" lon="7.742088">
        <ele>401.636072</ele>
        <time>2021-11-15T23:25:54.853Z</time>
      </trkpt>
      <trkpt lat="47.450332" lon="7.742110">
        <ele>404.080520</ele>
        <time>2021-11-15T23:26:04.448Z</time>
      </trkpt>
      <trkpt lat="47.450596" lon="7.742248">
        <ele>403.384909</ele>
        <time>2021-11-15T23:26:09.508Z</time>
      </trkpt>
      <trkpt lat="47.450797" lon="7.742387">
        <ele>402.566480</ele>
        <time>2021-11-15T23:26:13.575Z</time>
      </trkpt>
      <trkpt lat="47.450832" lon="7.742427">
        <ele>402.403327</ele>
        <time>2021-11-15T23:26:14.295Z</time>
      </trkpt>
      <trkpt lat="47.451000" lon="7.742619">
        <ele>401.620194</ele>
        <time>2021-11-15T23:26:17.538Z</time>
      </trkpt>
      <trkpt lat="47.451105" lon="7.742713">
        <ele>401.167473</ele>
        <time>2021-11-15T23:26:19.255Z</time>
      </trkpt>
      <trkpt lat="47.451313" lon="7.742898">
        <ele>400.272215</ele>
        <time>2021-11-15T23:26:22.468Z</time>
      </trkpt>
      <trkpt lat="47.451427" lon="7.742947">
        <ele>399.834335</ele>
        <time>2021-11-15T23:26:23.984Z</time>
      </trkpt>
      <trkpt lat="47.451569" lon="7.742879">
        <ele>399.283805</ele>
        <time>2021-11-15T23:26:25.846Z</time>
      </trkpt>
      <trkpt lat="47.451807" lon="7.742652">
        <ele>398.239222</ele>
        <time>2021-11-15T23:26:29.479Z</time>
      </trkpt>
      <trkpt lat="47.452803" lon="7.745088">
        <ele>388.723084</ele>
        <time>2021-11-15T23:26:55.276Z</time>
      </trkpt>
      <trkpt lat="47.452914" lon="7.745435">
        <ele>387.982189</ele>
        <time>2021-11-15T23:26:58.949Z</time>
      </trkpt>
      <trkpt lat="47.452934" lon="7.745757">
        <ele>387.422730</ele>
        <time>2021-11-15T23:27:03.219Z</time>
      </trkpt>
      <trkpt lat="47.452883" lon="7.745903">
        <ele>387.138412</ele>
        <time>2021-11-15T23:27:04.676Z</time>
      </trkpt>
      <trkpt lat="47.452801" lon="7.745980">
        <ele>386.889877</ele>
        <time>2021-11-15T23:27:08.467Z</time>
      </trkpt>
      <trkpt lat="47.451934" lon="7.746668">
        <ele>384.372309</ele>
        <time>2021-11-15T23:27:18.816Z</time>
      </trkpt>
      <trkpt lat="47.451774" lon="7.746957">
        <ele>383.720377</ele>
        <time>2021-11-15T23:27:21.670Z</time>
      </trkpt>
      <trkpt lat="47.451601" lon="7.747486">
        <ele>382.679514</ele>
        <time>2021-11-15T23:27:25.719Z</time>
      </trkpt>
      <trkpt lat="47.451325" lon="7.747959">
        <ele>381.572863</ele>
        <time>2021-11-15T23:27:29.858Z</time>
      </trkpt>
      <trkpt lat="47.451114" lon="7.748199">
        <ele>380.875569</ele>
        <time>2021-11-15T23:27:32.526Z</time>
      </trkpt>
      <trkpt lat="47.451127" lon="7.748249">
        <ele>380.780680</ele>
        <time>2021-11-15T23:27:32.919Z</time>
      </trkpt>
      <trkpt lat="47.451173" lon="7.748384">
        <ele>380.512905</ele>
        <time>2021-11-15T23:27:34.464Z</time>
      </trkpt>
      <trkpt lat="47.451334" lon="7.748712">
        <ele>379.794975</ele>
        <time>2021-11-15T23:27:38.837Z</time>
      </trkpt>
      <trkpt lat="47.451590" lon="7.749174">
        <ele>379.657850</ele>
        <time>2021-11-15T23:27:45.397Z</time>
      </trkpt>
      <trkpt lat="47.451678" lon="7.749501">
        <ele>380.144725</ele>
        <time>2021-11-15T23:27:49.406Z</time>
      </trkpt>
      <trkpt lat="47.451706" lon="7.749623">
        <ele>380.322954</ele>
        <time>2021-11-15T23:27:51.262Z</time>
      </trkpt>
      <trkpt lat="47.451732" lon="7.749739">
        <ele>380.492013</ele>
        <time>2021-11-15T23:27:53.165Z</time>
      </trkpt>
      <trkpt lat="47.451310" lon="7.750030">
        <ele>381.444582</ele>
        <time>2021-11-15T23:28:03.657Z</time>
      </trkpt>
      <trkpt lat="47.451102" lon="7.750197">
        <ele>381.928777</ele>
        <time>2021-11-15T23:28:11.411Z</time>
      </trkpt>
      <trkpt lat="47.450829" lon="7.750425">
        <ele>382.570190</ele>
        <time>2021-11-15T23:28:22.139Z</time>
      </trkpt>
      <trkpt lat="47.450534" lon="7.750678">
        <ele>383.450859</ele>
        <time>2021-11-15T23:28:34.781Z</time>
      </trkpt>
      <trkpt lat="47.450300" lon="7.750889">
        <ele>384.318618</ele>
        <time>2021-11-15T23:28:44.746Z</time>
      </trkpt>
      <trkpt lat="47.450098" lon="7.751078">
        <ele>385.075453</ele>
        <time>2021-11-15T23:28:52.960Z</time>
      </trkpt>
      <trkpt lat="47.448903" lon="7.752305">
        <ele>388.401544</ele>
        <time>2021-11-15T23:29:27.380Z</time>
      </trkpt>
      <trkpt lat="47.448053" lon="7.753318">
        <ele>387.656655</ele>
        <time>2021-11-15T23:29:40.264Z</time>
      </trkpt>
      <trkpt lat="47.447682" lon="7.753856">
        <ele>387.116392</ele>
        <time>2021-11-15T23:29:45.898Z</time>
      </trkpt>
      <trkpt lat="47.446908" lon="7.755161">
        <ele>384.815191</ele>
        <time>2021-11-15T23:29:58.491Z</time>
      </trkpt>
      <trkpt lat="47.446380" lon="7.755845">
        <ele>383.996626</ele>
        <time>2021-11-15T23:30:06.592Z</time>
      </trkpt>
      <trkpt lat="47.446148" lon="7.756104">
        <ele>384.155251</ele>
        <time>2021-11-15T23:30:10.243Z</time>
      </trkpt>
      <trkpt lat="47.445858" lon="7.756435">
        <ele>384.355155</ele>
        <time>2021-11-15T23:30:15.494Z</time>
      </trkpt>
      <trkpt lat="47.445278" lon="7.757084">
        <ele>384.752051</ele>
        <time>2021-11-15T23:30:30.510Z</time>
      </trkpt>
      <trkpt lat="47.444843" lon="7.757585">
        <ele>385.967254</ele>
        <time>2021-11-15T23:30:44.215Z</time>
      </trkpt>
      <trkpt lat="47.444749" lon="7.757695">
        <ele>386.337448</ele>
        <time>2021-11-15T23:30:47.334Z</time>
      </trkpt>
      <trkpt lat="47.444373" lon="7.758141">
        <ele>387.826035</ele>
        <time>2021-11-15T23:31:00.627Z</time>
      </trkpt>
      <trkpt lat="47.443581" lon="7.759160">
        <ele>391.172637</ele>
        <time>2021-11-15T23:31:31.115Z</time>
      </trkpt>
      <trkpt lat="47.443301" lon="7.759629">
        <ele>392.687026</ele>
        <time>2021-11-15T23:31:43.648Z</time>
      </trkpt>
      <trkpt lat="47.442983" lon="7.760307">
        <ele>394.684349</ele>
        <time>2021-11-15T23:31:58.772Z</time>
      </trkpt>
      <trkpt lat="47.442912" lon="7.760457">
        <ele>395.127557</ele>
        <time>2021-11-15T23:32:02.462Z</time>
      </trkpt>
      <trkpt lat="47.441948" lon="7.762873">
        <ele>402.393298</ele>
        <time>2021-11-15T23:33:00.924Z</time>
      </trkpt>
      <trkpt lat="47.441756" lon="7.763284">
        <ele>403.715866</ele>
        <time>2021-11-15T23:33:11.237Z</time>
      </trkpt>
      <trkpt lat="47.441614" lon="7.763557">
        <ele>404.409201</ele>
        <time>2021-11-15T23:33:18.122Z</time>
      </trkpt>
      <trkpt lat="47.441368" lon="7.763989">
        <ele>405.461307</ele>
        <time>2021-11-15T23:33:29.103Z</time>
      </trkpt>
      <trkpt lat="47.441072" lon="7.764489">
        <ele>406.699262</ele>
        <time>2021-11-15T23:33:41.516Z</time>
      </trkpt>
      <trkpt lat="47.440323" lon="7.765723">
        <ele>409.279789</ele>
        <time>2021-11-15T23:34:06.871Z</time>
      </trkpt>
      <trkpt lat="47.438732" lon="7.768342">
        <ele>412.906186</ele>
        <time>2021-11-15T23:34:52.180Z</time>
      </trkpt>
      <trkpt lat="47.438636" lon="7.768480">
        <ele>413.163490</ele>
        <time>2021-11-15T23:34:55.373Z</time>
      </trkpt>
      <trkpt lat="47.438320" lon="7.768936">
        <ele>414.012036</ele>
        <time>2021-11-15T23:35:06.758Z</time>
      </trkpt>
      <trkpt lat="47.437863" lon="7.769472">
        <ele>415.444465</ele>
        <time>2021-11-15T23:35:22.703Z</time>
      </trkpt>
      <trkpt lat="47.437718" lon="7.769600">
        <ele>415.953530</ele>
        <time>2021-11-15T23:35:27.037Z</time>
      </trkpt>
      <trkpt lat="47.437356" lon="7.769942">
        <ele>417.248493</ele>
        <time>2021-11-15T23:35:38.818Z</time>
      </trkpt>
      <trkpt lat="47.437278" lon="7.770017">
        <ele>417.528965</ele>
        <time>2021-11-15T23:35:41.599Z</time>
      </trkpt>
      <trkpt lat="47.436888" lon="7.770422">
        <ele>418.965591</ele>
        <time>2021-11-15T23:35:54.663Z</time>
      </trkpt>
      <trkpt lat="47.436017" lon="7.771484">
        <ele>420.853529</ele>
        <time>2021-11-15T23:36:23.782Z</time>
      </trkpt>
      <trkpt lat="47.435727" lon="7.771837">
        <ele>421.259380</ele>
        <time>2021-11-15T23:36:30.676Z</time>
      </trkpt>
      <trkpt lat="47.434400" lon="7.772809">
        <ele>420.486421</ele>
        <time>2021-11-15T23:36:49.160Z</time>
      </trkpt>
      <trkpt lat="47.434119" lon="7.772984">
        <ele>419.955984</ele>
        <time>2021-11-15T23:36:52.428Z</time>
      </trkpt>
      <trkpt lat="47.433941" lon="7.773088">
        <ele>419.623026</ele>
        <time>2021-11-15T23:36:54.462Z</time>
      </trkpt>
      <trkpt lat="47.433246" lon="7.773363">
        <ele>418.260352</ele>
        <time>2021-11-15T23:37:01.963Z</time>
      </trkpt>
      <trkpt lat="47.432741" lon="7.773429">
        <ele>417.160657</ele>
        <time>2021-11-15T23:37:07.123Z</time>
      </trkpt>
      <trkpt lat="47.432060" lon="7.773355">
        <ele>415.679479</ele>
        <time>2021-11-15T23:37:14.438Z</time>
      </trkpt>
      <trkpt lat="47.431423" lon="7.773118">
        <ele>415.184664</ele>
        <time>2021-11-15T23:37:22.606Z</time>
      </trkpt>
      <trkpt lat="47.431011" lon="7.772908">
        <ele>415.561109</ele>
        <time>2021-11-15T23:37:29.421Z</time>
      </trkpt>
      <trkpt lat="47.430283" lon="7.772555">
        <ele>416.222919</ele>
        <time>2021-11-15T23:37:45.392Z</time>
      </trkpt>
      <trkpt lat="47.429020" lon="7.771862">
        <ele>418.952650</ele>
        <time>2021-11-15T23:38:19.328Z</time>
      </trkpt>
      <trkpt lat="47.428770" lon="7.771707">
        <ele>419.588415</ele>
        <time>2021-11-15T23:38:25.841Z</time>
      </trkpt>
      <trkpt lat="47.427870" lon="7.771359">
        <ele>421.395822</ele>
        <time>2021-11-15T23:38:47.272Z</time>
      </trkpt>
      <trkpt lat="47.427740" lon="7.771340">
        <ele>421.595878</ele>
        <time>2021-11-15T23:38:49.843Z</time>
      </trkpt>
      <trkpt lat="47.427702" lon="7.771335">
        <ele>421.654303</ele>
        <time>2021-11-15T23:38:50.585Z</time>
      </trkpt>
      <trkpt lat="47.427593" lon="7.771328">
        <ele>421.821386</ele>
        <time>2021-11-15T23:38:53.048Z</time>
      </trkpt>
      <trkpt lat="47.427296" lon="7.771252">
        <ele>422.282985</ele>
        <time>2021-11-15T23:38:58.737Z</time>
      </trkpt>
      <trkpt lat="47.427175" lon="7.771179">
        <ele>422.483128</ele>
        <time>2021-11-15T23:39:01.438Z</time>
      </trkpt>
      <trkpt lat="47.427112" lon="7.771125">
        <ele>422.594655</ele>
        <time>2021-11-15T23:39:02.768Z</time>
      </trkpt>
      <trkpt lat="47.426997" lon="7.771000">
        <ele>422.813260</ele>
        <time>2021-11-15T23:39:05.438Z</time>
      </trkpt>
      <trkpt lat="47.426977" lon="7.770973">
        <ele>422.854741</ele>
        <time>2021-11-15T23:39:06.106Z</time>
      </trkpt>
      <trkpt lat="47.426821" lon="7.770734">
        <ele>423.198818</ele>
        <time>2021-11-15T23:39:10.465Z</time>
      </trkpt>
      <trkpt lat="47.426586" lon="7.770441">
        <ele>423.779075</ele>
        <time>2021-11-15T23:39:16.961Z</time>
      </trkpt>
      <trkpt lat="47.426561" lon="7.770421">
        <ele>423.843912</ele>
        <time>2021-11-15T23:39:17.519Z</time>
      </trkpt>
      <trkpt lat="47.426442" lon="7.770325">
        <ele>424.153125</ele>
        <time>2021-11-15T23:39:20.431Z</time>
      </trkpt>
      <trkpt lat="47.426137" lon="7.770135">
        <ele>424.908039</ele>
        <time>2021-11-15T23:39:28.025Z</time>
      </trkpt>
      <trkpt lat="47.425937" lon="7.770017">
        <ele>425.399205</ele>
        <time>2021-11-15T23:39:32.717Z</time>
      </trkpt>
      <trkpt lat="47.425665" lon="7.769858">
        <ele>426.066348</ele>
        <time>2021-11-15T23:39:39.545Z</time>
      </trkpt>
      <trkpt lat="47.425372" lon="7.769666">
        <ele>426.797365</ele>
        <time>2021-11-15T23:39:46.900Z</time>
      </trkpt>
      <trkpt lat="47.425140" lon="7.769501">
        <ele>427.384589</ele>
        <time>2021-11-15T23:39:53.779Z</time>
      </trkpt>
      <trkpt lat="47.424876" lon="7.769315">
        <ele>428.540267</ele>
        <time>2021-11-15T23:40:01.595Z</time>
      </trkpt>
      <trkpt lat="47.424861" lon="7.769306">
        <ele>428.613044</ele>
        <time>2021-11-15T23:40:02.450Z</time>
      </trkpt>
      <trkpt lat="47.424704" lon="7.769209">
        <ele>429.378022</ele>
        <time>2021-11-15T23:40:09.608Z</time>
      </trkpt>
      <trkpt lat="47.424704" lon="7.769209">
        <ele>429.378022</ele>
        <time>2021-11-15T23:40:09.640Z</time>
      </trkpt>
      <trkpt lat="47.424599" lon="7.769145">
        <ele>429.888614</ele>
        <time>2021-11-15T23:40:12.272Z</time>
      </trkpt>
      <trkpt lat="47.424523" lon="7.769284">
        <ele>430.432182</ele>
        <time>2021-11-15T23:40:16.943Z</time>
      </trkpt>
      <trkpt lat="47.424021" lon="7.769926">
        <ele>433.416444</ele>
        <time>2021-11-15T23:40:38.983Z</time>
      </trkpt>
      <trkpt lat="47.423938" lon="7.769994">
        <ele>433.843060</ele>
        <time>2021-11-15T23:40:43.876Z</time>
      </trkpt>
      <trkpt lat="47.423921" lon="7.770007">
        <ele>433.929107</ele>
        <time>2021-11-15T23:40:44.950Z</time>
      </trkpt>
      <trkpt lat="47.423658" lon="7.770256">
        <ele>435.333196</ele>
        <time>2021-11-15T23:40:53.952Z</time>
      </trkpt>
      <trkpt lat="47.423641" lon="7.770276">
        <ele>435.430875</ele>
        <time>2021-11-15T23:40:55.494Z</time>
      </trkpt>
      <trkpt lat="47.423589" lon="7.770342">
        <ele>435.726841</ele>
        <time>2021-11-15T23:40:57.955Z</time>
      </trkpt>
      <trkpt lat="47.423377" lon="7.770427">
        <ele>436.599632</ele>
        <time>2021-11-15T23:41:03.718Z</time>
      </trkpt>
      <trkpt lat="47.423330" lon="7.770415">
        <ele>436.789144</ele>
        <time>2021-11-15T23:41:06.061Z</time>
      </trkpt>
      <trkpt lat="47.423115" lon="7.770334">
        <ele>437.670727</ele>
        <time>2021-11-15T23:41:13.674Z</time>
      </trkpt>
      <trkpt lat="47.422620" lon="7.770267">
        <ele>439.645760</ele>
        <time>2021-11-15T23:41:29.972Z</time>
      </trkpt>
      <trkpt lat="47.422547" lon="7.770298">
        <ele>439.947548</ele>
        <time>2021-11-15T23:41:33.689Z</time>
      </trkpt>
      <trkpt lat="47.422480" lon="7.770363">
        <ele>440.265988</ele>
        <time>2021-11-15T23:41:36.218Z</time>
      </trkpt>
      <trkpt lat="47.422227" lon="7.770645">
        <ele>441.525059</ele>
        <time>2021-11-15T23:41:45.786Z</time>
      </trkpt>
      <trkpt lat="47.422134" lon="7.770697">
        <ele>441.920138</ele>
        <time>2021-11-15T23:41:48.466Z</time>
      </trkpt>
      <trkpt lat="47.421917" lon="7.770778">
        <ele>442.788150</ele>
        <time>2021-11-15T23:41:53.177Z</time>
      </trkpt>
      <trkpt lat="47.421479" lon="7.770970">
        <ele>443.249569</ele>
        <time>2021-11-15T23:42:02.643Z</time>
      </trkpt>
      <trkpt lat="47.420948" lon="7.771461">
        <ele>443.882181</ele>
        <time>2021-11-15T23:42:14.666Z</time>
      </trkpt>
      <trkpt lat="47.420752" lon="7.771639">
        <ele>444.114522</ele>
        <time>2021-11-15T23:42:18.681Z</time>
      </trkpt>
      <trkpt lat="47.420502" lon="7.771823">
        <ele>444.396594</ele>
        <time>2021-11-15T23:42:22.674Z</time>
      </trkpt>
      <trkpt lat="47.420038" lon="7.772054">
        <ele>444.857989</ele>
        <time>2021-11-15T23:42:29.759Z</time>
      </trkpt>
      <trkpt lat="47.419668" lon="7.772445">
        <ele>445.265575</ele>
        <time>2021-11-15T23:42:37.237Z</time>
      </trkpt>
      <trkpt lat="47.419457" lon="7.772722">
        <ele>445.518470</ele>
        <time>2021-11-15T23:42:41.952Z</time>
      </trkpt>
      <trkpt lat="47.419231" lon="7.773074">
        <ele>445.812684</ele>
        <time>2021-11-15T23:42:47.862Z</time>
      </trkpt>
      <trkpt lat="47.419197" lon="7.773144">
        <ele>445.864929</ele>
        <time>2021-11-15T23:42:49.597Z</time>
      </trkpt>
      <trkpt lat="47.419187" lon="7.773164">
        <ele>445.880007</ele>
        <time>2021-11-15T23:42:50.048Z</time>
      </trkpt>
      <trkpt lat="47.419119" lon="7.773306">
        <ele>445.985485</ele>
        <time>2021-11-15T23:42:51.929Z</time>
      </trkpt>
      <trkpt lat="47.419091" lon="7.773374">
        <ele>446.033749</ele>
        <time>2021-11-15T23:42:53.052Z</time>
      </trkpt>
      <trkpt lat="47.419001" lon="7.773564">
        <ele>446.174373</ele>
        <time>2021-11-15T23:42:57.210Z</time>
      </trkpt>
      <trkpt lat="47.418918" lon="7.773736">
        <ele>446.614385</ele>
        <time>2021-11-15T23:42:59.914Z</time>
      </trkpt>
      <trkpt lat="47.418795" lon="7.773989">
        <ele>447.435234</ele>
        <time>2021-11-15T23:43:05.303Z</time>
      </trkpt>
      <trkpt lat="47.418362" lon="7.774660">
        <ele>449.878355</ele>
        <time>2021-11-15T23:43:22.707Z</time>
      </trkpt>
      <trkpt lat="47.418266" lon="7.774789">
        <ele>450.383609</ele>
        <time>2021-11-15T23:43:27.306Z</time>
      </trkpt>
      <trkpt lat="47.418071" lon="7.775089">
        <ele>451.479710</ele>
        <time>2021-11-15T23:43:37.526Z</time>
      </trkpt>
      <trkpt lat="47.417861" lon="7.775306">
        <ele>452.477530</ele>
        <time>2021-11-15T23:43:45.760Z</time>
      </trkpt>
      <trkpt lat="47.417861" lon="7.775306">
        <ele>452.477530</ele>
        <time>2021-11-15T23:43:45.793Z</time>
      </trkpt>
      <trkpt lat="47.417528" lon="7.775362">
        <ele>453.942880</ele>
        <time>2021-11-15T23:43:58.051Z</time>
      </trkpt>
      <trkpt lat="47.417170" lon="7.775339">
        <ele>455.731035</ele>
        <time>2021-11-15T23:44:11.347Z</time>
      </trkpt>
      <trkpt lat="47.417095" lon="7.775341">
        <ele>456.105356</ele>
        <time>2021-11-15T23:44:15.921Z</time>
      </trkpt>
      <trkpt lat="47.416531" lon="7.775374">
        <ele>458.921996</ele>
        <time>2021-11-15T23:44:35.115Z</time>
      </trkpt>
      <trkpt lat="47.415950" lon="7.775644">
        <ele>461.961231</ele>
        <time>2021-11-15T23:44:57.109Z</time>
      </trkpt>
      <trkpt lat="47.415830" lon="7.775752">
        <ele>462.352170</ele>
        <time>2021-11-15T23:45:00.807Z</time>
      </trkpt>
      <trkpt lat="47.415206" lon="7.776746">
        <ele>463.932083</ele>
        <time>2021-11-15T23:45:23.366Z</time>
      </trkpt>
      <trkpt lat="47.414806" lon="7.777866">
        <ele>465.322900</ele>
        <time>2021-11-15T23:45:37.006Z</time>
      </trkpt>
      <trkpt lat="47.414733" lon="7.778030">
        <ele>465.392233</ele>
        <time>2021-11-15T23:45:38.453Z</time>
      </trkpt>
      <trkpt lat="47.414539" lon="7.778426">
        <ele>465.564905</ele>
        <time>2021-11-15T23:45:42.861Z</time>
      </trkpt>
      <trkpt lat="47.414194" lon="7.779208">
        <ele>465.894622</ele>
        <time>2021-11-15T23:45:53.228Z</time>
      </trkpt>
      <trkpt lat="47.413847" lon="7.780178">
        <ele>466.488862</ele>
        <time>2021-11-15T23:46:07.483Z</time>
      </trkpt>
      <trkpt lat="47.413801" lon="7.780338">
        <ele>466.771504</ele>
        <time>2021-11-15T23:46:09.994Z</time>
      </trkpt>
      <trkpt lat="47.413793" lon="7.780381">
        <ele>466.844010</ele>
        <time>2021-11-15T23:46:10.599Z</time>
      </trkpt>
      <trkpt lat="47.413769" lon="7.780518">
        <ele>467.074096</ele>
        <time>2021-11-15T23:46:12.593Z</time>
      </trkpt>
      <trkpt lat="47.413743" lon="7.780665">
        <ele>467.321127</ele>
        <time>2021-11-15T23:46:15.945Z</time>
      </trkpt>
      <trkpt lat="47.413631" lon="7.781411">
        <ele>468.563514</ele>
        <time>2021-11-15T23:46:28.560Z</time>
      </trkpt>
      <trkpt lat="47.413278" lon="7.782611">
        <ele>470.729261</ele>
        <time>2021-11-15T23:46:51.460Z</time>
      </trkpt>
      <trkpt lat="47.413097" lon="7.783444">
        <ele>472.528622</ele>
        <time>2021-11-15T23:47:07.433Z</time>
      </trkpt>
      <trkpt lat="47.412810" lon="7.784555">
        <ele>474.974426</ele>
        <time>2021-11-15T23:47:29.393Z</time>
      </trkpt>
      <trkpt lat="47.412650" lon="7.785562">
        <ele>477.241952</ele>
        <time>2021-11-15T23:47:48.503Z</time>
      </trkpt>
      <trkpt lat="47.412584" lon="7.785944">
        <ele>478.157137</ele>
        <time>2021-11-15T23:47:55.707Z</time>
      </trkpt>
      <trkpt lat="47.412318" lon="7.786627">
        <ele>479.986410</ele>
        <time>2021-11-15T23:48:10.505Z</time>
      </trkpt>
      <trkpt lat="47.411048" lon="7.789140">
        <ele>488.707502</ele>
        <time>2021-11-15T23:49:15.074Z</time>
      </trkpt>
      <trkpt lat="47.411032" lon="7.789237">
        <ele>489.004924</ele>
        <time>2021-11-15T23:49:16.838Z</time>
      </trkpt>
      <trkpt lat="47.411026" lon="7.789475">
        <ele>489.714416</ele>
        <time>2021-11-15T23:49:25.039Z</time>
      </trkpt>
      <trkpt lat="47.411138" lon="7.790215">
        <ele>492.899062</ele>
        <time>2021-11-15T23:49:43.814Z</time>
      </trkpt>
      <trkpt lat="47.411256" lon="7.790603">
        <ele>494.792551</ele>
        <time>2021-11-15T23:49:56.258Z</time>
      </trkpt>
      <trkpt lat="47.411382" lon="7.790776">
        <ele>495.923873</ele>
        <time>2021-11-15T23:50:01.707Z</time>
      </trkpt>
      <trkpt lat="47.411437" lon="7.790833">
        <ele>496.365747</ele>
        <time>2021-11-15T23:50:06.245Z</time>
      </trkpt>
      <trkpt lat="47.411537" lon="7.790899">
        <ele>497.086136</ele>
        <time>2021-11-15T23:50:10.593Z</time>
      </trkpt>
      <trkpt lat="47.411990" lon="7.790873">
        <ele>500.068048</ele>
        <time>2021-11-15T23:50:30.450Z</time>
      </trkpt>
      <trkpt lat="47.412811" lon="7.790495">
        <ele>504.669992</ele>
        <time>2021-11-15T23:51:07.617Z</time>
      </trkpt>
      <trkpt lat="47.413058" lon="7.790541">
        <ele>505.852369</ele>
        <time>2021-11-15T23:51:16.143Z</time>
      </trkpt>
      <trkpt lat="47.413105" lon="7.790579">
        <ele>506.106816</ele>
        <time>2021-11-15T23:51:18.912Z</time>
      </trkpt>
      <trkpt lat="47.413181" lon="7.790657">
        <ele>506.546283</ele>
        <time>2021-11-15T23:51:22.053Z</time>
      </trkpt>
      <trkpt lat="47.413286" lon="7.790823">
        <ele>507.276572</ele>
        <time>2021-11-15T23:51:26.308Z</time>
      </trkpt>
      <trkpt lat="47.413437" lon="7.791275">
        <ele>508.896645</ele>
        <time>2021-11-15T23:51:36.398Z</time>
      </trkpt>
      <trkpt lat="47.413547" lon="7.791735">
        <ele>510.464641</ele>
        <time>2021-11-15T23:51:45.227Z</time>
      </trkpt>
      <trkpt lat="47.413568" lon="7.792136">
        <ele>510.080493</ele>
        <time>2021-11-15T23:51:51.252Z</time>
      </trkpt>
      <trkpt lat="47.413564" lon="7.792225">
        <ele>509.992733</ele>
        <time>2021-11-15T23:51:52.724Z</time>
      </trkpt>
      <trkpt lat="47.413540" lon="7.792402">
        <ele>509.815120</ele>
        <time>2021-11-15T23:51:54.181Z</time>
      </trkpt>
      <trkpt lat="47.413515" lon="7.792523">
        <ele>509.690643</ele>
        <time>2021-11-15T23:51:56.499Z</time>
      </trkpt>
      <trkpt lat="47.413485" lon="7.792636">
        <ele>509.571212</ele>
        <time>2021-11-15T23:51:57.453Z</time>
      </trkpt>
      <trkpt lat="47.413420" lon="7.792802">
        <ele>509.382511</ele>
        <time>2021-11-15T23:51:59.108Z</time>
      </trkpt>
      <trkpt lat="47.413855" lon="7.793733">
        <ele>508.269362</ele>
        <time>2021-11-15T23:52:10.506Z</time>
      </trkpt>
      <trkpt lat="47.414103" lon="7.794308">
        <ele>506.997064</ele>
        <time>2021-11-15T23:52:16.966Z</time>
      </trkpt>
      <trkpt lat="47.414215" lon="7.794273">
        <ele>506.445393</ele>
        <time>2021-11-15T23:52:18.460Z</time>
      </trkpt>
      <trkpt lat="47.414574" lon="7.794332">
        <ele>504.704685</ele>
        <time>2021-11-15T23:52:23.331Z</time>
      </trkpt>
      <trkpt lat="47.415443" lon="7.795097">
        <ele>499.830195</ele>
        <time>2021-11-15T23:52:36.934Z</time>
      </trkpt>
      <trkpt lat="47.416168" lon="7.796441">
        <ele>494.646513</ele>
        <time>2021-11-15T23:52:52.924Z</time>
      </trkpt>
      <trkpt lat="47.416244" lon="7.796575">
        <ele>494.124727</ele>
        <time>2021-11-15T23:52:54.496Z</time>
      </trkpt>
      <trkpt lat="47.417398" lon="7.798623">
        <ele>487.439453</ele>
        <time>2021-11-15T23:53:19.864Z</time>
      </trkpt>
      <trkpt lat="47.417895" lon="7.799566">
        <ele>485.048143</ele>
        <time>2021-11-15T23:53:32.304Z</time>
      </trkpt>
      <trkpt lat="47.418027" lon="7.799823">
        <ele>484.707772</ele>
        <time>2021-11-15T23:53:35.845Z</time>
      </trkpt>
      <trkpt lat="47.418187" lon="7.800057">
        <ele>484.356833</ele>
        <time>2021-11-15T23:53:39.449Z</time>
      </trkpt>
      <trkpt lat="47.418719" lon="7.800568">
        <ele>483.367642</ele>
        <time>2021-11-15T23:53:49.874Z</time>
      </trkpt>
      <trkpt lat="47.419295" lon="7.801295">
        <ele>482.278826</ele>
        <time>2021-11-15T23:54:02.995Z</time>
      </trkpt>
      <trkpt lat="47.419609" lon="7.801838">
        <ele>481.747599</ele>
        <time>2021-11-15T23:54:11.199Z</time>
      </trkpt>
      <trkpt lat="47.420176" lon="7.802594">
        <ele>480.908241</ele>
        <time>2021-11-15T23:54:24.124Z</time>
      </trkpt>
      <trkpt lat="47.420910" lon="7.803864">
        <ele>481.230133</ele>
        <time>2021-11-15T23:54:44.096Z</time>
      </trkpt>
      <trkpt lat="47.421190" lon="7.804479">
        <ele>481.686266</ele>
        <time>2021-11-15T23:54:56.362Z</time>
      </trkpt>
      <trkpt lat="47.421413" lon="7.804692">
        <ele>481.927739</ele>
        <time>2021-11-15T23:55:07.600Z</time>
      </trkpt>
      <trkpt lat="47.422016" lon="7.805023">
        <ele>481.587561</ele>
        <time>2021-11-15T23:55:27.276Z</time>
      </trkpt>
      <trkpt lat="47.422176" lon="7.805125">
        <ele>481.333032</ele>
        <time>2021-11-15T23:55:30.214Z</time>
      </trkpt>
      <trkpt lat="47.422151" lon="7.805274">
        <ele>481.181313</ele>
        <time>2021-11-15T23:55:36.800Z</time>
      </trkpt>
      <trkpt lat="47.422022" lon="7.805754">
        <ele>480.670870</ele>
        <time>2021-11-15T23:55:47.408Z</time>
      </trkpt>
      <trkpt lat="47.422010" lon="7.805908">
        <ele>480.517663</ele>
        <time>2021-11-15T23:55:52.133Z</time>
      </trkpt>
      <trkpt lat="47.422138" lon="7.806089">
        <ele>480.258900</ele>
        <time>2021-11-15T23:55:56.544Z</time>
      </trkpt>
      <trkpt lat="47.422199" lon="7.806185">
        <ele>480.128742</ele>
        <time>2021-11-15T23:56:01.743Z</time>
      </trkpt>
      <trkpt lat="47.422255" lon="7.806325">
        <ele>479.968007</ele>
        <time>2021-11-15T23:56:03.386Z</time>
      </trkpt>
      <trkpt lat="47.422531" lon="7.807279">
        <ele>475.982990</ele>
        <time>2021-11-15T23:56:12.829Z</time>
      </trkpt>
      <trkpt lat="47.422532" lon="7.807347">
        <ele>475.577337</ele>
        <time>2021-11-15T23:56:13.364Z</time>
      </trkpt>
      <trkpt lat="47.422537" lon="7.807434">
        <ele>475.056593</ele>
        <time>2021-11-15T23:56:14.052Z</time>
      </trkpt>
      <trkpt lat="47.422498" lon="7.808033">
        <ele>471.467605</ele>
        <time>2021-11-15T23:56:19.080Z</time>
      </trkpt>
      <trkpt lat="47.422447" lon="7.808245">
        <ele>470.125673</ele>
        <time>2021-11-15T23:56:20.945Z</time>
      </trkpt>
      <trkpt lat="47.422283" lon="7.808539">
        <ele>467.853123</ele>
        <time>2021-11-15T23:56:24.013Z</time>
      </trkpt>
      <trkpt lat="47.421932" lon="7.808790">
        <ele>464.415953</ele>
        <time>2021-11-15T23:56:28.754Z</time>
      </trkpt>
      <trkpt lat="47.421860" lon="7.808837">
        <ele>463.722129</ele>
        <time>2021-11-15T23:56:29.688Z</time>
      </trkpt>
      <trkpt lat="47.421864" lon="7.808875">
        <ele>463.529964</ele>
        <time>2021-11-15T23:56:29.996Z</time>
      </trkpt>
      <trkpt lat="47.422811" lon="7.809317">
        <ele>456.558274</ele>
        <time>2021-11-15T23:56:42.516Z</time>
      </trkpt>
      <trkpt lat="47.423989" lon="7.809433">
        <ele>449.758987</ele>
        <time>2021-11-15T23:56:58.445Z</time>
      </trkpt>
      <trkpt lat="47.424069" lon="7.809421">
        <ele>449.496959</ele>
        <time>2021-11-15T23:56:59.552Z</time>
      </trkpt>
      <trkpt lat="47.424349" lon="7.809415">
        <ele>448.584452</ele>
        <time>2021-11-15T23:57:03.772Z</time>
      </trkpt>
      <trkpt lat="47.424796" lon="7.809409">
        <ele>447.127793</ele>
        <time>2021-11-15T23:57:10.352Z</time>
      </trkpt>
      <trkpt lat="47.424872" lon="7.809392">
        <ele>446.877319</ele>
        <time>2021-11-15T23:57:11.576Z</time>
      </trkpt>
      <trkpt lat="47.425101" lon="7.809368">
        <ele>446.129224</ele>
        <time>2021-11-15T23:57:15.057Z</time>
      </trkpt>
      <trkpt lat="47.425224" lon="7.809342">
        <ele>445.724337</ele>
        <time>2021-11-15T23:57:16.958Z</time>
      </trkpt>
      <trkpt lat="47.425289" lon="7.809334">
        <ele>445.511794</ele>
        <time>2021-11-15T23:57:17.638Z</time>
      </trkpt>
      <trkpt lat="47.426272" lon="7.809123">
        <ele>443.432469</ele>
        <time>2021-11-15T23:57:28.741Z</time>
      </trkpt>
      <trkpt lat="47.427274" lon="7.808820">
        <ele>441.403234</ele>
        <time>2021-11-15T23:57:39.960Z</time>
      </trkpt>
      <trkpt lat="47.427429" lon="7.808737">
        <ele>441.050280</ele>
        <time>2021-11-15T23:57:41.794Z</time>
      </trkpt>
      <trkpt lat="47.427539" lon="7.808592">
        <ele>440.734731</ele>
        <time>2021-11-15T23:57:43.423Z</time>
      </trkpt>
      <trkpt lat="47.427681" lon="7.808295">
        <ele>440.207969</ele>
        <time>2021-11-15T23:57:46.127Z</time>
      </trkpt>
      <trkpt lat="47.427771" lon="7.808159">
        <ele>439.932414</ele>
        <time>2021-11-15T23:57:47.517Z</time>
      </trkpt>
      <trkpt lat="47.427920" lon="7.807976">
        <ele>439.517663</ele>
        <time>2021-11-15T23:57:49.621Z</time>
      </trkpt>
      <trkpt lat="47.428305" lon="7.807684">
        <ele>438.591222</ele>
        <time>2021-11-15T23:57:54.249Z</time>
      </trkpt>
      <trkpt lat="47.428483" lon="7.807631">
        <ele>438.202476</ele>
        <time>2021-11-15T23:57:56.183Z</time>
      </trkpt>
      <trkpt lat="47.428749" lon="7.807676">
        <ele>437.673082</ele>
        <time>2021-11-15T23:57:59.041Z</time>
      </trkpt>
      <trkpt lat="47.429226" lon="7.807832">
        <ele>436.888061</ele>
        <time>2021-11-15T23:58:04.352Z</time>
      </trkpt>
      <trkpt lat="47.429602" lon="7.807940">
        <ele>436.272572</ele>
        <time>2021-11-15T23:58:08.684Z</time>
      </trkpt>
      <trkpt lat="47.430186" lon="7.808045">
        <ele>435.327234</ele>
        <time>2021-11-15T23:58:15.397Z</time>
      </trkpt>
      <trkpt lat="47.430680" lon="7.808257">
        <ele>434.812293</ele>
        <time>2021-11-15T23:58:22.085Z</time>
      </trkpt>
      <trkpt lat="47.431104" lon="7.808253">
        <ele>434.643769</ele>
        <time>2021-11-15T23:58:27.899Z</time>
      </trkpt>
      <trkpt lat="47.431245" lon="7.808039">
        <ele>434.563449</ele>
        <time>2021-11-15T23:58:30.503Z</time>
      </trkpt>
      <trkpt lat="47.431372" lon="7.807553">
        <ele>434.423369</ele>
        <time>2021-11-15T23:58:35.677Z</time>
      </trkpt>
      <trkpt lat="47.431386" lon="7.807502">
        <ele>434.408571</ele>
        <time>2021-11-15T23:58:36.499Z</time>
      </trkpt>
      <trkpt lat="47.431493" lon="7.807482">
        <ele>434.365704</ele>
        <time>2021-11-15T23:58:38.470Z</time>
      </trkpt>
      <trkpt lat="47.432518" lon="7.807488">
        <ele>433.158926</ele>
        <time>2021-11-15T23:58:52.157Z</time>
      </trkpt>
      <trkpt lat="47.433295" lon="7.807681">
        <ele>431.809289</ele>
        <time>2021-11-15T23:59:00.948Z</time>
      </trkpt>
      <trkpt lat="47.433708" lon="7.807856">
        <ele>431.039395</ele>
        <time>2021-11-15T23:59:05.324Z</time>
      </trkpt>
      <trkpt lat="47.433785" lon="7.807876">
        <ele>430.805458</ele>
        <time>2021-11-15T23:59:06.046Z</time>
      </trkpt>
      <trkpt lat="47.433833" lon="7.807952">
        <ele>430.594995</ele>
        <time>2021-11-15T23:59:07.041Z</time>
      </trkpt>
      <trkpt lat="47.433883" lon="7.808024">
        <ele>430.386131</ele>
        <time>2021-11-15T23:59:08.077Z</time>
      </trkpt>
      <trkpt lat="47.434032" lon="7.808101">
        <ele>429.913820</ele>
        <time>2021-11-15T23:59:10.421Z</time>
      </trkpt>
      <trkpt lat="47.434429" lon="7.808290">
        <ele>428.665793</ele>
        <time>2021-11-15T23:59:16.327Z</time>
      </trkpt>
      <trkpt lat="47.434490" lon="7.808337">
        <ele>428.459959</ele>
        <time>2021-11-15T23:59:17.285Z</time>
      </trkpt>
      <trkpt lat="47.434924" lon="7.809008">
        <ele>426.580827</ele>
        <time>2021-11-15T23:59:26.477Z</time>
      </trkpt>
      <trkpt lat="47.434967" lon="7.809045">
        <ele>426.431949</ele>
        <time>2021-11-15T23:59:27.218Z</time>
      </trkpt>
      <trkpt lat="47.435556" lon="7.809237">
        <ele>425.257113</ele>
        <time>2021-11-15T23:59:37.023Z</time>
      </trkpt>
      <trkpt lat="47.435649" lon="7.809355">
        <ele>425.098604</ele>
        <time>2021-11-15T23:59:39.126Z</time>
      </trkpt>
      <trkpt lat="47.435726" lon="7.809439">
        <ele>424.974837</ele>
        <time>2021-11-15T23:59:40.699Z</time>
      </trkpt>
      <trkpt lat="47.435790" lon="7.809553">
        <ele>424.845228</ele>
        <time>2021-11-15T23:59:42.298Z</time>
      </trkpt>
      <trkpt lat="47.435849" lon="7.809664">
        <ele>424.721724</ele>
        <time>2021-11-15T23:59:43.800Z</time>
      </trkpt>
      <trkpt lat="47.435884" lon="7.809759">
        <ele>424.627085</ele>
        <time>2021-11-15T23:59:45.251Z</time>
      </trkpt>
      <trkpt lat="47.435972" lon="7.810114">
        <ele>424.296314</ele>
        <time>2021-11-15T23:59:49.484Z</time>
      </trkpt>
      <trkpt lat="47.436034" lon="7.810517">
        <ele>423.934745</ele>
        <time>2021-11-15T23:59:54.682Z</time>
      </trkpt>
      <trkpt lat="47.436286" lon="7.810439">
        <ele>423.601750</ele>
        <time>2021-11-15T23:59:59.219Z</time>
      </trkpt>
      <trkpt lat="47.436714" lon="7.810307">
        <ele>423.097512</ele>
        <time>2021-11-16T00:00:06.966Z</time>
      </trkpt>
      <trkpt lat="47.436754" lon="7.810295">
        <ele>423.053364</ele>
        <time>2021-11-16T00:00:07.615Z</time>
      </trkpt>
      <trkpt lat="47.436910" lon="7.810231">
        <ele>422.878249</ele>
        <time>2021-11-16T00:00:10.579Z</time>
      </trkpt>
      <trkpt lat="47.436971" lon="7.810198">
        <ele>422.807989</ele>
        <time>2021-11-16T00:00:11.694Z</time>
      </trkpt>
      <trkpt lat="47.437405" lon="7.809871">
        <ele>422.281102</ele>
        <time>2021-11-16T00:00:20.082Z</time>
      </trkpt>
      <trkpt lat="47.437530" lon="7.809761">
        <ele>422.123756</ele>
        <time>2021-11-16T00:00:22.417Z</time>
      </trkpt>
      <trkpt lat="47.437880" lon="7.809448">
        <ele>421.681305</ele>
        <time>2021-11-16T00:00:28.917Z</time>
      </trkpt>
      <trkpt lat="47.438351" lon="7.809132">
        <ele>421.877923</ele>
        <time>2021-11-16T00:00:37.896Z</time>
      </trkpt>
      <trkpt lat="47.438917" lon="7.808920">
        <ele>422.638375</ele>
        <time>2021-11-16T00:00:51.112Z</time>
      </trkpt>
      <trkpt lat="47.439160" lon="7.808856">
        <ele>422.959843</ele>
        <time>2021-11-16T00:00:57.644Z</time>
      </trkpt>
      <trkpt lat="47.439256" lon="7.808836">
        <ele>423.086110</ele>
        <time>2021-11-16T00:01:00.657Z</time>
      </trkpt>
      <trkpt lat="47.439561" lon="7.808777">
        <ele>423.486731</ele>
        <time>2021-11-16T00:01:09.795Z</time>
      </trkpt>
      <trkpt lat="47.439717" lon="7.808754">
        <ele>423.690914</ele>
        <time>2021-11-16T00:01:15.818Z</time>
      </trkpt>
      <trkpt lat="47.440417" lon="7.808777">
        <ele>425.765003</ele>
        <time>2021-11-16T00:01:40.967Z</time>
      </trkpt>
      <trkpt lat="47.442177" lon="7.809333">
        <ele>429.433392</ele>
        <time>2021-11-16T00:02:39.048Z</time>
      </trkpt>
      <trkpt lat="47.442683" lon="7.809428">
        <ele>429.317086</ele>
        <time>2021-11-16T00:02:48.028Z</time>
      </trkpt>
      <trkpt lat="47.442919" lon="7.809465">
        <ele>429.262970</ele>
        <time>2021-11-16T00:02:51.747Z</time>
      </trkpt>
      <trkpt lat="47.443441" lon="7.809553">
        <ele>428.686936</ele>
        <time>2021-11-16T00:03:00.148Z</time>
      </trkpt>
      <trkpt lat="47.443720" lon="7.809596">
        <ele>427.133193</ele>
        <time>2021-11-16T00:03:04.087Z</time>
      </trkpt>
      <trkpt lat="47.443991" lon="7.809623">
        <ele>425.628730</ele>
        <time>2021-11-16T00:03:07.647Z</time>
      </trkpt>
      <trkpt lat="47.444386" lon="7.809626">
        <ele>423.440810</ele>
        <time>2021-11-16T00:03:12.763Z</time>
      </trkpt>
      <trkpt lat="47.445054" lon="7.809404">
        <ele>419.648478</ele>
        <time>2021-11-16T00:03:21.538Z</time>
      </trkpt>
      <trkpt lat="47.445120" lon="7.809369">
        <ele>419.260107</ele>
        <time>2021-11-16T00:03:22.442Z</time>
      </trkpt>
      <trkpt lat="47.445298" lon="7.809256">
        <ele>418.086182</ele>
        <time>2021-11-16T00:03:24.214Z</time>
      </trkpt>
      <trkpt lat="47.445880" lon="7.808843">
        <ele>414.154117</ele>
        <time>2021-11-16T00:03:30.229Z</time>
      </trkpt>
      <trkpt lat="47.446066" lon="7.808703">
        <ele>412.882855</ele>
        <time>2021-11-16T00:03:32.113Z</time>
      </trkpt>
      <trkpt lat="47.446096" lon="7.808680">
        <ele>412.677024</ele>
        <time>2021-11-16T00:03:32.448Z</time>
      </trkpt>
      <trkpt lat="47.446142" lon="7.808642">
        <ele>412.356077</ele>
        <time>2021-11-16T00:03:32.928Z</time>
      </trkpt>
      <trkpt lat="47.446375" lon="7.808453">
        <ele>410.737353</ele>
        <time>2021-11-16T00:03:35.313Z</time>
      </trkpt>
      <trkpt lat="47.446473" lon="7.808376">
        <ele>410.061397</ele>
        <time>2021-11-16T00:03:36.309Z</time>
      </trkpt>
      <trkpt lat="47.446662" lon="7.808234">
        <ele>408.770116</ele>
        <time>2021-11-16T00:03:38.215Z</time>
      </trkpt>
      <trkpt lat="47.447314" lon="7.807756">
        <ele>405.887048</ele>
        <time>2021-11-16T00:03:45.105Z</time>
      </trkpt>
      <trkpt lat="47.447388" lon="7.807704">
        <ele>405.585930</ele>
        <time>2021-11-16T00:03:45.866Z</time>
      </trkpt>
      <trkpt lat="47.447457" lon="7.807654">
        <ele>405.303522</ele>
        <time>2021-11-16T00:03:46.713Z</time>
      </trkpt>
      <trkpt lat="47.447633" lon="7.807562">
        <ele>404.617446</ele>
        <time>2021-11-16T00:03:48.759Z</time>
      </trkpt>
      <trkpt lat="47.447668" lon="7.807553">
        <ele>404.486880</ele>
        <time>2021-11-16T00:03:49.123Z</time>
      </trkpt>
      <trkpt lat="47.447689" lon="7.807548">
        <ele>404.408705</ele>
        <time>2021-11-16T00:03:49.312Z</time>
      </trkpt>
      <trkpt lat="47.447914" lon="7.807549">
        <ele>403.581763</ele>
        <time>2021-11-16T00:03:51.832Z</time>
      </trkpt>
      <trkpt lat="47.448245" lon="7.807740">
        <ele>402.275901</ele>
        <time>2021-11-16T00:03:55.558Z</time>
      </trkpt>
      <trkpt lat="47.448284" lon="7.807767">
        <ele>402.117634</ele>
        <time>2021-11-16T00:03:55.972Z</time>
      </trkpt>
      <trkpt lat="47.448442" lon="7.807881">
        <ele>401.548527</ele>
        <time>2021-11-16T00:03:57.781Z</time>
      </trkpt>
      <trkpt lat="47.448807" lon="7.808072">
        <ele>400.799815</ele>
        <time>2021-11-16T00:04:01.911Z</time>
      </trkpt>
      <trkpt lat="47.448903" lon="7.808078">
        <ele>400.614009</ele>
        <time>2021-11-16T00:04:03.058Z</time>
      </trkpt>
      <trkpt lat="47.449015" lon="7.808053">
        <ele>400.394974</ele>
        <time>2021-11-16T00:04:04.243Z</time>
      </trkpt>
      <trkpt lat="47.449267" lon="7.807971">
        <ele>399.896009</ele>
        <time>2021-11-16T00:04:07.099Z</time>
      </trkpt>
      <trkpt lat="47.449353" lon="7.807942">
        <ele>399.725437</ele>
        <time>2021-11-16T00:04:08.013Z</time>
      </trkpt>
      <trkpt lat="47.449829" lon="7.807782">
        <ele>398.781488</ele>
        <time>2021-11-16T00:04:13.666Z</time>
      </trkpt>
      <trkpt lat="47.449896" lon="7.807771">
        <ele>398.651131</ele>
        <time>2021-11-16T00:04:14.455Z</time>
      </trkpt>
      <trkpt lat="47.450005" lon="7.807761">
        <ele>398.439946</ele>
        <time>2021-11-16T00:04:15.814Z</time>
      </trkpt>
      <trkpt lat="47.451415" lon="7.807774">
        <ele>396.256194</ele>
        <time>2021-11-16T00:04:32.028Z</time>
      </trkpt>
      <trkpt lat="47.451791" lon="7.807759">
        <ele>395.690499</ele>
        <time>2021-11-16T00:04:36.360Z</time>
      </trkpt>
      <trkpt lat="47.451923" lon="7.807754">
        <ele>395.491912</ele>
        <time>2021-11-16T00:04:37.882Z</time>
      </trkpt>
      <trkpt lat="47.452253" lon="7.807773">
        <ele>394.964045</ele>
        <time>2021-11-16T00:04:41.672Z</time>
      </trkpt>
      <trkpt lat="47.452456" lon="7.807753">
        <ele>394.637121</ele>
        <time>2021-11-16T00:04:43.983Z</time>
      </trkpt>
      <trkpt lat="47.452556" lon="7.807739">
        <ele>394.475713</ele>
        <time>2021-11-16T00:04:45.051Z</time>
      </trkpt>
      <trkpt lat="47.452649" lon="7.807724">
        <ele>394.325385</ele>
        <time>2021-11-16T00:04:46.114Z</time>
      </trkpt>
      <trkpt lat="47.452830" lon="7.807686">
        <ele>394.031620</ele>
        <time>2021-11-16T00:04:48.179Z</time>
      </trkpt>
      <trkpt lat="47.453183" lon="7.807608">
        <ele>393.458087</ele>
        <time>2021-11-16T00:04:52.063Z</time>
      </trkpt>
      <trkpt lat="47.453371" lon="7.807571">
        <ele>393.153327</ele>
        <time>2021-11-16T00:04:54.180Z</time>
      </trkpt>
      <trkpt lat="47.453677" lon="7.807487">
        <ele>392.653216</ele>
        <time>2021-11-16T00:04:57.908Z</time>
      </trkpt>
      <trkpt lat="47.453815" lon="7.807438">
        <ele>392.430968</ele>
        <time>2021-11-16T00:04:59.661Z</time>
      </trkpt>
      <trkpt lat="47.453901" lon="7.807402">
        <ele>392.293502</ele>
        <time>2021-11-16T00:05:00.761Z</time>
      </trkpt>
      <trkpt lat="47.453985" lon="7.807368">
        <ele>392.159558</ele>
        <time>2021-11-16T00:05:01.752Z</time>
      </trkpt>
      <trkpt lat="47.454310" lon="7.807191">
        <ele>391.626887</ele>
        <time>2021-11-16T00:05:06.003Z</time>
      </trkpt>
      <trkpt lat="47.454428" lon="7.807128">
        <ele>391.433937</ele>
        <time>2021-11-16T00:05:07.481Z</time>
      </trkpt>
      <trkpt lat="47.454559" lon="7.807067">
        <ele>391.222706</ele>
        <time>2021-11-16T00:05:09.271Z</time>
      </trkpt>
      <trkpt lat="47.455379" lon="7.806783">
        <ele>389.927414</ele>
        <time>2021-11-16T00:05:18.628Z</time>
      </trkpt>
      <trkpt lat="47.456100" lon="7.806718">
        <ele>388.458239</ele>
        <time>2021-11-16T00:05:26.524Z</time>
      </trkpt>
      <trkpt lat="47.456331" lon="7.806727">
        <ele>387.972636</ele>
        <time>2021-11-16T00:05:29.045Z</time>
      </trkpt>
      <trkpt lat="47.456502" lon="7.806745">
        <ele>387.612379</ele>
        <time>2021-11-16T00:05:30.864Z</time>
      </trkpt>
      <trkpt lat="47.456988" lon="7.806840">
        <ele>386.582193</ele>
        <time>2021-11-16T00:05:36.226Z</time>
      </trkpt>
      <trkpt lat="47.457291" lon="7.806917">
        <ele>385.946829</ele>
        <time>2021-11-16T00:05:39.518Z</time>
      </trkpt>
      <trkpt lat="47.457326" lon="7.806926">
        <ele>385.882373</ele>
        <time>2021-11-16T00:05:39.920Z</time>
      </trkpt>
      <trkpt lat="47.457732" lon="7.807037">
        <ele>385.133257</ele>
        <time>2021-11-16T00:05:44.359Z</time>
      </trkpt>
      <trkpt lat="47.458181" lon="7.807191">
        <ele>384.296985</ele>
        <time>2021-11-16T00:05:49.421Z</time>
      </trkpt>
      <trkpt lat="47.458237" lon="7.807215">
        <ele>384.191200</ele>
        <time>2021-11-16T00:05:50.053Z</time>
      </trkpt>
      <trkpt lat="47.458342" lon="7.807254">
        <ele>383.994775</ele>
        <time>2021-11-16T00:05:51.257Z</time>
      </trkpt>
      <trkpt lat="47.458678" lon="7.807409">
        <ele>383.356180</ele>
        <time>2021-11-16T00:05:55.251Z</time>
      </trkpt>
      <trkpt lat="47.459007" lon="7.807577">
        <ele>382.730652</ele>
        <time>2021-11-16T00:05:59.355Z</time>
      </trkpt>
      <trkpt lat="47.459282" lon="7.807707">
        <ele>382.325367</ele>
        <time>2021-11-16T00:06:02.905Z</time>
      </trkpt>
      <trkpt lat="47.459423" lon="7.807775">
        <ele>382.117173</ele>
        <time>2021-11-16T00:06:04.672Z</time>
      </trkpt>
      <trkpt lat="47.459865" lon="7.807952">
        <ele>381.474352</ele>
        <time>2021-11-16T00:06:09.926Z</time>
      </trkpt>
      <trkpt lat="47.460078" lon="7.808023">
        <ele>381.167842</ele>
        <time>2021-11-16T00:06:12.492Z</time>
      </trkpt>
      <trkpt lat="47.460298" lon="7.808103">
        <ele>380.849808</ele>
        <time>2021-11-16T00:06:15.101Z</time>
      </trkpt>
      <trkpt lat="47.460439" lon="7.808155">
        <ele>380.645811</ele>
        <time>2021-11-16T00:06:16.781Z</time>
      </trkpt>
      <trkpt lat="47.460827" lon="7.808276">
        <ele>380.082935</ele>
        <time>2021-11-16T00:06:21.342Z</time>
      </trkpt>
      <trkpt lat="47.460870" lon="7.808289">
        <ele>380.018524</ele>
        <time>2021-11-16T00:06:21.807Z</time>
      </trkpt>
      <trkpt lat="47.460938" lon="7.808308">
        <ele>379.916963</ele>
        <time>2021-11-16T00:06:22.650Z</time>
      </trkpt>
      <trkpt lat="47.461296" lon="7.808372">
        <ele>379.387742</ele>
        <time>2021-11-16T00:06:26.850Z</time>
      </trkpt>
      <trkpt lat="47.461822" lon="7.808433">
        <ele>378.613420</ele>
        <time>2021-11-16T00:06:32.851Z</time>
      </trkpt>
      <trkpt lat="47.461997" lon="7.808450">
        <ele>378.356038</ele>
        <time>2021-11-16T00:06:34.809Z</time>
      </trkpt>
      <trkpt lat="47.462052" lon="7.808470">
        <ele>378.272917</ele>
        <time>2021-11-16T00:06:35.510Z</time>
      </trkpt>
      <trkpt lat="47.462087" lon="7.808494">
        <ele>378.216300</ele>
        <time>2021-11-16T00:06:35.994Z</time>
      </trkpt>
      <trkpt lat="47.462185" lon="7.808547">
        <ele>378.063164</ele>
        <time>2021-11-16T00:06:37.132Z</time>
      </trkpt>
      <trkpt lat="47.462295" lon="7.808638">
        <ele>377.878195</ele>
        <time>2021-11-16T00:06:38.538Z</time>
      </trkpt>
      <trkpt lat="47.462879" lon="7.809121">
        <ele>377.266785</ele>
        <time>2021-11-16T00:06:46.739Z</time>
      </trkpt>
      <trkpt lat="47.462918" lon="7.809150">
        <ele>377.237114</ele>
        <time>2021-11-16T00:06:47.208Z</time>
      </trkpt>
      <trkpt lat="47.463007" lon="7.809215">
        <ele>377.169646</ele>
        <time>2021-11-16T00:06:48.629Z</time>
      </trkpt>
      <trkpt lat="47.463122" lon="7.809317">
        <ele>377.078502</ele>
        <time>2021-11-16T00:06:50.963Z</time>
      </trkpt>
      <trkpt lat="47.463347" lon="7.809533">
        <ele>376.896177</ele>
        <time>2021-11-16T00:06:56.008Z</time>
      </trkpt>
      <trkpt lat="47.463403" lon="7.809601">
        <ele>376.846929</ele>
        <time>2021-11-16T00:06:57.211Z</time>
      </trkpt>
      <trkpt lat="47.463603" lon="7.809961">
        <ele>376.632805</ele>
        <time>2021-11-16T00:07:03.160Z</time>
      </trkpt>
      <trkpt lat="47.463616" lon="7.809990">
        <ele>376.616816</ele>
        <time>2021-11-16T00:07:03.583Z</time>
      </trkpt>
      <trkpt lat="47.463652" lon="7.810060">
        <ele>376.576399</ele>
        <time>2021-11-16T00:07:04.738Z</time>
      </trkpt>
      <trkpt lat="47.463689" lon="7.810134">
        <ele>376.534104</ele>
        <time>2021-11-16T00:07:05.995Z</time>
      </trkpt>
      <trkpt lat="47.463753" lon="7.810251">
        <ele>376.464943</ele>
        <time>2021-11-16T00:07:07.726Z</time>
      </trkpt>
      <trkpt lat="47.463695" lon="7.810412">
        <ele>376.381110</ele>
        <time>2021-11-16T00:07:09.455Z</time>
      </trkpt>
      <trkpt lat="47.463647" lon="7.810559">
        <ele>376.366416</ele>
        <time>2021-11-16T00:07:11.047Z</time>
      </trkpt>
      <trkpt lat="47.463469" lon="7.810568">
        <ele>376.371711</ele>
        <time>2021-11-16T00:07:13.347Z</time>
      </trkpt>
      <trkpt lat="47.463301" lon="7.810602">
        <ele>376.376752</ele>
        <time>2021-11-16T00:07:15.838Z</time>
      </trkpt>
      <trkpt lat="47.463199" lon="7.810823">
        <ele>376.382130</ele>
        <time>2021-11-16T00:07:18.623Z</time>
      </trkpt>
      <trkpt lat="47.463053" lon="7.811430">
        <ele>376.395079</ele>
        <time>2021-11-16T00:07:25.690Z</time>
      </trkpt>
      <trkpt lat="47.463026" lon="7.811593">
        <ele>376.398452</ele>
        <time>2021-11-16T00:07:27.600Z</time>
      </trkpt>
      <trkpt lat="47.463020" lon="7.811691">
        <ele>376.400430</ele>
        <time>2021-11-16T00:07:28.595Z</time>
      </trkpt>
      <trkpt lat="47.462989" lon="7.811854">
        <ele>376.403833</ele>
        <time>2021-11-16T00:07:30.422Z</time>
      </trkpt>
      <trkpt lat="47.462911" lon="7.812181">
        <ele>376.410802</ele>
        <time>2021-11-16T00:07:34.270Z</time>
      </trkpt>
      <trkpt lat="47.462865" lon="7.812376">
        <ele>376.414953</ele>
        <time>2021-11-16T00:07:36.351Z</time>
      </trkpt>
      <trkpt lat="47.462828" lon="7.812529">
        <ele>376.423290</ele>
        <time>2021-11-16T00:07:38.007Z</time>
      </trkpt>
      <trkpt lat="47.462817" lon="7.812574">
        <ele>376.429926</ele>
        <time>2021-11-16T00:07:38.511Z</time>
      </trkpt>
      <trkpt lat="47.462732" lon="7.812921">
        <ele>376.481113</ele>
        <time>2021-11-16T00:07:42.016Z</time>
      </trkpt>
      <trkpt lat="47.462698" lon="7.813056">
        <ele>376.501093</ele>
        <time>2021-11-16T00:07:43.345Z</time>
      </trkpt>
      <trkpt lat="47.462640" lon="7.813294">
        <ele>376.536180</ele>
        <time>2021-11-16T00:07:45.827Z</time>
      </trkpt>
      <trkpt lat="47.462613" lon="7.813401">
        <ele>376.552020</ele>
        <time>2021-11-16T00:07:46.866Z</time>
      </trkpt>
      <trkpt lat="47.462564" lon="7.813594">
        <ele>376.580613</ele>
        <time>2021-11-16T00:07:48.749Z</time>
      </trkpt>
      <trkpt lat="47.462396" lon="7.814329">
        <ele>376.688218</ele>
        <time>2021-11-16T00:07:57.091Z</time>
      </trkpt>
      <trkpt lat="47.462367" lon="7.814455">
        <ele>376.706678</ele>
        <time>2021-11-16T00:07:58.393Z</time>
      </trkpt>
      <trkpt lat="47.462241" lon="7.814875">
        <ele>376.770406</ele>
        <time>2021-11-16T00:08:04.046Z</time>
      </trkpt>
      <trkpt lat="47.462206" lon="7.814978">
        <ele>376.786536</ele>
        <time>2021-11-16T00:08:05.104Z</time>
      </trkpt>
      <trkpt lat="47.462171" lon="7.815069">
        <ele>376.836795</ele>
        <time>2021-11-16T00:08:06.230Z</time>
      </trkpt>
      <trkpt lat="47.462145" lon="7.815140">
        <ele>376.875557</ele>
        <time>2021-11-16T00:08:07.306Z</time>
      </trkpt>
      <trkpt lat="47.461994" lon="7.815782">
        <ele>377.201867</ele>
        <time>2021-11-16T00:08:15.698Z</time>
      </trkpt>
      <trkpt lat="47.461920" lon="7.816096">
        <ele>377.361499</ele>
        <time>2021-11-16T00:08:19.295Z</time>
      </trkpt>
      <trkpt lat="47.461846" lon="7.816333">
        <ele>377.486818</ele>
        <time>2021-11-16T00:08:22.985Z</time>
      </trkpt>
      <trkpt lat="47.461715" lon="7.816705">
        <ele>377.688171</ele>
        <time>2021-11-16T00:08:28.007Z</time>
      </trkpt>
      <trkpt lat="47.461538" lon="7.817207">
        <ele>377.959962</ele>
        <time>2021-11-16T00:08:34.832Z</time>
      </trkpt>
      <trkpt lat="47.461276" lon="7.818608">
        <ele>378.401683</ele>
        <time>2021-11-16T00:08:51.883Z</time>
      </trkpt>
      <trkpt lat="47.461324" lon="7.819030">
        <ele>378.518593</ele>
        <time>2021-11-16T00:08:56.505Z</time>
      </trkpt>
      <trkpt lat="47.461360" lon="7.819102">
        <ele>378.543058</ele>
        <time>2021-11-16T00:08:57.493Z</time>
      </trkpt>
      <trkpt lat="47.461404" lon="7.819154">
        <ele>378.565816</ele>
        <time>2021-11-16T00:08:58.391Z</time>
      </trkpt>
      <trkpt lat="47.461777" lon="7.819314">
        <ele>378.722750</ele>
        <time>2021-11-16T00:09:04.496Z</time>
      </trkpt>
      <trkpt lat="47.461803" lon="7.819336">
        <ele>378.734854</ele>
        <time>2021-11-16T00:09:04.797Z</time>
      </trkpt>
      <trkpt lat="47.461833" lon="7.819386">
        <ele>378.753117</ele>
        <time>2021-11-16T00:09:05.537Z</time>
      </trkpt>
      <trkpt lat="47.461832" lon="7.819582">
        <ele>378.801531</ele>
        <time>2021-11-16T00:09:07.669Z</time>
      </trkpt>
      <trkpt lat="47.461818" lon="7.819635">
        <ele>378.812208</ele>
        <time>2021-11-16T00:09:08.205Z</time>
      </trkpt>
      <trkpt lat="47.461754" lon="7.819910">
        <ele>378.866781</ele>
        <time>2021-11-16T00:09:11.051Z</time>
      </trkpt>
      <trkpt lat="47.461722" lon="7.820179">
        <ele>378.918032</ele>
        <time>2021-11-16T00:09:13.935Z</time>
      </trkpt>
      <trkpt lat="47.461730" lon="7.820282">
        <ele>378.937486</ele>
        <time>2021-11-16T00:09:15.115Z</time>
      </trkpt>
      <trkpt lat="47.461748" lon="7.820387">
        <ele>378.957812</ele>
        <time>2021-11-16T00:09:16.008Z</time>
      </trkpt>
      <trkpt lat="47.461815" lon="7.820783">
        <ele>379.034410</ele>
        <time>2021-11-16T00:09:20.367Z</time>
      </trkpt>
      <trkpt lat="47.461966" lon="7.821681">
        <ele>379.208045</ele>
        <time>2021-11-16T00:09:30.290Z</time>
      </trkpt>
      <trkpt lat="47.461985" lon="7.821867">
        <ele>379.243342</ele>
        <time>2021-11-16T00:09:33.029Z</time>
      </trkpt>
      <trkpt lat="47.462017" lon="7.821859">
        <ele>379.252350</ele>
        <time>2021-11-16T00:09:33.731Z</time>
      </trkpt>
      <trkpt lat="47.462064" lon="7.822514">
        <ele>379.379356</ele>
        <time>2021-11-16T00:09:44.020Z</time>
      </trkpt>
      <trkpt lat="47.462137" lon="7.823536">
        <ele>379.579800</ele>
        <time>2021-11-16T00:09:58.222Z</time>
      </trkpt>
      <trkpt lat="47.462217" lon="7.824625">
        <ele>379.793452</ele>
        <time>2021-11-16T00:10:13.819Z</time>
      </trkpt>
      <trkpt lat="47.462242" lon="7.824692">
        <ele>379.808390</ele>
        <time>2021-11-16T00:10:14.959Z</time>
      </trkpt>
      <trkpt lat="47.462262" lon="7.824736">
        <ele>379.829358</ele>
        <time>2021-11-16T00:10:15.706Z</time>
      </trkpt>
      <trkpt lat="47.462317" lon="7.824823">
        <ele>379.876465</ele>
        <time>2021-11-16T00:10:17.367Z</time>
      </trkpt>
      <trkpt lat="47.462349" lon="7.824857">
        <ele>379.899514</ele>
        <time>2021-11-16T00:10:18.177Z</time>
      </trkpt>
      <trkpt lat="47.462402" lon="7.824900">
        <ele>379.934875</ele>
        <time>2021-11-16T00:10:19.365Z</time>
      </trkpt>
      <trkpt lat="47.462476" lon="7.824944">
        <ele>379.981530</ele>
        <time>2021-11-16T00:10:21.329Z</time>
      </trkpt>
      <trkpt lat="47.462517" lon="7.824972">
        <ele>380.007948</ele>
        <time>2021-11-16T00:10:22.338Z</time>
      </trkpt>
      <trkpt lat="47.462540" lon="7.824993">
        <ele>380.023759</ele>
        <time>2021-11-16T00:10:22.952Z</time>
      </trkpt>
      <trkpt lat="47.462608" lon="7.825120">
        <ele>380.087830</ele>
        <time>2021-11-16T00:10:25.209Z</time>
      </trkpt>
      <trkpt lat="47.462626" lon="7.825283">
        <ele>380.153149</ele>
        <time>2021-11-16T00:10:27.476Z</time>
      </trkpt>
      <trkpt lat="47.462617" lon="7.825344">
        <ele>380.177842</ele>
        <time>2021-11-16T00:10:28.436Z</time>
      </trkpt>
      <trkpt lat="47.462604" lon="7.825402">
        <ele>380.202008</ele>
        <time>2021-11-16T00:10:29.586Z</time>
      </trkpt>
      <trkpt lat="47.462519" lon="7.825555">
        <ele>380.280326</ele>
        <time>2021-11-16T00:10:32.397Z</time>
      </trkpt>
      <trkpt lat="47.462225" lon="7.825725">
        <ele>380.464985</ele>
        <time>2021-11-16T00:10:39.316Z</time>
      </trkpt>
      <trkpt lat="47.462100" lon="7.825934">
        <ele>380.575345</ele>
        <time>2021-11-16T00:10:43.217Z</time>
      </trkpt>
      <trkpt lat="47.462040" lon="7.826135">
        <ele>380.662242</ele>
        <time>2021-11-16T00:10:46.782Z</time>
      </trkpt>
      <trkpt lat="47.461984" lon="7.826457">
        <ele>380.793737</ele>
        <time>2021-11-16T00:10:51.622Z</time>
      </trkpt>
      <trkpt lat="47.461803" lon="7.828145">
        <ele>382.556927</ele>
        <time>2021-11-16T00:11:23.102Z</time>
      </trkpt>
      <trkpt lat="47.461743" lon="7.828542">
        <ele>383.004981</ele>
        <time>2021-11-16T00:11:30.842Z</time>
      </trkpt>
      <trkpt lat="47.461722" lon="7.828676">
        <ele>383.156483</ele>
        <time>2021-11-16T00:11:33.287Z</time>
      </trkpt>
      <trkpt lat="47.461676" lon="7.828959">
        <ele>383.477066</ele>
        <time>2021-11-16T00:11:38.514Z</time>
      </trkpt>
      <trkpt lat="47.461625" lon="7.829509">
        <ele>384.045233</ele>
        <time>2021-11-16T00:11:48.642Z</time>
      </trkpt>
      <trkpt lat="47.461622" lon="7.829595">
        <ele>384.126295</ele>
        <time>2021-11-16T00:11:50.468Z</time>
      </trkpt>
      <trkpt lat="47.461602" lon="7.829950">
        <ele>384.461624</ele>
        <time>2021-11-16T00:11:56.783Z</time>
      </trkpt>
      <trkpt lat="47.461795" lon="7.830905">
        <ele>385.399893</ele>
        <time>2021-11-16T00:12:14.517Z</time>
      </trkpt>
      <trkpt lat="47.461851" lon="7.831136">
        <ele>385.630895</ele>
        <time>2021-11-16T00:12:18.919Z</time>
      </trkpt>
      <trkpt lat="47.461985" lon="7.831682">
        <ele>386.177672</ele>
        <time>2021-11-16T00:12:28.309Z</time>
      </trkpt>
      <trkpt lat="47.462149" lon="7.832256">
        <ele>386.636876</ele>
        <time>2021-11-16T00:12:38.300Z</time>
      </trkpt>
      <trkpt lat="47.462176" lon="7.832337">
        <ele>386.698809</ele>
        <time>2021-11-16T00:12:39.737Z</time>
      </trkpt>
      <trkpt lat="47.462192" lon="7.832386">
        <ele>386.736126</ele>
        <time>2021-11-16T00:12:40.570Z</time>
      </trkpt>
      <trkpt lat="47.462233" lon="7.832513">
        <ele>386.832641</ele>
        <time>2021-11-16T00:12:42.800Z</time>
      </trkpt>
      <trkpt lat="47.462246" lon="7.832587">
        <ele>386.885074</ele>
        <time>2021-11-16T00:12:44.023Z</time>
      </trkpt>
      <trkpt lat="47.462262" lon="7.832704">
        <ele>386.966935</ele>
        <time>2021-11-16T00:12:45.883Z</time>
      </trkpt>
      <trkpt lat="47.462179" lon="7.832744">
        <ele>387.055483</ele>
        <time>2021-11-16T00:12:48.150Z</time>
      </trkpt>
      <trkpt lat="47.462217" lon="7.832953">
        <ele>387.203904</ele>
        <time>2021-11-16T00:12:50.998Z</time>
      </trkpt>
      <trkpt lat="47.462285" lon="7.833721">
        <ele>387.735082</ele>
        <time>2021-11-16T00:13:00.820Z</time>
      </trkpt>
      <trkpt lat="47.462296" lon="7.833933">
        <ele>387.880895</ele>
        <time>2021-11-16T00:13:03.867Z</time>
      </trkpt>
      <trkpt lat="47.462317" lon="7.834216">
        <ele>388.076137</ele>
        <time>2021-11-16T00:13:07.487Z</time>
      </trkpt>
      <trkpt lat="47.462357" lon="7.834782">
        <ele>388.453442</ele>
        <time>2021-11-16T00:13:14.525Z</time>
      </trkpt>
      <trkpt lat="47.462375" lon="7.834910">
        <ele>388.539750</ele>
        <time>2021-11-16T00:13:16.440Z</time>
      </trkpt>
      <trkpt lat="47.462388" lon="7.834991">
        <ele>388.594709</ele>
        <time>2021-11-16T00:13:17.470Z</time>
      </trkpt>
      <trkpt lat="47.462586" lon="7.835900">
        <ele>389.225168</ele>
        <time>2021-11-16T00:13:28.618Z</time>
      </trkpt>
      <trkpt lat="47.462666" lon="7.836201">
        <ele>389.438678</ele>
        <time>2021-11-16T00:13:32.730Z</time>
      </trkpt>
      <trkpt lat="47.462700" lon="7.836337">
        <ele>389.534401</ele>
        <time>2021-11-16T00:13:34.602Z</time>
      </trkpt>
      <trkpt lat="47.462730" lon="7.836472">
        <ele>389.628212</ele>
        <time>2021-11-16T00:13:36.324Z</time>
      </trkpt>
      <trkpt lat="47.462748" lon="7.836556">
        <ele>389.686384</ele>
        <time>2021-11-16T00:13:37.212Z</time>
      </trkpt>
      <trkpt lat="47.462851" lon="7.837404">
        <ele>390.316993</ele>
        <time>2021-11-16T00:13:49.824Z</time>
      </trkpt>
      <trkpt lat="47.462856" lon="7.837506">
        <ele>390.395510</ele>
        <time>2021-11-16T00:13:51.716Z</time>
      </trkpt>
      <trkpt lat="47.462865" lon="7.837711">
        <ele>390.553232</ele>
        <time>2021-11-16T00:13:54.124Z</time>
      </trkpt>
      <trkpt lat="47.462869" lon="7.837866">
        <ele>390.672320</ele>
        <time>2021-11-16T00:13:56.081Z</time>
      </trkpt>
      <trkpt lat="47.462871" lon="7.837954">
        <ele>390.739921</ele>
        <time>2021-11-16T00:13:57.610Z</time>
      </trkpt>
      <trkpt lat="47.462873" lon="7.838016">
        <ele>390.787576</ele>
        <time>2021-11-16T00:13:58.652Z</time>
      </trkpt>
      <trkpt lat="47.462883" lon="7.838488">
        <ele>391.150135</ele>
        <time>2021-11-16T00:14:04.786Z</time>
      </trkpt>
      <trkpt lat="47.462936" lon="7.838934">
        <ele>391.497803</ele>
        <time>2021-11-16T00:14:10.128Z</time>
      </trkpt>
      <trkpt lat="47.462967" lon="7.839047">
        <ele>391.591430</ele>
        <time>2021-11-16T00:14:11.826Z</time>
      </trkpt>
      <trkpt lat="47.462982" lon="7.839106">
        <ele>391.639824</ele>
        <time>2021-11-16T00:14:12.764Z</time>
      </trkpt>
      <trkpt lat="47.463043" lon="7.839292">
        <ele>391.798541</ele>
        <time>2021-11-16T00:14:14.580Z</time>
      </trkpt>
      <trkpt lat="47.463133" lon="7.839561">
        <ele>391.924235</ele>
        <time>2021-11-16T00:14:18.486Z</time>
      </trkpt>
      <trkpt lat="47.463287" lon="7.840028">
        <ele>391.945429</ele>
        <time>2021-11-16T00:14:24.522Z</time>
      </trkpt>
      <trkpt lat="47.463588" lon="7.840904">
        <ele>391.985512</ele>
        <time>2021-11-16T00:14:35.816Z</time>
      </trkpt>
      <trkpt lat="47.463616" lon="7.840992">
        <ele>391.989480</ele>
        <time>2021-11-16T00:14:36.895Z</time>
      </trkpt>
      <trkpt lat="47.463685" lon="7.841203">
        <ele>391.999041</ele>
        <time>2021-11-16T00:14:38.837Z</time>
      </trkpt>
      <trkpt lat="47.463874" lon="7.841863">
        <ele>392.021685</ele>
        <time>2021-11-16T00:14:45.126Z</time>
      </trkpt>
      <trkpt lat="47.463922" lon="7.842123">
        <ele>391.980804</ele>
        <time>2021-11-16T00:14:47.109Z</time>
      </trkpt>
      <trkpt lat="47.463971" lon="7.842355">
        <ele>391.943938</ele>
        <time>2021-11-16T00:14:49.673Z</time>
      </trkpt>
      <trkpt lat="47.464053" lon="7.842690">
        <ele>391.889898</ele>
        <time>2021-11-16T00:14:52.473Z</time>
      </trkpt>
      <trkpt lat="47.464075" lon="7.842774">
        <ele>391.876234</ele>
        <time>2021-11-16T00:14:53.671Z</time>
      </trkpt>
      <trkpt lat="47.464165" lon="7.843130">
        <ele>391.818585</ele>
        <time>2021-11-16T00:14:56.797Z</time>
      </trkpt>
      <trkpt lat="47.464176" lon="7.843178">
        <ele>391.810898</ele>
        <time>2021-11-16T00:14:57.282Z</time>
      </trkpt>
      <trkpt lat="47.464234" lon="7.843434">
        <ele>391.769946</ele>
        <time>2021-11-16T00:15:00.345Z</time>
      </trkpt>
      <trkpt lat="47.464354" lon="7.843960">
        <ele>391.685744</ele>
        <time>2021-11-16T00:15:06.362Z</time>
      </trkpt>
      <trkpt lat="47.464386" lon="7.844088">
        <ele>391.665044</ele>
        <time>2021-11-16T00:15:07.705Z</time>
      </trkpt>
      <trkpt lat="47.464433" lon="7.844273">
        <ele>391.635068</ele>
        <time>2021-11-16T00:15:10.189Z</time>
      </trkpt>
      <trkpt lat="47.464585" lon="7.844988">
        <ele>392.011262</ele>
        <time>2021-11-16T00:15:18.701Z</time>
      </trkpt>
      <trkpt lat="47.464737" lon="7.846119">
        <ele>392.676719</ele>
        <time>2021-11-16T00:15:32.810Z</time>
      </trkpt>
      <trkpt lat="47.464771" lon="7.847028">
        <ele>393.225417</ele>
        <time>2021-11-16T00:15:44.920Z</time>
      </trkpt>
      <trkpt lat="47.464784" lon="7.847333">
        <ele>393.496582</ele>
        <time>2021-11-16T00:15:48.900Z</time>
      </trkpt>
      <trkpt lat="47.464820" lon="7.847644">
        <ele>393.776550</ele>
        <time>2021-11-16T00:15:53.171Z</time>
      </trkpt>
      <trkpt lat="47.464850" lon="7.847870">
        <ele>393.980909</ele>
        <time>2021-11-16T00:15:56.087Z</time>
      </trkpt>
      <trkpt lat="47.464909" lon="7.848219">
        <ele>394.300113</ele>
        <time>2021-11-16T00:16:01.153Z</time>
      </trkpt>
      <trkpt lat="47.464909" lon="7.848219">
        <ele>394.300113</ele>
        <time>2021-11-16T00:16:01.178Z</time>
      </trkpt>
      <trkpt lat="47.464909" lon="7.848219">
        <ele>394.300113</ele>
        <time>2021-11-16T00:16:01.203Z</time>
      </trkpt>
      <trkpt lat="47.464952" lon="7.848443">
        <ele>394.506726</ele>
        <time>2021-11-16T00:16:04.391Z</time>
      </trkpt>
      <trkpt lat="47.465152" lon="7.849351">
        <ele>395.354079</ele>
        <time>2021-11-16T00:16:17.649Z</time>
      </trkpt>
      <trkpt lat="47.465348" lon="7.849875">
        <ele>395.851160</ele>
        <time>2021-11-16T00:16:25.875Z</time>
      </trkpt>
      <trkpt lat="47.465558" lon="7.850405">
        <ele>396.345188</ele>
        <time>2021-11-16T00:16:34.175Z</time>
      </trkpt>
      <trkpt lat="47.465620" lon="7.850585">
        <ele>396.507646</ele>
        <time>2021-11-16T00:16:36.777Z</time>
      </trkpt>
      <trkpt lat="47.465714" lon="7.850917">
        <ele>396.797104</ele>
        <time>2021-11-16T00:16:41.418Z</time>
      </trkpt>
      <trkpt lat="47.465829" lon="7.851383">
        <ele>397.196039</ele>
        <time>2021-11-16T00:16:47.779Z</time>
      </trkpt>
      <trkpt lat="47.465804" lon="7.851399">
        <ele>397.228442</ele>
        <time>2021-11-16T00:16:48.335Z</time>
      </trkpt>
      <trkpt lat="47.465765" lon="7.851501">
        <ele>397.322678</ele>
        <time>2021-11-16T00:16:49.815Z</time>
      </trkpt>
      <trkpt lat="47.465770" lon="7.851542">
        <ele>397.356182</ele>
        <time>2021-11-16T00:16:50.365Z</time>
      </trkpt>
      <trkpt lat="47.465781" lon="7.851575">
        <ele>397.385770</ele>
        <time>2021-11-16T00:16:50.846Z</time>
      </trkpt>
      <trkpt lat="47.465821" lon="7.851619">
        <ele>397.445067</ele>
        <time>2021-11-16T00:16:51.754Z</time>
      </trkpt>
      <trkpt lat="47.465846" lon="7.851625">
        <ele>397.475195</ele>
        <time>2021-11-16T00:16:52.234Z</time>
      </trkpt>
      <trkpt lat="47.465871" lon="7.851620">
        <ele>397.505204</ele>
        <time>2021-11-16T00:16:52.686Z</time>
      </trkpt>
      <trkpt lat="47.465906" lon="7.851776">
        <ele>397.637384</ele>
        <time>2021-11-16T00:16:54.911Z</time>
      </trkpt>
      <trkpt lat="47.466256" lon="7.853287">
        <ele>399.078826</ele>
        <time>2021-11-16T00:17:16.066Z</time>
      </trkpt>
      <trkpt lat="47.466331" lon="7.853936">
        <ele>399.674123</ele>
        <time>2021-11-16T00:17:25.592Z</time>
      </trkpt>
      <trkpt lat="47.466338" lon="7.854554">
        <ele>400.271110</ele>
        <time>2021-11-16T00:17:34.159Z</time>
      </trkpt>
      <trkpt lat="47.466332" lon="7.854775">
        <ele>400.516395</ele>
        <time>2021-11-16T00:17:37.336Z</time>
      </trkpt>
      <trkpt lat="47.466324" lon="7.855062">
        <ele>400.834947</ele>
        <time>2021-11-16T00:17:41.600Z</time>
      </trkpt>
      <trkpt lat="47.466298" lon="7.855895">
        <ele>401.759723</ele>
        <time>2021-11-16T00:17:53.779Z</time>
      </trkpt>
      <trkpt lat="47.466295" lon="7.856234">
        <ele>402.135704</ele>
        <time>2021-11-16T00:17:59.013Z</time>
      </trkpt>
      <trkpt lat="47.466298" lon="7.856354">
        <ele>402.268874</ele>
        <time>2021-11-16T00:18:00.690Z</time>
      </trkpt>
      <trkpt lat="47.466271" lon="7.856363">
        <ele>402.314277</ele>
        <time>2021-11-16T00:18:01.292Z</time>
      </trkpt>
      <trkpt lat="47.466237" lon="7.856421">
        <ele>402.399414</ele>
        <time>2021-11-16T00:18:02.328Z</time>
      </trkpt>
      <trkpt lat="47.466235" lon="7.856461">
        <ele>402.443894</ele>
        <time>2021-11-16T00:18:02.845Z</time>
      </trkpt>
      <trkpt lat="47.466243" lon="7.856497">
        <ele>402.485920</ele>
        <time>2021-11-16T00:18:03.488Z</time>
      </trkpt>
      <trkpt lat="47.466284" lon="7.856540">
        <ele>402.568369</ele>
        <time>2021-11-16T00:18:04.641Z</time>
      </trkpt>
      <trkpt lat="47.466310" lon="7.856541">
        <ele>402.611035</ele>
        <time>2021-11-16T00:18:05.183Z</time>
      </trkpt>
      <trkpt lat="47.466322" lon="7.856655">
        <ele>402.738984</ele>
        <time>2021-11-16T00:18:06.958Z</time>
      </trkpt>
      <trkpt lat="47.466344" lon="7.856945">
        <ele>403.048496</ele>
        <time>2021-11-16T00:18:10.733Z</time>
      </trkpt>
      <trkpt lat="47.466347" lon="7.856973">
        <ele>403.070578</ele>
        <time>2021-11-16T00:18:11.400Z</time>
      </trkpt>
      <trkpt lat="47.466518" lon="7.858022">
        <ele>403.911079</ele>
        <time>2021-11-16T00:18:26.004Z</time>
      </trkpt>
      <trkpt lat="47.466576" lon="7.858236">
        <ele>404.090663</ele>
        <time>2021-11-16T00:18:28.926Z</time>
      </trkpt>
      <trkpt lat="47.466673" lon="7.858620">
        <ele>404.409964</ele>
        <time>2021-11-16T00:18:35.560Z</time>
      </trkpt>
      <trkpt lat="47.466824" lon="7.859137">
        <ele>404.848638</ele>
        <time>2021-11-16T00:18:44.919Z</time>
      </trkpt>
      <trkpt lat="47.466922" lon="7.859398">
        <ele>405.081186</ele>
        <time>2021-11-16T00:18:49.468Z</time>
      </trkpt>
      <trkpt lat="47.467047" lon="7.859682">
        <ele>405.302559</ele>
        <time>2021-11-16T00:18:55.063Z</time>
      </trkpt>
      <trkpt lat="47.467266" lon="7.860107">
        <ele>405.649967</ele>
        <time>2021-11-16T00:19:03.918Z</time>
      </trkpt>
      <trkpt lat="47.467944" lon="7.861300">
        <ele>406.663188</ele>
        <time>2021-11-16T00:19:28.636Z</time>
      </trkpt>
      <trkpt lat="47.468224" lon="7.861805">
        <ele>407.267740</ele>
        <time>2021-11-16T00:19:39.952Z</time>
      </trkpt>
      <trkpt lat="47.468543" lon="7.862357">
        <ele>408.053923</ele>
        <time>2021-11-16T00:19:52.640Z</time>
      </trkpt>
      <trkpt lat="47.468825" lon="7.862900">
        <ele>408.795205</ele>
        <time>2021-11-16T00:20:05.285Z</time>
      </trkpt>
      <trkpt lat="47.468859" lon="7.862978">
        <ele>408.895678</ele>
        <time>2021-11-16T00:20:07.085Z</time>
      </trkpt>
      <trkpt lat="47.468943" lon="7.863195">
        <ele>409.166383</ele>
        <time>2021-11-16T00:20:11.587Z</time>
      </trkpt>
      <trkpt lat="47.468986" lon="7.863323">
        <ele>409.321119</ele>
        <time>2021-11-16T00:20:14.255Z</time>
      </trkpt>
      <trkpt lat="47.469011" lon="7.863405">
        <ele>409.418500</ele>
        <time>2021-11-16T00:20:16.392Z</time>
      </trkpt>
      <trkpt lat="47.469305" lon="7.864692">
        <ele>410.913754</ele>
        <time>2021-11-16T00:20:41.545Z</time>
      </trkpt>
      <trkpt lat="47.469629" lon="7.865918">
        <ele>412.368203</ele>
        <time>2021-11-16T00:21:05.560Z</time>
      </trkpt>
      <trkpt lat="47.469710" lon="7.866208">
        <ele>412.673917</ele>
        <time>2021-11-16T00:21:10.540Z</time>
      </trkpt>
      <trkpt lat="47.469764" lon="7.866452">
        <ele>412.807148</ele>
        <time>2021-11-16T00:21:14.841Z</time>
      </trkpt>
      <trkpt lat="47.469808" lon="7.866690">
        <ele>412.935188</ele>
        <time>2021-11-16T00:21:18.696Z</time>
      </trkpt>
      <trkpt lat="47.469915" lon="7.867494">
        <ele>413.360413</ele>
        <time>2021-11-16T00:21:31.860Z</time>
      </trkpt>
      <trkpt lat="47.470127" lon="7.868484">
        <ele>413.899308</ele>
        <time>2021-11-16T00:21:47.256Z</time>
      </trkpt>
      <trkpt lat="47.470234" lon="7.868884">
        <ele>414.171736</ele>
        <time>2021-11-16T00:21:53.681Z</time>
      </trkpt>
      <trkpt lat="47.470309" lon="7.869201">
        <ele>414.428339</ele>
        <time>2021-11-16T00:21:59.052Z</time>
      </trkpt>
      <trkpt lat="47.470378" lon="7.869626">
        <ele>414.762284</ele>
        <time>2021-11-16T00:22:05.819Z</time>
      </trkpt>
      <trkpt lat="47.470397" lon="7.870147">
        <ele>415.160919</ele>
        <time>2021-11-16T00:22:14.553Z</time>
      </trkpt>
      <trkpt lat="47.470379" lon="7.870338">
        <ele>415.308259</ele>
        <time>2021-11-16T00:22:18.100Z</time>
      </trkpt>
      <trkpt lat="47.470350" lon="7.870570">
        <ele>415.488518</ele>
        <time>2021-11-16T00:22:21.018Z</time>
      </trkpt>
      <trkpt lat="47.470333" lon="7.870669">
        <ele>415.566559</ele>
        <time>2021-11-16T00:22:22.488Z</time>
      </trkpt>
      <trkpt lat="47.470316" lon="7.870753">
        <ele>415.633552</ele>
        <time>2021-11-16T00:22:23.998Z</time>
      </trkpt>
      <trkpt lat="47.470245" lon="7.871088">
        <ele>415.901786</ele>
        <time>2021-11-16T00:22:28.512Z</time>
      </trkpt>
      <trkpt lat="47.470217" lon="7.871214">
        <ele>416.003122</ele>
        <time>2021-11-16T00:22:30.542Z</time>
      </trkpt>
      <trkpt lat="47.470156" lon="7.871491">
        <ele>416.326503</ele>
        <time>2021-11-16T00:22:35.005Z</time>
      </trkpt>
      <trkpt lat="47.469969" lon="7.872276">
        <ele>417.329987</ele>
        <time>2021-11-16T00:22:47.361Z</time>
      </trkpt>
      <trkpt lat="47.469710" lon="7.873249">
        <ele>418.590766</ele>
        <time>2021-11-16T00:23:02.608Z</time>
      </trkpt>
      <trkpt lat="47.469682" lon="7.873326">
        <ele>418.696182</ele>
        <time>2021-11-16T00:23:04.386Z</time>
      </trkpt>
      <trkpt lat="47.469626" lon="7.873477">
        <ele>418.903835</ele>
        <time>2021-11-16T00:23:06.824Z</time>
      </trkpt>
      <trkpt lat="47.469489" lon="7.873809">
        <ele>419.411424</ele>
        <time>2021-11-16T00:23:12.852Z</time>
      </trkpt>
      <trkpt lat="47.469422" lon="7.873965">
        <ele>419.710101</ele>
        <time>2021-11-16T00:23:15.455Z</time>
      </trkpt>
      <trkpt lat="47.469224" lon="7.874328">
        <ele>420.463870</ele>
        <time>2021-11-16T00:23:22.732Z</time>
      </trkpt>
      <trkpt lat="47.469173" lon="7.874432">
        <ele>420.671502</ele>
        <time>2021-11-16T00:23:24.415Z</time>
      </trkpt>
      <trkpt lat="47.469136" lon="7.874516">
        <ele>420.833523</ele>
        <time>2021-11-16T00:23:25.910Z</time>
      </trkpt>
      <trkpt lat="47.469097" lon="7.874606">
        <ele>421.006283</ele>
        <time>2021-11-16T00:23:27.755Z</time>
      </trkpt>
      <trkpt lat="47.469068" lon="7.874689">
        <ele>421.157270</ele>
        <time>2021-11-16T00:23:29.600Z</time>
      </trkpt>
      <trkpt lat="47.469050" lon="7.874738">
        <ele>421.247392</ele>
        <time>2021-11-16T00:23:30.346Z</time>
      </trkpt>
      <trkpt lat="47.468989" lon="7.874967">
        <ele>421.645158</ele>
        <time>2021-11-16T00:23:33.946Z</time>
      </trkpt>
      <trkpt lat="47.468925" lon="7.875205">
        <ele>422.059087</ele>
        <time>2021-11-16T00:23:38.429Z</time>
      </trkpt>
      <trkpt lat="47.468806" lon="7.875696">
        <ele>422.902014</ele>
        <time>2021-11-16T00:23:46.268Z</time>
      </trkpt>
      <trkpt lat="47.468698" lon="7.876140">
        <ele>423.850734</ele>
        <time>2021-11-16T00:23:54.723Z</time>
      </trkpt>
      <trkpt lat="47.468639" lon="7.876439">
        <ele>425.243252</ele>
        <time>2021-11-16T00:24:00.836Z</time>
      </trkpt>
      <trkpt lat="47.468557" lon="7.876917">
        <ele>427.447974</ele>
        <time>2021-11-16T00:24:11.745Z</time>
      </trkpt>
      <trkpt lat="47.468377" lon="7.877826">
        <ele>431.682601</ele>
        <time>2021-11-16T00:24:41.450Z</time>
      </trkpt>
      <trkpt lat="47.468327" lon="7.877957">
        <ele>432.355168</ele>
        <time>2021-11-16T00:24:46.840Z</time>
      </trkpt>
      <trkpt lat="47.468308" lon="7.877998">
        <ele>432.577402</ele>
        <time>2021-11-16T00:24:50.015Z</time>
      </trkpt>
      <trkpt lat="47.468268" lon="7.878083">
        <ele>433.040423</ele>
        <time>2021-11-16T00:24:52.791Z</time>
      </trkpt>
      <trkpt lat="47.468104" lon="7.878354">
        <ele>434.666545</ele>
        <time>2021-11-16T00:25:03.394Z</time>
      </trkpt>
      <trkpt lat="47.468067" lon="7.878427">
        <ele>435.074455</ele>
        <time>2021-11-16T00:25:08.443Z</time>
      </trkpt>
      <trkpt lat="47.467908" lon="7.878819">
        <ele>436.996583</ele>
        <time>2021-11-16T00:25:21.619Z</time>
      </trkpt>
      <trkpt lat="47.467814" lon="7.879126">
        <ele>438.393143</ele>
        <time>2021-11-16T00:25:32.000Z</time>
      </trkpt>
      <trkpt lat="47.467758" lon="7.879308">
        <ele>439.221765</ele>
        <time>2021-11-16T00:25:39.116Z</time>
      </trkpt>
      <trkpt lat="47.467695" lon="7.879712">
        <ele>440.939833</ele>
        <time>2021-11-16T00:25:51.912Z</time>
      </trkpt>
      <trkpt lat="47.467712" lon="7.880819">
        <ele>445.528226</ele>
        <time>2021-11-16T00:26:20.728Z</time>
      </trkpt>
      <trkpt lat="47.467755" lon="7.881902">
        <ele>445.720326</ele>
        <time>2021-11-16T00:26:35.025Z</time>
      </trkpt>
      <trkpt lat="47.467789" lon="7.882188">
        <ele>445.462398</ele>
        <time>2021-11-16T00:26:37.211Z</time>
      </trkpt>
      <trkpt lat="47.467832" lon="7.882502">
        <ele>445.177834</ele>
        <time>2021-11-16T00:26:39.517Z</time>
      </trkpt>
      <trkpt lat="47.467854" lon="7.882590">
        <ele>445.094498</ele>
        <time>2021-11-16T00:26:40.109Z</time>
      </trkpt>
      <trkpt lat="47.468085" lon="7.883534">
        <ele>444.202784</ele>
        <time>2021-11-16T00:26:46.892Z</time>
      </trkpt>
      <trkpt lat="47.468175" lon="7.884477">
        <ele>442.634644</ele>
        <time>2021-11-16T00:26:53.231Z</time>
      </trkpt>
      <trkpt lat="47.468170" lon="7.884753">
        <ele>442.156285</ele>
        <time>2021-11-16T00:26:55.035Z</time>
      </trkpt>
      <trkpt lat="47.468160" lon="7.885131">
        <ele>441.500875</ele>
        <time>2021-11-16T00:26:57.859Z</time>
      </trkpt>
      <trkpt lat="47.468160" lon="7.885412">
        <ele>441.014024</ele>
        <time>2021-11-16T00:26:59.911Z</time>
      </trkpt>
      <trkpt lat="47.468174" lon="7.885724">
        <ele>440.472275</ele>
        <time>2021-11-16T00:27:02.206Z</time>
      </trkpt>
      <trkpt lat="47.468250" lon="7.886308">
        <ele>439.504990</ele>
        <time>2021-11-16T00:27:06.688Z</time>
      </trkpt>
      <trkpt lat="47.468546" lon="7.888014">
        <ele>439.419991</ele>
        <time>2021-11-16T00:27:23.768Z</time>
      </trkpt>
      <trkpt lat="47.468718" lon="7.888938">
        <ele>439.445354</ele>
        <time>2021-11-16T00:27:35.115Z</time>
      </trkpt>
      <trkpt lat="47.468951" lon="7.890216">
        <ele>440.364516</ele>
        <time>2021-11-16T00:27:52.096Z</time>
      </trkpt>
      <trkpt lat="47.469288" lon="7.891996">
        <ele>441.573746</ele>
        <time>2021-11-16T00:28:16.308Z</time>
      </trkpt>
      <trkpt lat="47.469496" lon="7.893085">
        <ele>442.221093</ele>
        <time>2021-11-16T00:28:30.374Z</time>
      </trkpt>
      <trkpt lat="47.469658" lon="7.894567">
        <ele>443.130388</ele>
        <time>2021-11-16T00:28:47.837Z</time>
      </trkpt>
      <trkpt lat="47.469691" lon="7.894970">
        <ele>443.397965</ele>
        <time>2021-11-16T00:28:52.400Z</time>
      </trkpt>
      <trkpt lat="47.469714" lon="7.895204">
        <ele>443.553827</ele>
        <time>2021-11-16T00:28:55.049Z</time>
      </trkpt>
      <trkpt lat="47.469728" lon="7.895384">
        <ele>443.673256</ele>
        <time>2021-11-16T00:28:57.052Z</time>
      </trkpt>
      <trkpt lat="47.469734" lon="7.895575">
        <ele>443.799288</ele>
        <time>2021-11-16T00:28:59.453Z</time>
      </trkpt>
      <trkpt lat="47.469747" lon="7.895922">
        <ele>444.028362</ele>
        <time>2021-11-16T00:29:03.516Z</time>
      </trkpt>
      <trkpt lat="47.469738" lon="7.896220">
        <ele>444.224983</ele>
        <time>2021-11-16T00:29:07.997Z</time>
      </trkpt>
      <trkpt lat="47.469692" lon="7.896826">
        <ele>444.916558</ele>
        <time>2021-11-16T00:29:17.142Z</time>
      </trkpt>
      <trkpt lat="47.469678" lon="7.896938">
        <ele>445.165631</ele>
        <time>2021-11-16T00:29:18.706Z</time>
      </trkpt>
      <trkpt lat="47.469652" lon="7.897139">
        <ele>445.613152</ele>
        <time>2021-11-16T00:29:22.120Z</time>
      </trkpt>
      <trkpt lat="47.469598" lon="7.897405">
        <ele>446.220505</ele>
        <time>2021-11-16T00:29:26.599Z</time>
      </trkpt>
      <trkpt lat="47.469534" lon="7.897638">
        <ele>446.770488</ele>
        <time>2021-11-16T00:29:30.867Z</time>
      </trkpt>
      <trkpt lat="47.469806" lon="7.897795">
        <ele>447.715016</ele>
        <time>2021-11-16T00:29:38.114Z</time>
      </trkpt>
      <trkpt lat="47.469999" lon="7.897879">
        <ele>448.365832</ele>
        <time>2021-11-16T00:29:43.787Z</time>
      </trkpt>
      <trkpt lat="47.471002" lon="7.898222">
        <ele>452.538652</ele>
        <time>2021-11-16T00:30:18.917Z</time>
      </trkpt>
      <trkpt lat="47.471597" lon="7.898344">
        <ele>455.672164</ele>
        <time>2021-11-16T00:30:41.025Z</time>
      </trkpt>
      <trkpt lat="47.471825" lon="7.898370">
        <ele>456.865063</ele>
        <time>2021-11-16T00:30:48.983Z</time>
      </trkpt>
      <trkpt lat="47.471910" lon="7.898392">
        <ele>457.315204</ele>
        <time>2021-11-16T00:30:52.365Z</time>
      </trkpt>
      <trkpt lat="47.473317" lon="7.898945">
        <ele>464.612764</ele>
        <time>2021-11-16T00:31:45.008Z</time>
      </trkpt>
      <trkpt lat="47.473931" lon="7.899567">
        <ele>468.273403</ele>
        <time>2021-11-16T00:32:08.281Z</time>
      </trkpt>
      <trkpt lat="47.474087" lon="7.899774">
        <ele>469.334833</ele>
        <time>2021-11-16T00:32:15.801Z</time>
      </trkpt>
      <trkpt lat="47.474186" lon="7.899915">
        <ele>470.038291</ele>
        <time>2021-11-16T00:32:20.458Z</time>
      </trkpt>
      <trkpt lat="47.474336" lon="7.900125">
        <ele>471.095447</ele>
        <time>2021-11-16T00:32:27.737Z</time>
      </trkpt>
      <trkpt lat="47.474617" lon="7.900560">
        <ele>473.177409</ele>
        <time>2021-11-16T00:32:41.845Z</time>
      </trkpt>
      <trkpt lat="47.474888" lon="7.900841">
        <ele>474.871463</ele>
        <time>2021-11-16T00:32:53.172Z</time>
      </trkpt>
      <trkpt lat="47.475163" lon="7.901034">
        <ele>476.429561</ele>
        <time>2021-11-16T00:33:04.149Z</time>
      </trkpt>
      <trkpt lat="47.475300" lon="7.901112">
        <ele>477.181009</ele>
        <time>2021-11-16T00:33:10.161Z</time>
      </trkpt>
      <trkpt lat="47.476364" lon="7.901870">
        <ele>484.167914</ele>
        <time>2021-11-16T00:33:54.826Z</time>
      </trkpt>
      <trkpt lat="47.476536" lon="7.901977">
        <ele>485.287562</ele>
        <time>2021-11-16T00:34:02.486Z</time>
      </trkpt>
      <trkpt lat="47.476982" lon="7.902234">
        <ele>488.159695</ele>
        <time>2021-11-16T00:34:21.460Z</time>
      </trkpt>
      <trkpt lat="47.478118" lon="7.903075">
        <ele>496.036516</ele>
        <time>2021-11-16T00:35:14.105Z</time>
      </trkpt>
      <trkpt lat="47.478182" lon="7.903109">
        <ele>496.458918</ele>
        <time>2021-11-16T00:35:17.443Z</time>
      </trkpt>
      <trkpt lat="47.478367" lon="7.903166">
        <ele>497.632743</ele>
        <time>2021-11-16T00:35:24.514Z</time>
      </trkpt>
      <trkpt lat="47.480980" lon="7.903461">
        <ele>512.075990</ele>
        <time>2021-11-16T00:36:56.970Z</time>
      </trkpt>
      <trkpt lat="47.481478" lon="7.903693">
        <ele>515.332974</ele>
        <time>2021-11-16T00:37:16.542Z</time>
      </trkpt>
      <trkpt lat="47.481588" lon="7.903776">
        <ele>516.103252</ele>
        <time>2021-11-16T00:37:21.388Z</time>
      </trkpt>
      <trkpt lat="47.481709" lon="7.903892">
        <ele>517.002661</ele>
        <time>2021-11-16T00:37:27.737Z</time>
      </trkpt>
      <trkpt lat="47.482157" lon="7.904346">
        <ele>520.380454</ele>
        <time>2021-11-16T00:37:51.883Z</time>
      </trkpt>
      <trkpt lat="47.482433" lon="7.904538">
        <ele>522.132321</ele>
        <time>2021-11-16T00:38:05.845Z</time>
      </trkpt>
      <trkpt lat="47.483101" lon="7.904680">
        <ele>526.008840</ele>
        <time>2021-11-16T00:38:36.945Z</time>
      </trkpt>
      <trkpt lat="47.483329" lon="7.904705">
        <ele>527.322109</ele>
        <time>2021-11-16T00:38:45.364Z</time>
      </trkpt>
      <trkpt lat="47.483385" lon="7.904708">
        <ele>527.643995</ele>
        <time>2021-11-16T00:38:47.743Z</time>
      </trkpt>
      <trkpt lat="47.484005" lon="7.904793">
        <ele>530.482020</ele>
        <time>2021-11-16T00:39:03.971Z</time>
      </trkpt>
      <trkpt lat="47.484064" lon="7.904808">
        <ele>530.415855</ele>
        <time>2021-11-16T00:39:05.067Z</time>
      </trkpt>
      <trkpt lat="47.484124" lon="7.904824">
        <ele>530.348472</ele>
        <time>2021-11-16T00:39:06.459Z</time>
      </trkpt>
      <trkpt lat="47.484248" lon="7.904856">
        <ele>530.209352</ele>
        <time>2021-11-16T00:39:09.018Z</time>
      </trkpt>
      <trkpt lat="47.484481" lon="7.904947">
        <ele>529.943010</ele>
        <time>2021-11-16T00:39:13.388Z</time>
      </trkpt>
      <trkpt lat="47.484713" lon="7.905133">
        <ele>529.651375</ele>
        <time>2021-11-16T00:39:18.010Z</time>
      </trkpt>
      <trkpt lat="47.484936" lon="7.905289">
        <ele>529.378750</ele>
        <time>2021-11-16T00:39:20.721Z</time>
      </trkpt>
      <trkpt lat="47.485049" lon="7.905336">
        <ele>529.249017</ele>
        <time>2021-11-16T00:39:22.027Z</time>
      </trkpt>
      <trkpt lat="47.485073" lon="7.905345">
        <ele>529.221652</ele>
        <time>2021-11-16T00:39:22.237Z</time>
      </trkpt>
      <trkpt lat="47.485331" lon="7.905337">
        <ele>528.936435</ele>
        <time>2021-11-16T00:39:24.924Z</time>
      </trkpt>
      <trkpt lat="47.485593" lon="7.905145">
        <ele>528.613296</ele>
        <time>2021-11-16T00:39:27.831Z</time>
      </trkpt>
      <trkpt lat="47.486049" lon="7.904262">
        <ele>524.151930</ele>
        <time>2021-11-16T00:39:34.688Z</time>
      </trkpt>
      <trkpt lat="47.486247" lon="7.904043">
        <ele>522.683380</ele>
        <time>2021-11-16T00:39:36.879Z</time>
      </trkpt>
      <trkpt lat="47.486480" lon="7.904016">
        <ele>521.294931</ele>
        <time>2021-11-16T00:39:39.046Z</time>
      </trkpt>
      <trkpt lat="47.486688" lon="7.904238">
        <ele>519.771370</ele>
        <time>2021-11-16T00:39:41.458Z</time>
      </trkpt>
      <trkpt lat="47.486721" lon="7.904326">
        <ele>519.367336</ele>
        <time>2021-11-16T00:39:42.061Z</time>
      </trkpt>
      <trkpt lat="47.486755" lon="7.904487">
        <ele>518.690163</ele>
        <time>2021-11-16T00:39:43.079Z</time>
      </trkpt>
      <trkpt lat="47.486724" lon="7.905485">
        <ele>515.267089</ele>
        <time>2021-11-16T00:39:49.243Z</time>
      </trkpt>
      <trkpt lat="47.486769" lon="7.905976">
        <ele>513.637768</ele>
        <time>2021-11-16T00:39:52.330Z</time>
      </trkpt>
      <trkpt lat="47.486969" lon="7.906583">
        <ele>511.417175</ele>
        <time>2021-11-16T00:39:56.621Z</time>
      </trkpt>
      <trkpt lat="47.487197" lon="7.906946">
        <ele>509.787559</ele>
        <time>2021-11-16T00:40:00.173Z</time>
      </trkpt>
      <trkpt lat="47.487378" lon="7.907191">
        <ele>508.800212</ele>
        <time>2021-11-16T00:40:02.751Z</time>
      </trkpt>
      <trkpt lat="47.487587" lon="7.907459">
        <ele>507.931750</ele>
        <time>2021-11-16T00:40:05.621Z</time>
      </trkpt>
      <trkpt lat="47.487763" lon="7.907711">
        <ele>507.162685</ele>
        <time>2021-11-16T00:40:08.140Z</time>
      </trkpt>
      <trkpt lat="47.488080" lon="7.908344">
        <ele>505.490733</ele>
        <time>2021-11-16T00:40:13.498Z</time>
      </trkpt>
      <trkpt lat="47.488185" lon="7.908663">
        <ele>504.737752</ele>
        <time>2021-11-16T00:40:16.029Z</time>
      </trkpt>
      <trkpt lat="47.488241" lon="7.908835">
        <ele>504.332598</ele>
        <time>2021-11-16T00:40:17.287Z</time>
      </trkpt>
      <trkpt lat="47.488366" lon="7.909318">
        <ele>503.156252</ele>
        <time>2021-11-16T00:40:20.891Z</time>
      </trkpt>
      <trkpt lat="47.488699" lon="7.910498">
        <ele>499.710861</ele>
        <time>2021-11-16T00:40:29.412Z</time>
      </trkpt>
      <trkpt lat="47.488908" lon="7.911009">
        <ele>498.101524</ele>
        <time>2021-11-16T00:40:33.248Z</time>
      </trkpt>
      <trkpt lat="47.489040" lon="7.911300">
        <ele>497.157216</ele>
        <time>2021-11-16T00:40:35.460Z</time>
      </trkpt>
      <trkpt lat="47.489216" lon="7.911685">
        <ele>496.006725</ele>
        <time>2021-11-16T00:40:38.549Z</time>
      </trkpt>
      <trkpt lat="47.489607" lon="7.912646">
        <ele>493.667470</ele>
        <time>2021-11-16T00:40:46.062Z</time>
      </trkpt>
      <trkpt lat="47.489843" lon="7.913398">
        <ele>491.938422</ele>
        <time>2021-11-16T00:40:51.934Z</time>
      </trkpt>
      <trkpt lat="47.489922" lon="7.913738">
        <ele>491.188664</ele>
        <time>2021-11-16T00:40:54.645Z</time>
      </trkpt>
      <trkpt lat="47.489951" lon="7.913893">
        <ele>490.853277</ele>
        <time>2021-11-16T00:40:55.838Z</time>
      </trkpt>
      <trkpt lat="47.489987" lon="7.914083">
        <ele>490.524999</ele>
        <time>2021-11-16T00:40:57.310Z</time>
      </trkpt>
      <trkpt lat="47.490283" lon="7.915612">
        <ele>487.968418</ele>
        <time>2021-11-16T00:41:08.853Z</time>
      </trkpt>
      <trkpt lat="47.490429" lon="7.916164">
        <ele>487.015589</ele>
        <time>2021-11-16T00:41:13.100Z</time>
      </trkpt>
      <trkpt lat="47.490607" lon="7.916690">
        <ele>485.846472</ele>
        <time>2021-11-16T00:41:17.309Z</time>
      </trkpt>
      <trkpt lat="47.490822" lon="7.917158">
        <ele>484.491171</ele>
        <time>2021-11-16T00:41:21.225Z</time>
      </trkpt>
      <trkpt lat="47.491324" lon="7.917985">
        <ele>481.828825</ele>
        <time>2021-11-16T00:41:28.676Z</time>
      </trkpt>
      <trkpt lat="47.492227" lon="7.918989">
        <ele>477.058555</ele>
        <time>2021-11-16T00:41:39.527Z</time>
      </trkpt>
      <trkpt lat="47.492584" lon="7.919482">
        <ele>474.757038</ele>
        <time>2021-11-16T00:41:44.133Z</time>
      </trkpt>
      <trkpt lat="47.492813" lon="7.919900">
        <ele>473.043151</ele>
        <time>2021-11-16T00:41:47.559Z</time>
      </trkpt>
      <trkpt lat="47.493132" lon="7.920716">
        <ele>470.264763</ele>
        <time>2021-11-16T00:41:53.615Z</time>
      </trkpt>
      <trkpt lat="47.493236" lon="7.921091">
        <ele>469.150936</ele>
        <time>2021-11-16T00:41:56.240Z</time>
      </trkpt>
      <trkpt lat="47.493307" lon="7.921373">
        <ele>468.324024</ele>
        <time>2021-11-16T00:41:58.215Z</time>
      </trkpt>
      <trkpt lat="47.493397" lon="7.921760">
        <ele>467.199424</ele>
        <time>2021-11-16T00:42:00.921Z</time>
      </trkpt>
      <trkpt lat="47.493708" lon="7.923049">
        <ele>463.594925</ele>
        <time>2021-11-16T00:42:10.110Z</time>
      </trkpt>
      <trkpt lat="47.494034" lon="7.924101">
        <ele>460.955045</ele>
        <time>2021-11-16T00:42:18.050Z</time>
      </trkpt>
      <trkpt lat="47.494438" lon="7.925289">
        <ele>457.871686</ele>
        <time>2021-11-16T00:42:27.128Z</time>
      </trkpt>
      <trkpt lat="47.494515" lon="7.925509">
        <ele>457.229648</ele>
        <time>2021-11-16T00:42:28.739Z</time>
      </trkpt>
      <trkpt lat="47.494945" lon="7.926765">
        <ele>453.580998</ele>
        <time>2021-11-16T00:42:38.119Z</time>
      </trkpt>
      <trkpt lat="47.495031" lon="7.927006">
        <ele>452.874747</ele>
        <time>2021-11-16T00:42:39.840Z</time>
      </trkpt>
      <trkpt lat="47.495268" lon="7.927740">
        <ele>450.923930</ele>
        <time>2021-11-16T00:42:45.211Z</time>
      </trkpt>
      <trkpt lat="47.495455" lon="7.928595">
        <ele>449.183643</ele>
        <time>2021-11-16T00:42:51.344Z</time>
      </trkpt>
      <trkpt lat="47.495530" lon="7.929063">
        <ele>448.252223</ele>
        <time>2021-11-16T00:42:54.652Z</time>
      </trkpt>
      <trkpt lat="47.495562" lon="7.929221">
        <ele>447.932808</ele>
        <time>2021-11-16T00:42:55.897Z</time>
      </trkpt>
      <trkpt lat="47.495622" lon="7.929400">
        <ele>447.545865</ele>
        <time>2021-11-16T00:42:57.404Z</time>
      </trkpt>
      <trkpt lat="47.495801" lon="7.929891">
        <ele>446.465473</ele>
        <time>2021-11-16T00:43:01.544Z</time>
      </trkpt>
      <trkpt lat="47.495985" lon="7.930428">
        <ele>445.772424</ele>
        <time>2021-11-16T00:43:05.936Z</time>
      </trkpt>
      <trkpt lat="47.496051" lon="7.930607">
        <ele>445.577427</ele>
        <time>2021-11-16T00:43:07.527Z</time>
      </trkpt>
      <trkpt lat="47.496117" lon="7.930763">
        <ele>445.401420</ele>
        <time>2021-11-16T00:43:08.913Z</time>
      </trkpt>
      <trkpt lat="47.496162" lon="7.930842">
        <ele>445.302611</ele>
        <time>2021-11-16T00:43:09.784Z</time>
      </trkpt>
      <trkpt lat="47.496205" lon="7.930904">
        <ele>445.217648</ele>
        <time>2021-11-16T00:43:10.409Z</time>
      </trkpt>
      <trkpt lat="47.496424" lon="7.931075">
        <ele>444.867207</ele>
        <time>2021-11-16T00:43:13.767Z</time>
      </trkpt>
      <trkpt lat="47.496998" lon="7.931330">
        <ele>444.019012</ele>
        <time>2021-11-16T00:43:21.342Z</time>
      </trkpt>
      <trkpt lat="47.497104" lon="7.931414">
        <ele>443.848839</ele>
        <time>2021-11-16T00:43:22.757Z</time>
      </trkpt>
      <trkpt lat="47.497221" lon="7.931528">
        <ele>443.638948</ele>
        <time>2021-11-16T00:43:24.410Z</time>
      </trkpt>
      <trkpt lat="47.497430" lon="7.931757">
        <ele>443.156807</ele>
        <time>2021-11-16T00:43:27.239Z</time>
      </trkpt>
      <trkpt lat="47.497676" lon="7.932013">
        <ele>442.599238</ele>
        <time>2021-11-16T00:43:30.405Z</time>
      </trkpt>
      <trkpt lat="47.497907" lon="7.932254">
        <ele>442.075228</ele>
        <time>2021-11-16T00:43:33.499Z</time>
      </trkpt>
      <trkpt lat="47.498068" lon="7.932426">
        <ele>441.707078</ele>
        <time>2021-11-16T00:43:35.629Z</time>
      </trkpt>
      <trkpt lat="47.498138" lon="7.932522">
        <ele>441.530140</ele>
        <time>2021-11-16T00:43:36.635Z</time>
      </trkpt>
      <trkpt lat="47.498196" lon="7.932613">
        <ele>441.373426</ele>
        <time>2021-11-16T00:43:37.548Z</time>
      </trkpt>
      <trkpt lat="47.498391" lon="7.932972">
        <ele>440.796398</ele>
        <time>2021-11-16T00:43:41.058Z</time>
      </trkpt>
      <trkpt lat="47.498431" lon="7.932995">
        <ele>440.716833</ele>
        <time>2021-11-16T00:43:41.549Z</time>
      </trkpt>
      <trkpt lat="47.498481" lon="7.933011">
        <ele>440.621985</ele>
        <time>2021-11-16T00:43:42.102Z</time>
      </trkpt>
      <trkpt lat="47.498563" lon="7.932968">
        <ele>440.460687</ele>
        <time>2021-11-16T00:43:43.352Z</time>
      </trkpt>
      <trkpt lat="47.498925" lon="7.932781">
        <ele>439.970786</ele>
        <time>2021-11-16T00:43:47.777Z</time>
      </trkpt>
      <trkpt lat="47.498997" lon="7.932758">
        <ele>439.884233</ele>
        <time>2021-11-16T00:43:48.576Z</time>
      </trkpt>
      <trkpt lat="47.499088" lon="7.932741">
        <ele>439.776453</ele>
        <time>2021-11-16T00:43:49.776Z</time>
      </trkpt>
      <trkpt lat="47.499354" lon="7.932769">
        <ele>439.463095</ele>
        <time>2021-11-16T00:43:52.908Z</time>
      </trkpt>
      <trkpt lat="47.499421" lon="7.932805">
        <ele>439.379338</ele>
        <time>2021-11-16T00:43:53.777Z</time>
      </trkpt>
      <trkpt lat="47.499538" lon="7.932868">
        <ele>439.233040</ele>
        <time>2021-11-16T00:43:55.180Z</time>
      </trkpt>
      <trkpt lat="47.499623" lon="7.932989">
        <ele>439.094463</ele>
        <time>2021-11-16T00:43:56.534Z</time>
      </trkpt>
      <trkpt lat="47.499822" lon="7.933272">
        <ele>438.770187</ele>
        <time>2021-11-16T00:43:59.724Z</time>
      </trkpt>
      <trkpt lat="47.499993" lon="7.933864">
        <ele>438.259063</ele>
        <time>2021-11-16T00:44:05.242Z</time>
      </trkpt>
      <trkpt lat="47.500034" lon="7.933965">
        <ele>438.213881</ele>
        <time>2021-11-16T00:44:06.129Z</time>
      </trkpt>
      <trkpt lat="47.500007" lon="7.933994">
        <ele>438.200247</ele>
        <time>2021-11-16T00:44:06.612Z</time>
      </trkpt>
      <trkpt lat="47.499971" lon="7.934127">
        <ele>438.160684</ele>
        <time>2021-11-16T00:44:08.320Z</time>
      </trkpt>
      <trkpt lat="47.499976" lon="7.934175">
        <ele>438.147273</ele>
        <time>2021-11-16T00:44:08.999Z</time>
      </trkpt>
      <trkpt lat="47.499991" lon="7.934221">
        <ele>438.133169</ele>
        <time>2021-11-16T00:44:09.395Z</time>
      </trkpt>
      <trkpt lat="47.500077" lon="7.934300">
        <ele>438.091801</ele>
        <time>2021-11-16T00:44:10.590Z</time>
      </trkpt>
      <trkpt lat="47.500111" lon="7.934299">
        <ele>438.077902</ele>
        <time>2021-11-16T00:44:11.127Z</time>
      </trkpt>
      <trkpt lat="47.500150" lon="7.934279">
        <ele>438.061032</ele>
        <time>2021-11-16T00:44:11.670Z</time>
      </trkpt>
      <trkpt lat="47.500213" lon="7.934131">
        <ele>438.012730</ele>
        <time>2021-11-16T00:44:13.998Z</time>
      </trkpt>
      <trkpt lat="47.500208" lon="7.934071">
        <ele>437.996037</ele>
        <time>2021-11-16T00:44:14.763Z</time>
      </trkpt>
      <trkpt lat="47.500275" lon="7.934029">
        <ele>437.966298</ele>
        <time>2021-11-16T00:44:15.630Z</time>
      </trkpt>
      <trkpt lat="47.500352" lon="7.933976">
        <ele>437.931591</ele>
        <time>2021-11-16T00:44:16.846Z</time>
      </trkpt>
      <trkpt lat="47.500386" lon="7.933937">
        <ele>437.914010</ele>
        <time>2021-11-16T00:44:17.487Z</time>
      </trkpt>
      <trkpt lat="47.500435" lon="7.933872">
        <ele>437.887117</ele>
        <time>2021-11-16T00:44:18.593Z</time>
      </trkpt>
      <trkpt lat="47.500843" lon="7.933102">
        <ele>437.616908</ele>
        <time>2021-11-16T00:44:27.792Z</time>
      </trkpt>
      <trkpt lat="47.500990" lon="7.932950">
        <ele>437.543619</ele>
        <time>2021-11-16T00:44:30.403Z</time>
      </trkpt>
      <trkpt lat="47.501075" lon="7.932885">
        <ele>437.504497</ele>
        <time>2021-11-16T00:44:31.411Z</time>
      </trkpt>
      <trkpt lat="47.501463" lon="7.932668">
        <ele>437.169957</ele>
        <time>2021-11-16T00:44:36.415Z</time>
      </trkpt>
      <trkpt lat="47.501794" lon="7.932466">
        <ele>436.881185</ele>
        <time>2021-11-16T00:44:41.087Z</time>
      </trkpt>
      <trkpt lat="47.501901" lon="7.932351">
        <ele>436.774533</ele>
        <time>2021-11-16T00:44:43.231Z</time>
      </trkpt>
      <trkpt lat="47.502023" lon="7.932158">
        <ele>436.630512</ele>
        <time>2021-11-16T00:44:45.250Z</time>
      </trkpt>
      <trkpt lat="47.502400" lon="7.931256">
        <ele>436.052485</ele>
        <time>2021-11-16T00:44:54.223Z</time>
      </trkpt>
      <trkpt lat="47.502613" lon="7.930856">
        <ele>435.756460</ele>
        <time>2021-11-16T00:44:58.307Z</time>
      </trkpt>
      <trkpt lat="47.502761" lon="7.930610">
        <ele>435.565004</ele>
        <time>2021-11-16T00:45:01.211Z</time>
      </trkpt>
      <trkpt lat="47.503014" lon="7.930220">
        <ele>435.250745</ele>
        <time>2021-11-16T00:45:05.933Z</time>
      </trkpt>
      <trkpt lat="47.503485" lon="7.929688">
        <ele>434.741031</ele>
        <time>2021-11-16T00:45:13.716Z</time>
      </trkpt>
      <trkpt lat="47.503528" lon="7.929650">
        <ele>434.697945</ele>
        <time>2021-11-16T00:45:14.201Z</time>
      </trkpt>
      <trkpt lat="47.503598" lon="7.929585">
        <ele>434.626853</ele>
        <time>2021-11-16T00:45:15.654Z</time>
      </trkpt>
      <trkpt lat="47.503815" lon="7.929426">
        <ele>434.259099</ele>
        <time>2021-11-16T00:45:18.341Z</time>
      </trkpt>
      <trkpt lat="47.504005" lon="7.929312">
        <ele>433.762504</ele>
        <time>2021-11-16T00:45:21.569Z</time>
      </trkpt>
      <trkpt lat="47.504650" lon="7.928941">
        <ele>432.086354</ele>
        <time>2021-11-16T00:45:29.288Z</time>
      </trkpt>
      <trkpt lat="47.504724" lon="7.928871">
        <ele>431.873636</ele>
        <time>2021-11-16T00:45:30.253Z</time>
      </trkpt>
      <trkpt lat="47.504799" lon="7.928777">
        <ele>431.635599</ele>
        <time>2021-11-16T00:45:31.127Z</time>
      </trkpt>
      <trkpt lat="47.505253" lon="7.928170">
        <ele>430.153760</ele>
        <time>2021-11-16T00:45:37.477Z</time>
      </trkpt>
      <trkpt lat="47.505814" lon="7.927657">
        <ele>427.767888</ele>
        <time>2021-11-16T00:45:43.779Z</time>
      </trkpt>
      <trkpt lat="47.505868" lon="7.927611">
        <ele>427.542269</ele>
        <time>2021-11-16T00:45:44.398Z</time>
      </trkpt>
      <trkpt lat="47.505881" lon="7.927601">
        <ele>427.489215</ele>
        <time>2021-11-16T00:45:44.534Z</time>
      </trkpt>
      <trkpt lat="47.506112" lon="7.927414">
        <ele>426.535774</ele>
        <time>2021-11-16T00:45:46.994Z</time>
      </trkpt>
      <trkpt lat="47.507856" lon="7.925990">
        <ele>420.769302</ele>
        <time>2021-11-16T00:46:07.766Z</time>
      </trkpt>
      <trkpt lat="47.508002" lon="7.925879">
        <ele>420.374230</ele>
        <time>2021-11-16T00:46:09.573Z</time>
      </trkpt>
      <trkpt lat="47.508106" lon="7.925799">
        <ele>420.092113</ele>
        <time>2021-11-16T00:46:10.970Z</time>
      </trkpt>
      <trkpt lat="47.508355" lon="7.925609">
        <ele>419.417812</ele>
        <time>2021-11-16T00:46:14.133Z</time>
      </trkpt>
      <trkpt lat="47.508667" lon="7.925295">
        <ele>418.570809</ele>
        <time>2021-11-16T00:46:18.389Z</time>
      </trkpt>
      <trkpt lat="47.509016" lon="7.924882">
        <ele>417.577815</ele>
        <time>2021-11-16T00:46:23.129Z</time>
      </trkpt>
      <trkpt lat="47.509032" lon="7.924863">
        <ele>417.532229</ele>
        <time>2021-11-16T00:46:23.331Z</time>
      </trkpt>
      <trkpt lat="47.509223" lon="7.924628">
        <ele>416.980274</ele>
        <time>2021-11-16T00:46:25.997Z</time>
      </trkpt>
      <trkpt lat="47.509572" lon="7.924311">
        <ele>416.070277</ele>
        <time>2021-11-16T00:46:30.354Z</time>
      </trkpt>
      <trkpt lat="47.509605" lon="7.924290">
        <ele>415.990447</ele>
        <time>2021-11-16T00:46:30.693Z</time>
      </trkpt>
      <trkpt lat="47.509676" lon="7.924247">
        <ele>415.819958</ele>
        <time>2021-11-16T00:46:31.483Z</time>
      </trkpt>
      <trkpt lat="47.509806" lon="7.924174">
        <ele>415.510950</ele>
        <time>2021-11-16T00:46:33.076Z</time>
      </trkpt>
      <trkpt lat="47.509886" lon="7.924134">
        <ele>415.323285</ele>
        <time>2021-11-16T00:46:34.054Z</time>
      </trkpt>
      <trkpt lat="47.509869" lon="7.923971">
        <ele>415.139387</ele>
        <time>2021-11-16T00:46:35.164Z</time>
      </trkpt>
      <trkpt lat="47.509817" lon="7.923703">
        <ele>414.835026</ele>
        <time>2021-11-16T00:46:37.323Z</time>
      </trkpt>
      <trkpt lat="47.509668" lon="7.923400">
        <ele>414.425928</ele>
        <time>2021-11-16T00:46:40.025Z</time>
      </trkpt>
      <trkpt lat="47.509595" lon="7.923295">
        <ele>414.261454</ele>
        <time>2021-11-16T00:46:41.252Z</time>
      </trkpt>
      <trkpt lat="47.509550" lon="7.923245">
        <ele>414.170532</ele>
        <time>2021-11-16T00:46:41.923Z</time>
      </trkpt>
      <trkpt lat="47.509583" lon="7.922962">
        <ele>413.857057</ele>
        <time>2021-11-16T00:46:43.993Z</time>
      </trkpt>
      <trkpt lat="47.509615" lon="7.922742">
        <ele>413.611414</ele>
        <time>2021-11-16T00:46:45.892Z</time>
      </trkpt>
      <trkpt lat="47.509688" lon="7.922616">
        <ele>413.430219</ele>
        <time>2021-11-16T00:46:47.044Z</time>
      </trkpt>
      <trkpt lat="47.510639" lon="7.921796">
        <ele>411.990621</ele>
        <time>2021-11-16T00:47:00.602Z</time>
      </trkpt>
      <trkpt lat="47.510872" lon="7.921477">
        <ele>411.709242</ele>
        <time>2021-11-16T00:47:04.700Z</time>
      </trkpt>
      <trkpt lat="47.511052" lon="7.921232">
        <ele>411.492451</ele>
        <time>2021-11-16T00:47:07.827Z</time>
      </trkpt>
      <trkpt lat="47.511067" lon="7.921207">
        <ele>411.472426</ele>
        <time>2021-11-16T00:47:08.098Z</time>
      </trkpt>
      <trkpt lat="47.511186" lon="7.920984">
        <ele>411.302228</ele>
        <time>2021-11-16T00:47:10.593Z</time>
      </trkpt>
      <trkpt lat="47.511371" lon="7.920637">
        <ele>411.037485</ele>
        <time>2021-11-16T00:47:14.284Z</time>
      </trkpt>
      <trkpt lat="47.511613" lon="7.920183">
        <ele>410.595907</ele>
        <time>2021-11-16T00:47:19.155Z</time>
      </trkpt>
      <trkpt lat="47.511632" lon="7.920105">
        <ele>410.505722</ele>
        <time>2021-11-16T00:47:19.902Z</time>
      </trkpt>
      <trkpt lat="47.511883" lon="7.920133">
        <ele>410.100396</ele>
        <time>2021-11-16T00:47:24.031Z</time>
      </trkpt>
      <trkpt lat="47.511964" lon="7.919989">
        <ele>409.896576</ele>
        <time>2021-11-16T00:47:25.487Z</time>
      </trkpt>
      <trkpt lat="47.512085" lon="7.919732">
        <ele>409.555846</ele>
        <time>2021-11-16T00:47:27.877Z</time>
      </trkpt>
      <trkpt lat="47.512255" lon="7.919538">
        <ele>409.210217</ele>
        <time>2021-11-16T00:47:30.304Z</time>
      </trkpt>
      <trkpt lat="47.512664" lon="7.919306">
        <ele>408.504930</ele>
        <time>2021-11-16T00:47:35.192Z</time>
      </trkpt>
      <trkpt lat="47.512938" lon="7.919052">
        <ele>407.984364</ele>
        <time>2021-11-16T00:47:38.757Z</time>
      </trkpt>
      <trkpt lat="47.513058" lon="7.918896">
        <ele>407.710960</ele>
        <time>2021-11-16T00:47:40.481Z</time>
      </trkpt>
      <trkpt lat="47.513160" lon="7.918764">
        <ele>407.473572</ele>
        <time>2021-11-16T00:47:41.958Z</time>
      </trkpt>
      <trkpt lat="47.513378" lon="7.918393">
        <ele>406.891567</ele>
        <time>2021-11-16T00:47:45.622Z</time>
      </trkpt>
      <trkpt lat="47.514255" lon="7.917714">
        <ele>405.157364</ele>
        <time>2021-11-16T00:47:56.695Z</time>
      </trkpt>
      <trkpt lat="47.514561" lon="7.917409">
        <ele>404.613236</ele>
        <time>2021-11-16T00:48:01.007Z</time>
      </trkpt>
      <trkpt lat="47.514635" lon="7.917349">
        <ele>404.526174</ele>
        <time>2021-11-16T00:48:01.950Z</time>
      </trkpt>
      <trkpt lat="47.515014" lon="7.917030">
        <ele>404.076297</ele>
        <time>2021-11-16T00:48:07.314Z</time>
      </trkpt>
      <trkpt lat="47.516391" lon="7.915243">
        <ele>402.268725</ele>
        <time>2021-11-16T00:48:30.016Z</time>
      </trkpt>
      <trkpt lat="47.516544" lon="7.914936">
        <ele>402.033212</ele>
        <time>2021-11-16T00:48:33.187Z</time>
      </trkpt>
      <trkpt lat="47.516569" lon="7.914864">
        <ele>401.983239</ele>
        <time>2021-11-16T00:48:33.966Z</time>
      </trkpt>
      <trkpt lat="47.516590" lon="7.914840">
        <ele>401.958993</ele>
        <time>2021-11-16T00:48:34.282Z</time>
      </trkpt>
      <trkpt lat="47.516626" lon="7.914830">
        <ele>401.925516</ele>
        <time>2021-11-16T00:48:34.761Z</time>
      </trkpt>
      <trkpt lat="47.516662" lon="7.914835">
        <ele>401.892468</ele>
        <time>2021-11-16T00:48:35.196Z</time>
      </trkpt>
      <trkpt lat="47.516748" lon="7.914873">
        <ele>401.810442</ele>
        <time>2021-11-16T00:48:36.271Z</time>
      </trkpt>
      <trkpt lat="47.516806" lon="7.914896">
        <ele>401.755563</ele>
        <time>2021-11-16T00:48:36.977Z</time>
      </trkpt>
      <trkpt lat="47.517140" lon="7.915259">
        <ele>401.376888</ele>
        <time>2021-11-16T00:48:42.139Z</time>
      </trkpt>
      <trkpt lat="47.517281" lon="7.915238">
        <ele>401.245932</ele>
        <time>2021-11-16T00:48:43.947Z</time>
      </trkpt>
      <trkpt lat="47.517688" lon="7.914418">
        <ele>400.544959</ele>
        <time>2021-11-16T00:48:52.320Z</time>
      </trkpt>
      <trkpt lat="47.519421" lon="7.912098">
        <ele>398.047918</ele>
        <time>2021-11-16T00:49:20.642Z</time>
      </trkpt>
      <trkpt lat="47.519505" lon="7.911936">
        <ele>397.894518</ele>
        <time>2021-11-16T00:49:22.303Z</time>
      </trkpt>
      <trkpt lat="47.519595" lon="7.911762">
        <ele>397.729905</ele>
        <time>2021-11-16T00:49:24.022Z</time>
      </trkpt>
      <trkpt lat="47.519720" lon="7.911522">
        <ele>397.502269</ele>
        <time>2021-11-16T00:49:26.511Z</time>
      </trkpt>
      <trkpt lat="47.519891" lon="7.911129">
        <ele>397.265668</ele>
        <time>2021-11-16T00:49:30.313Z</time>
      </trkpt>
      <trkpt lat="47.519997" lon="7.910833">
        <ele>397.119299</ele>
        <time>2021-11-16T00:49:32.968Z</time>
      </trkpt>
      <trkpt lat="47.520493" lon="7.908683">
        <ele>396.244753</ele>
        <time>2021-11-16T00:49:53.217Z</time>
      </trkpt>
      <trkpt lat="47.520738" lon="7.907839">
        <ele>396.195195</ele>
        <time>2021-11-16T00:50:03.722Z</time>
      </trkpt>
      <trkpt lat="47.520733" lon="7.907655">
        <ele>396.185261</ele>
        <time>2021-11-16T00:50:05.332Z</time>
      </trkpt>
      <trkpt lat="47.520551" lon="7.907422">
        <ele>396.166043</ele>
        <time>2021-11-16T00:50:09.382Z</time>
      </trkpt>
      <trkpt lat="47.520506" lon="7.907236">
        <ele>396.155384</ele>
        <time>2021-11-16T00:50:11.062Z</time>
      </trkpt>
      <trkpt lat="47.520515" lon="7.907103">
        <ele>396.148174</ele>
        <time>2021-11-16T00:50:12.798Z</time>
      </trkpt>
      <trkpt lat="47.520528" lon="7.906930">
        <ele>396.138784</ele>
        <time>2021-11-16T00:50:14.337Z</time>
      </trkpt>
      <trkpt lat="47.520566" lon="7.906668">
        <ele>396.124328</ele>
        <time>2021-11-16T00:50:16.692Z</time>
      </trkpt>
      <trkpt lat="47.520678" lon="7.906050">
        <ele>395.541808</ele>
        <time>2021-11-16T00:50:22.566Z</time>
      </trkpt>
      <trkpt lat="47.520989" lon="7.905130">
        <ele>394.395882</ele>
        <time>2021-11-16T00:50:30.925Z</time>
      </trkpt>
      <trkpt lat="47.521049" lon="7.904971">
        <ele>394.193012</ele>
        <time>2021-11-16T00:50:32.311Z</time>
      </trkpt>
      <trkpt lat="47.521099" lon="7.904838">
        <ele>394.023468</ele>
        <time>2021-11-16T00:50:33.440Z</time>
      </trkpt>
      <trkpt lat="47.521297" lon="7.904312">
        <ele>393.352735</ele>
        <time>2021-11-16T00:50:37.683Z</time>
      </trkpt>
      <trkpt lat="47.521792" lon="7.903347">
        <ele>390.448455</ele>
        <time>2021-11-16T00:50:45.805Z</time>
      </trkpt>
      <trkpt lat="47.522013" lon="7.902637">
        <ele>388.398740</ele>
        <time>2021-11-16T00:50:50.990Z</time>
      </trkpt>
      <trkpt lat="47.522038" lon="7.902562">
        <ele>388.179454</ele>
        <time>2021-11-16T00:50:51.511Z</time>
      </trkpt>
      <trkpt lat="47.522065" lon="7.902526">
        <ele>388.038398</ele>
        <time>2021-11-16T00:50:51.843Z</time>
      </trkpt>
      <trkpt lat="47.522132" lon="7.902476">
        <ele>387.747112</ele>
        <time>2021-11-16T00:50:52.586Z</time>
      </trkpt>
      <trkpt lat="47.522260" lon="7.902356">
        <ele>387.158945</ele>
        <time>2021-11-16T00:50:54.077Z</time>
      </trkpt>
      <trkpt lat="47.522554" lon="7.901999">
        <ele>385.758283</ele>
        <time>2021-11-16T00:50:57.728Z</time>
      </trkpt>
      <trkpt lat="47.522688" lon="7.901843">
        <ele>385.199411</ele>
        <time>2021-11-16T00:50:59.318Z</time>
      </trkpt>
      <trkpt lat="47.523036" lon="7.901580">
        <ele>383.918398</ele>
        <time>2021-11-16T00:51:03.104Z</time>
      </trkpt>
      <trkpt lat="47.523340" lon="7.901197">
        <ele>382.609730</ele>
        <time>2021-11-16T00:51:07.064Z</time>
      </trkpt>
      <trkpt lat="47.523433" lon="7.901043">
        <ele>382.152300</ele>
        <time>2021-11-16T00:51:08.454Z</time>
      </trkpt>
      <trkpt lat="47.523567" lon="7.900820">
        <ele>381.491379</ele>
        <time>2021-11-16T00:51:10.554Z</time>
      </trkpt>
      <trkpt lat="47.523620" lon="7.900698">
        <ele>381.170190</ele>
        <time>2021-11-16T00:51:11.655Z</time>
      </trkpt>
      <trkpt lat="47.523648" lon="7.900606">
        <ele>380.946760</ele>
        <time>2021-11-16T00:51:12.340Z</time>
      </trkpt>
      <trkpt lat="47.523739" lon="7.900557">
        <ele>380.629281</ele>
        <time>2021-11-16T00:51:13.396Z</time>
      </trkpt>
      <trkpt lat="47.523878" lon="7.900445">
        <ele>380.248303</ele>
        <time>2021-11-16T00:51:15.362Z</time>
      </trkpt>
      <trkpt lat="47.523957" lon="7.900371">
        <ele>380.205319</ele>
        <time>2021-11-16T00:51:16.393Z</time>
      </trkpt>
      <trkpt lat="47.523989" lon="7.900340">
        <ele>380.187736</ele>
        <time>2021-11-16T00:51:16.859Z</time>
      </trkpt>
      <trkpt lat="47.523945" lon="7.900256">
        <ele>380.154726</ele>
        <time>2021-11-16T00:51:17.937Z</time>
      </trkpt>
      <trkpt lat="47.523890" lon="7.900131">
        <ele>380.108400</ele>
        <time>2021-11-16T00:51:19.351Z</time>
      </trkpt>
      <trkpt lat="47.523861" lon="7.900049">
        <ele>380.079657</ele>
        <time>2021-11-16T00:51:20.248Z</time>
      </trkpt>
      <trkpt lat="47.523896" lon="7.900001">
        <ele>380.057722</ele>
        <time>2021-11-16T00:51:20.804Z</time>
      </trkpt>
      <trkpt lat="47.524309" lon="7.899115">
        <ele>379.723430</ele>
        <time>2021-11-16T00:51:30.629Z</time>
      </trkpt>
      <trkpt lat="47.524360" lon="7.898951">
        <ele>379.667366</ele>
        <time>2021-11-16T00:51:32.332Z</time>
      </trkpt>
      <trkpt lat="47.524617" lon="7.898216">
        <ele>379.414931</ele>
        <time>2021-11-16T00:51:41.542Z</time>
      </trkpt>
      <trkpt lat="47.524834" lon="7.897636">
        <ele>379.237234</ele>
        <time>2021-11-16T00:51:48.731Z</time>
      </trkpt>
      <trkpt lat="47.525518" lon="7.896336">
        <ele>378.795578</ele>
        <time>2021-11-16T00:52:04.816Z</time>
      </trkpt>
      <trkpt lat="47.525590" lon="7.896117">
        <ele>378.730303</ele>
        <time>2021-11-16T00:52:06.454Z</time>
      </trkpt>
      <trkpt lat="47.525622" lon="7.895944">
        <ele>378.430353</ele>
        <time>2021-11-16T00:52:08.582Z</time>
      </trkpt>
      <trkpt lat="47.525631" lon="7.895583">
        <ele>377.822164</ele>
        <time>2021-11-16T00:52:10.970Z</time>
      </trkpt>
      <trkpt lat="47.525631" lon="7.895442">
        <ele>377.584779</ele>
        <time>2021-11-16T00:52:12.706Z</time>
      </trkpt>
      <trkpt lat="47.525603" lon="7.895265">
        <ele>377.278716</ele>
        <time>2021-11-16T00:52:14.054Z</time>
      </trkpt>
      <trkpt lat="47.525725" lon="7.895110">
        <ele>376.877942</ele>
        <time>2021-11-16T00:52:15.575Z</time>
      </trkpt>
      <trkpt lat="47.526257" lon="7.894278">
        <ele>374.948850</ele>
        <time>2021-11-16T00:52:23.771Z</time>
      </trkpt>
      <trkpt lat="47.526335" lon="7.893960">
        <ele>374.379250</ele>
        <time>2021-11-16T00:52:26.104Z</time>
      </trkpt>
      <trkpt lat="47.526401" lon="7.893964">
        <ele>374.216707</ele>
        <time>2021-11-16T00:52:26.740Z</time>
      </trkpt>
      <trkpt lat="47.526451" lon="7.893983">
        <ele>374.096953</ele>
        <time>2021-11-16T00:52:27.473Z</time>
      </trkpt>
      <trkpt lat="47.526504" lon="7.894030">
        <ele>373.953638</ele>
        <time>2021-11-16T00:52:28.142Z</time>
      </trkpt>
      <trkpt lat="47.526709" lon="7.893617">
        <ele>373.150669</ele>
        <time>2021-11-16T00:52:31.568Z</time>
      </trkpt>
      <trkpt lat="47.527011" lon="7.893061">
        <ele>372.032868</ele>
        <time>2021-11-16T00:52:36.573Z</time>
      </trkpt>
      <trkpt lat="47.527498" lon="7.892650">
        <ele>370.732490</ele>
        <time>2021-11-16T00:52:42.646Z</time>
      </trkpt>
      <trkpt lat="47.528003" lon="7.892732">
        <ele>369.829568</ele>
        <time>2021-11-16T00:52:48.896Z</time>
      </trkpt>
      <trkpt lat="47.528331" lon="7.892682">
        <ele>369.471035</ele>
        <time>2021-11-16T00:52:53.164Z</time>
      </trkpt>
      <trkpt lat="47.529235" lon="7.892158">
        <ele>368.415473</ele>
        <time>2021-11-16T00:53:04.863Z</time>
      </trkpt>
      <trkpt lat="47.529695" lon="7.891638">
        <ele>367.879168</ele>
        <time>2021-11-16T00:53:11.916Z</time>
      </trkpt>
      <trkpt lat="47.529714" lon="7.891609">
        <ele>367.857835</ele>
        <time>2021-11-16T00:53:12.178Z</time>
      </trkpt>
      <trkpt lat="47.529972" lon="7.891210">
        <ele>367.566183</ele>
        <time>2021-11-16T00:53:16.604Z</time>
      </trkpt>
      <trkpt lat="47.530322" lon="7.890690">
        <ele>367.178567</ele>
        <time>2021-11-16T00:53:22.748Z</time>
      </trkpt>
      <trkpt lat="47.530606" lon="7.890373">
        <ele>366.900517</ele>
        <time>2021-11-16T00:53:27.456Z</time>
      </trkpt>
      <trkpt lat="47.530833" lon="7.890207">
        <ele>366.720177</ele>
        <time>2021-11-16T00:53:30.935Z</time>
      </trkpt>
      <trkpt lat="47.531076" lon="7.890029">
        <ele>366.966982</ele>
        <time>2021-11-16T00:53:35.206Z</time>
      </trkpt>
      <trkpt lat="47.531265" lon="7.889937">
        <ele>367.148103</ele>
        <time>2021-11-16T00:53:38.273Z</time>
      </trkpt>
      <trkpt lat="47.531560" lon="7.889776">
        <ele>367.434323</ele>
        <time>2021-11-16T00:53:43.926Z</time>
      </trkpt>
      <trkpt lat="47.531843" lon="7.889349">
        <ele>367.802114</ele>
        <time>2021-11-16T00:53:51.509Z</time>
      </trkpt>
      <trkpt lat="47.532011" lon="7.888896">
        <ele>368.119805</ele>
        <time>2021-11-16T00:53:58.706Z</time>
      </trkpt>
      <trkpt lat="47.532288" lon="7.887728">
        <ele>369.373416</ele>
        <time>2021-11-16T00:54:17.587Z</time>
      </trkpt>
      <trkpt lat="47.532505" lon="7.887120">
        <ele>370.187199</ele>
        <time>2021-11-16T00:54:27.873Z</time>
      </trkpt>
      <trkpt lat="47.532650" lon="7.885569">
        <ele>371.828795</ele>
        <time>2021-11-16T00:54:50.635Z</time>
      </trkpt>
      <trkpt lat="47.532658" lon="7.884989">
        <ele>372.246522</ele>
        <time>2021-11-16T00:54:58.822Z</time>
      </trkpt>
      <trkpt lat="47.532670" lon="7.884773">
        <ele>372.402583</ele>
        <time>2021-11-16T00:55:02.125Z</time>
      </trkpt>
      <trkpt lat="47.532699" lon="7.884224">
        <ele>372.799109</ele>
        <time>2021-11-16T00:55:09.240Z</time>
      </trkpt>
      <trkpt lat="47.532713" lon="7.884122">
        <ele>372.874059</ele>
        <time>2021-11-16T00:55:10.404Z</time>
      </trkpt>
      <trkpt lat="47.532859" lon="7.883508">
        <ele>373.342798</ele>
        <time>2021-11-16T00:55:18.015Z</time>
      </trkpt>
      <trkpt lat="47.533014" lon="7.882949">
        <ele>373.080401</ele>
        <time>2021-11-16T00:55:24.235Z</time>
      </trkpt>
      <trkpt lat="47.533374" lon="7.881639">
        <ele>372.121167</ele>
        <time>2021-11-16T00:55:35.947Z</time>
      </trkpt>
      <trkpt lat="47.533606" lon="7.880961">
        <ele>371.588742</ele>
        <time>2021-11-16T00:55:41.742Z</time>
      </trkpt>
      <trkpt lat="47.533892" lon="7.880353">
        <ele>369.738559</ele>
        <time>2021-11-16T00:55:47.059Z</time>
      </trkpt>
      <trkpt lat="47.534616" lon="7.879490">
        <ele>366.301758</ele>
        <time>2021-11-16T00:55:56.229Z</time>
      </trkpt>
      <trkpt lat="47.534908" lon="7.878975">
        <ele>364.467701</ele>
        <time>2021-11-16T00:56:00.431Z</time>
      </trkpt>
      <trkpt lat="47.534946" lon="7.878790">
        <ele>363.763398</ele>
        <time>2021-11-16T00:56:01.707Z</time>
      </trkpt>
      <trkpt lat="47.534825" lon="7.878414">
        <ele>362.246312</ele>
        <time>2021-11-16T00:56:04.234Z</time>
      </trkpt>
      <trkpt lat="47.534778" lon="7.878270">
        <ele>361.663759</ele>
        <time>2021-11-16T00:56:05.385Z</time>
      </trkpt>
      <trkpt lat="47.534855" lon="7.878090">
        <ele>360.887639</ele>
        <time>2021-11-16T00:56:06.636Z</time>
      </trkpt>
      <trkpt lat="47.535088" lon="7.877742">
        <ele>359.102560</ele>
        <time>2021-11-16T00:56:09.731Z</time>
      </trkpt>
      <trkpt lat="47.535322" lon="7.877590">
        <ele>357.724133</ele>
        <time>2021-11-16T00:56:12.228Z</time>
      </trkpt>
      <trkpt lat="47.535551" lon="7.877487">
        <ele>356.433035</ele>
        <time>2021-11-16T00:56:14.382Z</time>
      </trkpt>
      <trkpt lat="47.535635" lon="7.877484">
        <ele>355.979745</ele>
        <time>2021-11-16T00:56:15.319Z</time>
      </trkpt>
      <trkpt lat="47.535770" lon="7.877432">
        <ele>355.237671</ele>
        <time>2021-11-16T00:56:16.571Z</time>
      </trkpt>
      <trkpt lat="47.535851" lon="7.877319">
        <ele>354.846953</ele>
        <time>2021-11-16T00:56:17.601Z</time>
      </trkpt>
      <trkpt lat="47.536444" lon="7.876177">
        <ele>351.431509</ele>
        <time>2021-11-16T00:56:26.980Z</time>
      </trkpt>
      <trkpt lat="47.536632" lon="7.875912">
        <ele>350.520217</ele>
        <time>2021-11-16T00:56:29.630Z</time>
      </trkpt>
      <trkpt lat="47.536757" lon="7.875759">
        <ele>349.950819</ele>
        <time>2021-11-16T00:56:31.576Z</time>
      </trkpt>
      <trkpt lat="47.536921" lon="7.875537">
        <ele>349.170692</ele>
        <time>2021-11-16T00:56:34.143Z</time>
      </trkpt>
      <trkpt lat="47.537182" lon="7.875293">
        <ele>348.659294</ele>
        <time>2021-11-16T00:56:37.853Z</time>
      </trkpt>
      <trkpt lat="47.537261" lon="7.875237">
        <ele>348.557777</ele>
        <time>2021-11-16T00:56:38.814Z</time>
      </trkpt>
      <trkpt lat="47.537716" lon="7.874966">
        <ele>347.989334</ele>
        <time>2021-11-16T00:56:44.703Z</time>
      </trkpt>
      <trkpt lat="47.538278" lon="7.874319">
        <ele>347.164290</ele>
        <time>2021-11-16T00:56:53.178Z</time>
      </trkpt>
      <trkpt lat="47.539222" lon="7.873416">
        <ele>345.788320</ele>
        <time>2021-11-16T00:57:07.624Z</time>
      </trkpt>
      <trkpt lat="47.539678" lon="7.872430">
        <ele>344.784044</ele>
        <time>2021-11-16T00:57:16.745Z</time>
      </trkpt>
      <trkpt lat="47.539841" lon="7.872151">
        <ele>344.617711</ele>
        <time>2021-11-16T00:57:19.623Z</time>
      </trkpt>
      <trkpt lat="47.539930" lon="7.872041">
        <ele>344.617711</ele>
        <time>2021-11-16T00:57:20.849Z</time>
      </trkpt>
      <trkpt lat="47.540034" lon="7.871970">
        <ele>344.617711</ele>
        <time>2021-11-16T00:57:22.229Z</time>
      </trkpt>
      <trkpt lat="47.540216" lon="7.871851">
        <ele>344.617711</ele>
        <time>2021-11-16T00:57:24.431Z</time>
      </trkpt>
      <trkpt lat="47.540265" lon="7.871808">
        <ele>344.617711</ele>
        <time>2021-11-16T00:57:25.058Z</time>
      </trkpt>
      <trkpt lat="47.540463" lon="7.871584">
        <ele>344.617711</ele>
        <time>2021-11-16T00:57:27.946Z</time>
      </trkpt>
      <trkpt lat="47.540693" lon="7.871390">
        <ele>344.617711</ele>
        <time>2021-11-16T00:57:30.959Z</time>
      </trkpt>
      <trkpt lat="47.540782" lon="7.871315">
        <ele>344.617711</ele>
        <time>2021-11-16T00:57:32.099Z</time>
      </trkpt>
    </trkseg>
  </trk>
</gpx>